<?xml version='1.0' encoding='UTF-8'?><gpx version="1.1" creator="JPX - https://github.com/jenetics/jpx" xmlns="http://www.topografix.com/GPX/1/1"><trk><trkseg><trkpt lat="50.98643637641274" lon="4.813066129173532"><ele>10.0</ele><time>2026-04-23T15:17:59Z</time></trkpt><trkpt lat="50.98630422006498" lon="4.812867342852443"><ele>10.0</ele><time>2026-04-23T15:18:01Z</time></trkpt><trkpt lat="50.98621013189697" lon="4.812798372182374"><ele>10.0</ele><time>2026-04-23T15:18:02Z</time></trkpt><trkpt lat="50.98607742481786" lon="4.812747581345912"><ele>10.0</ele><time>2026-04-23T15:18:03Z</time></trkpt><trkpt lat="50.98592906753126" lon="4.81274203600155"><ele>10.333333333333334</ele><time>2026-04-23T15:18:04Z</time></trkpt><trkpt lat="50.98575857071038" lon="4.812768794837669"><ele>10.666666666666666</ele><time>2026-04-23T15:18:05Z</time></trkpt><trkpt lat="50.98560030766093" lon="4.812778987259309"><ele>11.0</ele><time>2026-04-23T15:18:06Z</time></trkpt><trkpt lat="50.985434561134475" lon="4.81279115724496"><ele>11.0</ele><time>2026-04-23T15:18:07Z</time></trkpt><trkpt lat="50.98527126004102" lon="4.812812810857273"><ele>11.0</ele><time>2026-04-23T15:18:08Z</time></trkpt><trkpt lat="50.985108427668365" lon="4.81283455012057"><ele>11.0</ele><time>2026-04-23T15:18:08.999Z</time></trkpt><trkpt lat="50.98494588390731" lon="4.8128504279812105"><ele>11.0</ele><time>2026-04-23T15:18:09.999Z</time></trkpt><trkpt lat="50.98478518460858" lon="4.812870650531658"><ele>11.0</ele><time>2026-04-23T15:18:10.999Z</time></trkpt><trkpt lat="50.98463135035608" lon="4.8128876599358845"><ele>11.0</ele><time>2026-04-23T15:18:11.999Z</time></trkpt><trkpt lat="50.98449628761591" lon="4.812898898384644"><ele>11.0</ele><time>2026-04-23T15:18:12.999Z</time></trkpt><trkpt lat="50.98437463565283" lon="4.812911252087829"><ele>11.0</ele><time>2026-04-23T15:18:13.999Z</time></trkpt><trkpt lat="50.98425909290614" lon="4.812919240353206"><ele>11.0</ele><time>2026-04-23T15:18:14.999Z</time></trkpt><trkpt lat="50.984144728306475" lon="4.812920372567105"><ele>11.0</ele><time>2026-04-23T15:18:15.999Z</time></trkpt><trkpt lat="50.984033548023476" lon="4.81293812285544"><ele>10.833333333333332</ele><time>2026-04-23T15:18:16.999Z</time></trkpt><trkpt lat="50.983934291765095" lon="4.812947987643805"><ele>10.666666666666666</ele><time>2026-04-23T15:18:17.999Z</time></trkpt><trkpt lat="50.98385050143365" lon="4.8129543195325954"><ele>10.5</ele><time>2026-04-23T15:18:18.999Z</time></trkpt><trkpt lat="50.983781592454605" lon="4.812961001321682"><ele>10.333333333333334</ele><time>2026-04-23T15:18:19.999Z</time></trkpt><trkpt lat="50.98367889392192" lon="4.812963606809134"><ele>10.166666666666668</ele><time>2026-04-23T15:18:21.999Z</time></trkpt><trkpt lat="50.9836114912006" lon="4.812967993381531"><ele>10.0</ele><time>2026-04-23T15:18:24.999Z</time></trkpt><trkpt lat="50.983582871128164" lon="4.812848294907734"><ele>10.0</ele><time>2026-04-23T15:18:26.999Z</time></trkpt><trkpt lat="50.9835506341169" lon="4.812748700518994"><ele>10.0</ele><time>2026-04-23T15:18:45.999Z</time></trkpt><trkpt lat="50.98351348881339" lon="4.812629713785413"><ele>10.0</ele><time>2026-04-23T15:18:49.999Z</time></trkpt><trkpt lat="50.98348299371742" lon="4.8124835939663075"><ele>10.0</ele><time>2026-04-23T15:18:52.999Z</time></trkpt><trkpt lat="50.983453312732216" lon="4.8123609109585015"><ele>10.0</ele><time>2026-04-23T15:18:54.999Z</time></trkpt><trkpt lat="50.98343163582937" lon="4.812159043485895"><ele>10.0</ele><time>2026-04-23T15:18:56.999Z</time></trkpt><trkpt lat="50.983411221962555" lon="4.812043522241923"><ele>10.0</ele><time>2026-04-23T15:18:57.999Z</time></trkpt><trkpt lat="50.98339179979178" lon="4.811934276988294"><ele>10.0</ele><time>2026-04-23T15:18:58.998Z</time></trkpt><trkpt lat="50.983350093471536" lon="4.811789873363022"><ele>10.0</ele><time>2026-04-23T15:19:00.998Z</time></trkpt><trkpt lat="50.983324635028474" lon="4.811652553340373"><ele>10.0</ele><time>2026-04-23T15:19:02.998Z</time></trkpt><trkpt lat="50.98329019191274" lon="4.811491032073615"><ele>10.0</ele><time>2026-04-23T15:19:04.998Z</time></trkpt><trkpt lat="50.983278142036944" lon="4.811298418794285"><ele>10.2</ele><time>2026-04-23T15:19:06.998Z</time></trkpt><trkpt lat="50.983239122732705" lon="4.811160312915314"><ele>10.4</ele><time>2026-04-23T15:19:08.998Z</time></trkpt><trkpt lat="50.98323277497859" lon="4.811009718900085"><ele>10.600000000000001</ele><time>2026-04-23T15:19:29.998Z</time></trkpt><trkpt lat="50.983216205853815" lon="4.810846153822208"><ele>10.8</ele><time>2026-04-23T15:19:31.998Z</time></trkpt><trkpt lat="50.98318041462844" lon="4.810707270068007"><ele>11.0</ele><time>2026-04-23T15:19:33.998Z</time></trkpt><trkpt lat="50.98315617600885" lon="4.810607859031878"><ele>11.0</ele><time>2026-04-23T15:19:37.998Z</time></trkpt><trkpt lat="50.98300866810768" lon="4.810627453792597"><ele>11.0</ele><time>2026-04-23T15:19:39.998Z</time></trkpt><trkpt lat="50.98292120157746" lon="4.810647102259478"><ele>11.0</ele><time>2026-04-23T15:19:40.998Z</time></trkpt><trkpt lat="50.982822811204294" lon="4.810659756818145"><ele>11.0</ele><time>2026-04-23T15:19:41.998Z</time></trkpt><trkpt lat="50.98270615300651" lon="4.810672002086805"><ele>11.0</ele><time>2026-04-23T15:19:42.998Z</time></trkpt><trkpt lat="50.982576915530174" lon="4.8106851281497685"><ele>11.0</ele><time>2026-04-23T15:19:43.998Z</time></trkpt><trkpt lat="50.982437523191855" lon="4.8106992678120655"><ele>11.0</ele><time>2026-04-23T15:19:44.998Z</time></trkpt><trkpt lat="50.982278532377016" lon="4.810715396332117"><ele>11.0</ele><time>2026-04-23T15:19:45.999Z</time></trkpt><trkpt lat="50.98211243172828" lon="4.810735411917421"><ele>11.333333333333332</ele><time>2026-04-23T15:19:46.999Z</time></trkpt><trkpt lat="50.98192927434079" lon="4.810757306422378"><ele>11.666666666666666</ele><time>2026-04-23T15:19:47.999Z</time></trkpt><trkpt lat="50.98173277767089" lon="4.810781036625664"><ele>12.0</ele><time>2026-04-23T15:19:48.999Z</time></trkpt><trkpt lat="50.98154593763626" lon="4.810802035182532"><ele>12.0</ele><time>2026-04-23T15:19:49.999Z</time></trkpt><trkpt lat="50.98134652041326" lon="4.810824371387101"><ele>12.0</ele><time>2026-04-23T15:19:50.999Z</time></trkpt><trkpt lat="50.981145892888684" lon="4.810856920694994"><ele>12.0</ele><time>2026-04-23T15:19:51.999Z</time></trkpt><trkpt lat="50.98094714689456" lon="4.810905606274647"><ele>12.0</ele><time>2026-04-23T15:19:52.999Z</time></trkpt><trkpt lat="50.980741205301904" lon="4.81096417354299"><ele>12.0</ele><time>2026-04-23T15:19:53.999Z</time></trkpt><trkpt lat="50.98054479477027" lon="4.811032469058593"><ele>12.0</ele><time>2026-04-23T15:19:54.999Z</time></trkpt><trkpt lat="50.98034973344819" lon="4.811113819970312"><ele>13.0</ele><time>2026-04-23T15:19:55.999Z</time></trkpt><trkpt lat="50.98015905585924" lon="4.811212654922286"><ele>14.0</ele><time>2026-04-23T15:19:56.999Z</time></trkpt><trkpt lat="50.979968302418015" lon="4.811326291573912"><ele>15.0</ele><time>2026-04-23T15:19:57.999Z</time></trkpt><trkpt lat="50.979784071323714" lon="4.811452363150496"><ele>15.666666666666668</ele><time>2026-04-23T15:19:58.999Z</time></trkpt><trkpt lat="50.979598972320396" lon="4.811592406621049"><ele>16.333333333333336</ele><time>2026-04-23T15:19:59.999Z</time></trkpt><trkpt lat="50.97942291555402" lon="4.8117436040900605"><ele>17.0</ele><time>2026-04-23T15:20:00.999Z</time></trkpt><trkpt lat="50.979245644871604" lon="4.8119100531526025"><ele>17.0</ele><time>2026-04-23T15:20:01.999Z</time></trkpt><trkpt lat="50.979078559286414" lon="4.812087544475962"><ele>17.0</ele><time>2026-04-23T15:20:02.999Z</time></trkpt><trkpt lat="50.97891646335362" lon="4.812282869178836"><ele>17.0</ele><time>2026-04-23T15:20:03.999Z</time></trkpt><trkpt lat="50.97876207882238" lon="4.812492185417153"><ele>17.0</ele><time>2026-04-23T15:20:04.999Z</time></trkpt><trkpt lat="50.97860967397187" lon="4.812717022164606"><ele>17.0</ele><time>2026-04-23T15:20:05.999Z</time></trkpt><trkpt lat="50.978462104151824" lon="4.812950418380207"><ele>17.0</ele><time>2026-04-23T15:20:06.999Z</time></trkpt><trkpt lat="50.97832065535014" lon="4.813197620642494"><ele>17.0</ele><time>2026-04-23T15:20:07.999Z</time></trkpt><trkpt lat="50.978182014581215" lon="4.813453046433948"><ele>17.0</ele><time>2026-04-23T15:20:08.999Z</time></trkpt><trkpt lat="50.97804362739626" lon="4.813711311733767"><ele>17.0</ele><time>2026-04-23T15:20:09.999Z</time></trkpt><trkpt lat="50.97790153678324" lon="4.8139744510916245"><ele>17.0</ele><time>2026-04-23T15:20:10.999Z</time></trkpt><trkpt lat="50.977761201349566" lon="4.8142315406859755"><ele>17.0</ele><time>2026-04-23T15:20:11.999Z</time></trkpt><trkpt lat="50.977624700549036" lon="4.814484862712714"><ele>17.0</ele><time>2026-04-23T15:20:12.999Z</time></trkpt><trkpt lat="50.977482611614974" lon="4.814760022205602"><ele>17.0</ele><time>2026-04-23T15:20:13.999Z</time></trkpt><trkpt lat="50.97734560698598" lon="4.815015940686128"><ele>17.0</ele><time>2026-04-23T15:20:14.999Z</time></trkpt><trkpt lat="50.97721248256376" lon="4.815291414544722"><ele>17.0</ele><time>2026-04-23T15:20:15.999Z</time></trkpt><trkpt lat="50.97709148238987" lon="4.815584889936449"><ele>17.0</ele><time>2026-04-23T15:20:16.999Z</time></trkpt><trkpt lat="50.97698675250618" lon="4.815890253604969"><ele>17.0</ele><time>2026-04-23T15:20:17.999Z</time></trkpt><trkpt lat="50.97689599955742" lon="4.816213636731771"><ele>17.0</ele><time>2026-04-23T15:20:18.999Z</time></trkpt><trkpt lat="50.97682212206267" lon="4.816538377473708"><ele>18.0</ele><time>2026-04-23T15:20:19.999Z</time></trkpt><trkpt lat="50.97676866223731" lon="4.816862406167157"><ele>19.0</ele><time>2026-04-23T15:20:20.999Z</time></trkpt><trkpt lat="50.97674282603523" lon="4.817216471776011"><ele>20.0</ele><time>2026-04-23T15:20:21.999Z</time></trkpt><trkpt lat="50.97673591022742" lon="4.817562240925601"><ele>20.333333333333336</ele><time>2026-04-23T15:20:22.999Z</time></trkpt><trkpt lat="50.97674619703988" lon="4.817906079598127"><ele>20.666666666666668</ele><time>2026-04-23T15:20:23.999Z</time></trkpt><trkpt lat="50.976779635062776" lon="4.818237880511878"><ele>21.0</ele><time>2026-04-23T15:20:24.999Z</time></trkpt><trkpt lat="50.97682941242809" lon="4.818565235835574"><ele>21.333333333333332</ele><time>2026-04-23T15:20:25.999Z</time></trkpt><trkpt lat="50.97688996956896" lon="4.818886097488105"><ele>21.666666666666664</ele><time>2026-04-23T15:20:26.999Z</time></trkpt><trkpt lat="50.976960709093355" lon="4.819204892489482"><ele>22.0</ele><time>2026-04-23T15:20:27.999Z</time></trkpt><trkpt lat="50.977038911343435" lon="4.819518025271483"><ele>23.0</ele><time>2026-04-23T15:20:28.999Z</time></trkpt><trkpt lat="50.97712011581188" lon="4.81982562383526"><ele>24.0</ele><time>2026-04-23T15:20:29.999Z</time></trkpt><trkpt lat="50.97721109207644" lon="4.820136150165735"><ele>25.0</ele><time>2026-04-23T15:20:30.999Z</time></trkpt><trkpt lat="50.97730708050248" lon="4.820450497574013"><ele>24.333333333333336</ele><time>2026-04-23T15:20:31.999Z</time></trkpt><trkpt lat="50.97739922154357" lon="4.8207603659861356"><ele>23.666666666666668</ele><time>2026-04-23T15:20:32.999Z</time></trkpt><trkpt lat="50.977493262194045" lon="4.821077279921488"><ele>23.0</ele><time>2026-04-23T15:20:33.999Z</time></trkpt><trkpt lat="50.97758545769041" lon="4.821395389705335"><ele>23.0</ele><time>2026-04-23T15:20:34.999Z</time></trkpt><trkpt lat="50.977675893123994" lon="4.821713191997298"><ele>23.0</ele><time>2026-04-23T15:20:35.999Z</time></trkpt><trkpt lat="50.977765607968365" lon="4.822031194995824"><ele>23.0</ele><time>2026-04-23T15:20:36.999Z</time></trkpt><trkpt lat="50.977850749782604" lon="4.822355320474294"><ele>25.333333333333336</ele><time>2026-04-23T15:20:37.999Z</time></trkpt><trkpt lat="50.9779273665093" lon="4.822678890333786"><ele>27.666666666666668</ele><time>2026-04-23T15:20:38.999Z</time></trkpt><trkpt lat="50.97802603306094" lon="4.822999199103453"><ele>30.0</ele><time>2026-04-23T15:20:39.999Z</time></trkpt><trkpt lat="50.97810926718973" lon="4.8233198197682405"><ele>32.5</ele><time>2026-04-23T15:20:40.999Z</time></trkpt><trkpt lat="50.97809471225851" lon="4.823698728990173"><ele>35.0</ele><time>2026-04-23T15:20:41.999Z</time></trkpt><trkpt lat="50.97811004911474" lon="4.824047684250134"><ele>36.33333333333333</ele><time>2026-04-23T15:20:42.999Z</time></trkpt><trkpt lat="50.97810238159494" lon="4.824397975121593"><ele>37.666666666666664</ele><time>2026-04-23T15:20:43.999Z</time></trkpt><trkpt lat="50.97807332380087" lon="4.824739198920881"><ele>39.0</ele><time>2026-04-23T15:20:44.999Z</time></trkpt><trkpt lat="50.978025686184374" lon="4.825062454031851"><ele>39.333333333333336</ele><time>2026-04-23T15:20:45.999Z</time></trkpt><trkpt lat="50.977958334901416" lon="4.825350470581679"><ele>39.66666666666667</ele><time>2026-04-23T15:20:46.999Z</time></trkpt><trkpt lat="50.97789333219263" lon="4.825605318426891"><ele>40.0</ele><time>2026-04-23T15:20:47.999Z</time></trkpt><trkpt lat="50.977829817797456" lon="4.825815520971244"><ele>40.2</ele><time>2026-04-23T15:20:48.999Z</time></trkpt><trkpt lat="50.97776777672853" lon="4.825985677676447"><ele>40.4</ele><time>2026-04-23T15:20:49.999Z</time></trkpt><trkpt lat="50.97771077736739" lon="4.826111243396561"><ele>40.599999999999994</ele><time>2026-04-23T15:20:50.999Z</time></trkpt><trkpt lat="50.977661527979095" lon="4.8262020689685565"><ele>40.8</ele><time>2026-04-23T15:20:51.999Z</time></trkpt><trkpt lat="50.97760347000314" lon="4.826301483515587"><ele>41.0</ele><time>2026-04-23T15:20:53.999Z</time></trkpt><trkpt lat="50.977553533783954" lon="4.826376629634303"><ele>41.0</ele><time>2026-04-23T15:21:20.998Z</time></trkpt><trkpt lat="50.977507577149794" lon="4.826460154447967"><ele>41.0</ele><time>2026-04-23T15:21:21.998Z</time></trkpt><trkpt lat="50.977460669152705" lon="4.826552751461744"><ele>41.0</ele><time>2026-04-23T15:21:22.998Z</time></trkpt><trkpt lat="50.97740595081244" lon="4.8266705006588495"><ele>41.0</ele><time>2026-04-23T15:21:23.998Z</time></trkpt><trkpt lat="50.97734525357507" lon="4.826802555269009"><ele>41.0</ele><time>2026-04-23T15:21:24.998Z</time></trkpt><trkpt lat="50.977221575372155" lon="4.826899434116975"><ele>41.666666666666664</ele><time>2026-04-23T15:21:25.998Z</time></trkpt><trkpt lat="50.977099421565626" lon="4.827055250965664"><ele>42.333333333333336</ele><time>2026-04-23T15:21:26.998Z</time></trkpt><trkpt lat="50.976968074131975" lon="4.8272152219005235"><ele>43.0</ele><time>2026-04-23T15:21:27.998Z</time></trkpt><trkpt lat="50.97682345270952" lon="4.827377277041958"><ele>43.333333333333336</ele><time>2026-04-23T15:21:28.998Z</time></trkpt><trkpt lat="50.97666232767711" lon="4.8275443069760975"><ele>43.666666666666664</ele><time>2026-04-23T15:21:29.998Z</time></trkpt><trkpt lat="50.97649958906161" lon="4.827711977536574"><ele>44.0</ele><time>2026-04-23T15:21:30.998Z</time></trkpt><trkpt lat="50.97633387241492" lon="4.827877736378869"><ele>44.33333333333333</ele><time>2026-04-23T15:21:31.998Z</time></trkpt><trkpt lat="50.97616015787007" lon="4.828055691569937"><ele>44.666666666666664</ele><time>2026-04-23T15:21:32.998Z</time></trkpt><trkpt lat="50.97598085693429" lon="4.828231475335408"><ele>45.0</ele><time>2026-04-23T15:21:33.998Z</time></trkpt><trkpt lat="50.97579360831566" lon="4.828405552600121"><ele>45.0</ele><time>2026-04-23T15:21:34.998Z</time></trkpt><trkpt lat="50.97561037866906" lon="4.828579913281031"><ele>45.0</ele><time>2026-04-23T15:21:35.998Z</time></trkpt><trkpt lat="50.97542647855982" lon="4.828765116963715"><ele>45.0</ele><time>2026-04-23T15:21:36.998Z</time></trkpt><trkpt lat="50.975245673109654" lon="4.828953022374015"><ele>45.0</ele><time>2026-04-23T15:21:37.998Z</time></trkpt><trkpt lat="50.975066389394826" lon="4.829157189371331"><ele>45.0</ele><time>2026-04-23T15:21:38.998Z</time></trkpt><trkpt lat="50.974888842832115" lon="4.829363445573634"><ele>45.0</ele><time>2026-04-23T15:21:39.998Z</time></trkpt><trkpt lat="50.97471297846296" lon="4.8295697943306175"><ele>45.0</ele><time>2026-04-23T15:21:40.998Z</time></trkpt><trkpt lat="50.974539301712106" lon="4.829785855983709"><ele>45.0</ele><time>2026-04-23T15:21:41.998Z</time></trkpt><trkpt lat="50.97436645575487" lon="4.830013354675999"><ele>45.0</ele><time>2026-04-23T15:21:42.998Z</time></trkpt><trkpt lat="50.97419722554267" lon="4.830242207852096"><ele>46.0</ele><time>2026-04-23T15:21:43.998Z</time></trkpt><trkpt lat="50.97403146993694" lon="4.830476083601313"><ele>47.0</ele><time>2026-04-23T15:21:44.998Z</time></trkpt><trkpt lat="50.973867211856074" lon="4.830715950003663"><ele>48.0</ele><time>2026-04-23T15:21:45.998Z</time></trkpt><trkpt lat="50.97370635725514" lon="4.83095660776886"><ele>48.33333333333333</ele><time>2026-04-23T15:21:46.998Z</time></trkpt><trkpt lat="50.97354598081482" lon="4.831202113346662"><ele>48.666666666666664</ele><time>2026-04-23T15:21:47.998Z</time></trkpt><trkpt lat="50.97338526050285" lon="4.8314482693599015"><ele>49.0</ele><time>2026-04-23T15:21:48.998Z</time></trkpt><trkpt lat="50.9732203625438" lon="4.831691364492157"><ele>48.5</ele><time>2026-04-23T15:21:49.998Z</time></trkpt><trkpt lat="50.9730510526376" lon="4.831933486780272"><ele>48.0</ele><time>2026-04-23T15:21:50.998Z</time></trkpt><trkpt lat="50.97288372706841" lon="4.832177900026939"><ele>48.0</ele><time>2026-04-23T15:21:51.999Z</time></trkpt><trkpt lat="50.97272094942136" lon="4.832424000533782"><ele>48.0</ele><time>2026-04-23T15:21:52.999Z</time></trkpt><trkpt lat="50.97255428998438" lon="4.8326688879665225"><ele>48.0</ele><time>2026-04-23T15:21:53.999Z</time></trkpt><trkpt lat="50.97238044155364" lon="4.832909992441705"><ele>48.0</ele><time>2026-04-23T15:21:54.999Z</time></trkpt><trkpt lat="50.972209311876426" lon="4.833147487180467"><ele>48.0</ele><time>2026-04-23T15:21:55.999Z</time></trkpt><trkpt lat="50.972035389509266" lon="4.833373127877402"><ele>48.0</ele><time>2026-04-23T15:21:56.999Z</time></trkpt><trkpt lat="50.97184889169717" lon="4.8335881406253165"><ele>48.0</ele><time>2026-04-23T15:21:57.999Z</time></trkpt><trkpt lat="50.971661708784595" lon="4.833794005688029"><ele>48.0</ele><time>2026-04-23T15:21:58.999Z</time></trkpt><trkpt lat="50.971465458491906" lon="4.8339866568935275"><ele>48.0</ele><time>2026-04-23T15:21:59.999Z</time></trkpt><trkpt lat="50.971269230899274" lon="4.834172953766417"><ele>48.0</ele><time>2026-04-23T15:22:00.999Z</time></trkpt><trkpt lat="50.97106709829817" lon="4.8343441647227126"><ele>48.0</ele><time>2026-04-23T15:22:01.999Z</time></trkpt><trkpt lat="50.97086021973552" lon="4.834495904929912"><ele>48.0</ele><time>2026-04-23T15:22:02.999Z</time></trkpt><trkpt lat="50.97064831442409" lon="4.834635636717854"><ele>48.0</ele><time>2026-04-23T15:22:03.999Z</time></trkpt><trkpt lat="50.970435271151665" lon="4.834770915058756"><ele>48.0</ele><time>2026-04-23T15:22:04.999Z</time></trkpt><trkpt lat="50.9702254740396" lon="4.834903733744264"><ele>48.66666666666667</ele><time>2026-04-23T15:22:05.999Z</time></trkpt><trkpt lat="50.97001366101418" lon="4.8350216529713945"><ele>49.333333333333336</ele><time>2026-04-23T15:22:06.999Z</time></trkpt><trkpt lat="50.96980783032051" lon="4.8351350446235095"><ele>50.0</ele><time>2026-04-23T15:22:07.999Z</time></trkpt><trkpt lat="50.969601180435944" lon="4.835242891141581"><ele>50.0</ele><time>2026-04-23T15:22:08.999Z</time></trkpt><trkpt lat="50.969401067635296" lon="4.835344659602618"><ele>50.0</ele><time>2026-04-23T15:22:09.999Z</time></trkpt><trkpt lat="50.96918874157355" lon="4.8354003184985865"><ele>50.0</ele><time>2026-04-23T15:22:10.999Z</time></trkpt><trkpt lat="50.96898886398342" lon="4.835488906066578"><ele>51.66666666666667</ele><time>2026-04-23T15:22:11.999Z</time></trkpt><trkpt lat="50.96879404134536" lon="4.83553869735602"><ele>53.33333333333333</ele><time>2026-04-23T15:22:12.999Z</time></trkpt><trkpt lat="50.96861584664257" lon="4.835583585992081"><ele>55.0</ele><time>2026-04-23T15:22:13.999Z</time></trkpt><trkpt lat="50.96845276192933" lon="4.835624675206123"><ele>55.33333333333333</ele><time>2026-04-23T15:22:14.999Z</time></trkpt><trkpt lat="50.9682965189321" lon="4.835665630017986"><ele>55.66666666666667</ele><time>2026-04-23T15:22:15.999Z</time></trkpt><trkpt lat="50.96814229928875" lon="4.835706770890136"><ele>56.0</ele><time>2026-04-23T15:22:16.999Z</time></trkpt><trkpt lat="50.967984519445615" lon="4.83574530638275"><ele>56.0</ele><time>2026-04-23T15:22:17.999Z</time></trkpt><trkpt lat="50.96782415378188" lon="4.835789274131414"><ele>56.0</ele><time>2026-04-23T15:22:18.999Z</time></trkpt><trkpt lat="50.967655887686526" lon="4.835832994400046"><ele>56.0</ele><time>2026-04-23T15:22:19.999Z</time></trkpt><trkpt lat="50.96749447897223" lon="4.835875891079449"><ele>55.333333333333336</ele><time>2026-04-23T15:22:20.999Z</time></trkpt><trkpt lat="50.96732859539865" lon="4.835919577211005"><ele>54.66666666666667</ele><time>2026-04-23T15:22:21.999Z</time></trkpt><trkpt lat="50.96715791433952" lon="4.835967674974668"><ele>54.0</ele><time>2026-04-23T15:22:22.999Z</time></trkpt><trkpt lat="50.96698462140982" lon="4.836016699446749"><ele>53.33333333333333</ele><time>2026-04-23T15:22:23.999Z</time></trkpt><trkpt lat="50.96680187264196" lon="4.836068664403973"><ele>52.666666666666664</ele><time>2026-04-23T15:22:24.999Z</time></trkpt><trkpt lat="50.966617878747684" lon="4.836125111963561"><ele>52.0</ele><time>2026-04-23T15:22:25.999Z</time></trkpt><trkpt lat="50.96643041396933" lon="4.836182899630232"><ele>52.0</ele><time>2026-04-23T15:22:26.999Z</time></trkpt><trkpt lat="50.9662385499632" lon="4.836240350710921"><ele>52.0</ele><time>2026-04-23T15:22:27.999Z</time></trkpt><trkpt lat="50.96604323725742" lon="4.836293475000824"><ele>52.0</ele><time>2026-04-23T15:22:28.999Z</time></trkpt><trkpt lat="50.96585200353921" lon="4.836345171920047"><ele>50.0</ele><time>2026-04-23T15:22:29.999Z</time></trkpt><trkpt lat="50.96566448094079" lon="4.836395728647668"><ele>48.0</ele><time>2026-04-23T15:22:30.999Z</time></trkpt><trkpt lat="50.96547302851218" lon="4.836447378555439"><ele>46.0</ele><time>2026-04-23T15:22:31.999Z</time></trkpt><trkpt lat="50.96528622562146" lon="4.836492040704716"><ele>46.0</ele><time>2026-04-23T15:22:32.999Z</time></trkpt><trkpt lat="50.965100965536166" lon="4.836540132282999"><ele>46.0</ele><time>2026-04-23T15:22:33.999Z</time></trkpt><trkpt lat="50.964915351882176" lon="4.836588987573236"><ele>46.0</ele><time>2026-04-23T15:22:34.999Z</time></trkpt><trkpt lat="50.964724319822004" lon="4.836640480721908"><ele>46.66666666666667</ele><time>2026-04-23T15:22:35.999Z</time></trkpt><trkpt lat="50.9645390523103" lon="4.836682607260691"><ele>47.333333333333336</ele><time>2026-04-23T15:22:36.999Z</time></trkpt><trkpt lat="50.964356383113376" lon="4.836717280097919"><ele>48.0</ele><time>2026-04-23T15:22:37.999Z</time></trkpt><trkpt lat="50.96417154809009" lon="4.836760904024204"><ele>48.66666666666667</ele><time>2026-04-23T15:22:38.999Z</time></trkpt><trkpt lat="50.964014481876696" lon="4.836812303502274"><ele>49.333333333333336</ele><time>2026-04-23T15:22:39.999Z</time></trkpt><trkpt lat="50.96384304294961" lon="4.8368533605300605"><ele>50.0</ele><time>2026-04-23T15:22:40.999Z</time></trkpt><trkpt lat="50.9636735913491" lon="4.836888892303043"><ele>50.0</ele><time>2026-04-23T15:22:41.999Z</time></trkpt><trkpt lat="50.9635190225642" lon="4.836920174722722"><ele>50.0</ele><time>2026-04-23T15:22:42.999Z</time></trkpt><trkpt lat="50.96338480650562" lon="4.8369535065006195"><ele>50.0</ele><time>2026-04-23T15:22:43.999Z</time></trkpt><trkpt lat="50.96326274370668" lon="4.836987802691025"><ele>50.0</ele><time>2026-04-23T15:22:44.999Z</time></trkpt><trkpt lat="50.9631596622931" lon="4.837011253496546"><ele>49.833333333333336</ele><time>2026-04-23T15:22:45.999Z</time></trkpt><trkpt lat="50.963072482872" lon="4.837026495829086"><ele>49.66666666666667</ele><time>2026-04-23T15:22:46.999Z</time></trkpt><trkpt lat="50.962999220019455" lon="4.83703599220343"><ele>49.5</ele><time>2026-04-23T15:22:47.999Z</time></trkpt><trkpt lat="50.962932544028284" lon="4.837048926715681"><ele>49.33333333333333</ele><time>2026-04-23T15:22:48.999Z</time></trkpt><trkpt lat="50.962831658097194" lon="4.837076654221415"><ele>49.166666666666664</ele><time>2026-04-23T15:22:50.999Z</time></trkpt><trkpt lat="50.96276893748542" lon="4.837096992928916"><ele>49.0</ele><time>2026-04-23T15:22:53.999Z</time></trkpt><trkpt lat="50.9627059256032" lon="4.837130660725616"><ele>49.0</ele><time>2026-04-23T15:23:39.998Z</time></trkpt><trkpt lat="50.96261190958159" lon="4.837157512612308"><ele>49.0</ele><time>2026-04-23T15:23:40.998Z</time></trkpt><trkpt lat="50.96250850000199" lon="4.837184987011953"><ele>49.0</ele><time>2026-04-23T15:23:41.998Z</time></trkpt><trkpt lat="50.962384762548076" lon="4.837217946382065"><ele>49.0</ele><time>2026-04-23T15:23:42.998Z</time></trkpt><trkpt lat="50.96224459439174" lon="4.837253728633856"><ele>50.33333333333333</ele><time>2026-04-23T15:23:43.998Z</time></trkpt><trkpt lat="50.96208978440258" lon="4.837294072168061"><ele>51.66666666666667</ele><time>2026-04-23T15:23:44.998Z</time></trkpt><trkpt lat="50.96193645402632" lon="4.837339423149434"><ele>53.0</ele><time>2026-04-23T15:23:45.998Z</time></trkpt><trkpt lat="50.961757064466184" lon="4.837392455234817"><ele>53.333333333333336</ele><time>2026-04-23T15:23:46.998Z</time></trkpt><trkpt lat="50.96156894190726" lon="4.837457209309867"><ele>53.66666666666667</ele><time>2026-04-23T15:23:47.998Z</time></trkpt><trkpt lat="50.96137423683043" lon="4.83752041950057"><ele>54.0</ele><time>2026-04-23T15:23:48.998Z</time></trkpt><trkpt lat="50.96117192121804" lon="4.837580154750236"><ele>54.0</ele><time>2026-04-23T15:23:49.998Z</time></trkpt><trkpt lat="50.96095167426715" lon="4.837635815112691"><ele>54.0</ele><time>2026-04-23T15:23:50.998Z</time></trkpt><trkpt lat="50.960728908860574" lon="4.837691175887898"><ele>54.0</ele><time>2026-04-23T15:23:51.998Z</time></trkpt><trkpt lat="50.96050042287377" lon="4.8377510424628065"><ele>55.0</ele><time>2026-04-23T15:23:52.998Z</time></trkpt><trkpt lat="50.96026964480563" lon="4.8378112490598575"><ele>56.0</ele><time>2026-04-23T15:23:53.998Z</time></trkpt><trkpt lat="50.96003906491545" lon="4.837870882030148"><ele>56.0</ele><time>2026-04-23T15:23:54.998Z</time></trkpt><trkpt lat="50.959802608882065" lon="4.8379354939794466"><ele>56.0</ele><time>2026-04-23T15:23:55.998Z</time></trkpt><trkpt lat="50.959563931772045" lon="4.838000325361975"><ele>56.0</ele><time>2026-04-23T15:23:56.998Z</time></trkpt><trkpt lat="50.959325448973615" lon="4.838060682866645"><ele>56.0</ele><time>2026-04-23T15:23:58Z</time></trkpt><trkpt lat="50.95908873215496" lon="4.838120924544253"><ele>55.5</ele><time>2026-04-23T15:23:59Z</time></trkpt><trkpt lat="50.95885131849148" lon="4.8381831732337055"><ele>55.0</ele><time>2026-04-23T15:24:00Z</time></trkpt><trkpt lat="50.95861488398275" lon="4.83824393946327"><ele>55.0</ele><time>2026-04-23T15:24:01Z</time></trkpt><trkpt lat="50.958383067648306" lon="4.8383031311583915"><ele>55.0</ele><time>2026-04-23T15:24:02Z</time></trkpt><trkpt lat="50.95815027216313" lon="4.838364742624922"><ele>56.5</ele><time>2026-04-23T15:24:03Z</time></trkpt><trkpt lat="50.957920211994626" lon="4.838422811458609"><ele>58.0</ele><time>2026-04-23T15:24:04Z</time></trkpt><trkpt lat="50.95768846812108" lon="4.83847052680773"><ele>60.0</ele><time>2026-04-23T15:24:05Z</time></trkpt><trkpt lat="50.95746769177264" lon="4.838509976612951"><ele>62.0</ele><time>2026-04-23T15:24:06Z</time></trkpt><trkpt lat="50.9572275084917" lon="4.8385512394909584"><ele>62.0</ele><time>2026-04-23T15:24:07Z</time></trkpt><trkpt lat="50.956991869475054" lon="4.83858227266728"><ele>62.0</ele><time>2026-04-23T15:24:08Z</time></trkpt><trkpt lat="50.95676556257734" lon="4.838606993653057"><ele>60.5</ele><time>2026-04-23T15:24:09Z</time></trkpt><trkpt lat="50.956535055151384" lon="4.838631586886917"><ele>59.0</ele><time>2026-04-23T15:24:10Z</time></trkpt><trkpt lat="50.95630545708746" lon="4.838645224729747"><ele>59.0</ele><time>2026-04-23T15:24:11Z</time></trkpt><trkpt lat="50.95607116656783" lon="4.838648566887478"><ele>59.0</ele><time>2026-04-23T15:24:12Z</time></trkpt><trkpt lat="50.95584223678338" lon="4.838648433903306"><ele>56.5</ele><time>2026-04-23T15:24:13Z</time></trkpt><trkpt lat="50.95561486938567" lon="4.838642958977248"><ele>54.0</ele><time>2026-04-23T15:24:14Z</time></trkpt><trkpt lat="50.95538925664702" lon="4.838641828796196"><ele>54.0</ele><time>2026-04-23T15:24:15Z</time></trkpt><trkpt lat="50.95517045554958" lon="4.838637301141944"><ele>54.0</ele><time>2026-04-23T15:24:16Z</time></trkpt><trkpt lat="50.954952191458396" lon="4.838635835974512"><ele>54.0</ele><time>2026-04-23T15:24:17Z</time></trkpt><trkpt lat="50.95473289648969" lon="4.838630686512665"><ele>52.0</ele><time>2026-04-23T15:24:18Z</time></trkpt><trkpt lat="50.954518744055044" lon="4.838628264134213"><ele>50.0</ele><time>2026-04-23T15:24:19Z</time></trkpt><trkpt lat="50.95430990414997" lon="4.838624075203226"><ele>48.0</ele><time>2026-04-23T15:24:20Z</time></trkpt><trkpt lat="50.9540967118975" lon="4.838621782978093"><ele>44.333333333333336</ele><time>2026-04-23T15:24:21Z</time></trkpt><trkpt lat="50.95388641778412" lon="4.8386175965591365"><ele>40.66666666666667</ele><time>2026-04-23T15:24:22Z</time></trkpt><trkpt lat="50.95367844050112" lon="4.838614293868774"><ele>37.0</ele><time>2026-04-23T15:24:23Z</time></trkpt><trkpt lat="50.95347941349204" lon="4.838607995697615"><ele>35.333333333333336</ele><time>2026-04-23T15:24:24Z</time></trkpt><trkpt lat="50.95329159847163" lon="4.838607360862029"><ele>33.666666666666664</ele><time>2026-04-23T15:24:25Z</time></trkpt><trkpt lat="50.95310505801124" lon="4.838604272381022"><ele>32.0</ele><time>2026-04-23T15:24:25.999Z</time></trkpt><trkpt lat="50.95293170792259" lon="4.838598743069005"><ele>32.0</ele><time>2026-04-23T15:24:26.999Z</time></trkpt><trkpt lat="50.95277040682677" lon="4.838597915216995"><ele>32.0</ele><time>2026-04-23T15:24:27.999Z</time></trkpt><trkpt lat="50.952616691644714" lon="4.838594467604776"><ele>32.0</ele><time>2026-04-23T15:24:28.999Z</time></trkpt><trkpt lat="50.95247255450108" lon="4.838593839194996"><ele>31.400000000000002</ele><time>2026-04-23T15:24:29.999Z</time></trkpt><trkpt lat="50.952341792754694" lon="4.838595771888829"><ele>30.800000000000004</ele><time>2026-04-23T15:24:30.999Z</time></trkpt><trkpt lat="50.95222124447387" lon="4.838595547388185"><ele>30.2</ele><time>2026-04-23T15:24:31.999Z</time></trkpt><trkpt lat="50.95211848748542" lon="4.838596492194616"><ele>29.6</ele><time>2026-04-23T15:24:32.999Z</time></trkpt><trkpt lat="50.95203571030952" lon="4.838594259404247"><ele>29.0</ele><time>2026-04-23T15:24:33.999Z</time></trkpt><trkpt lat="50.95196545341816" lon="4.838594186445"><ele>28.999999999999996</ele><time>2026-04-23T15:24:34.999Z</time></trkpt><trkpt lat="50.951871431812464" lon="4.838586889810348"><ele>29.0</ele><time>2026-04-23T15:24:36.999Z</time></trkpt><trkpt lat="50.95179231127528" lon="4.838572206107904"><ele>29.0</ele><time>2026-04-23T15:24:46.999Z</time></trkpt><trkpt lat="50.95172110399794" lon="4.838566102936979"><ele>29.0</ele><time>2026-04-23T15:24:47.999Z</time></trkpt><trkpt lat="50.951632423284615" lon="4.838563241708194"><ele>28.999999999999996</ele><time>2026-04-23T15:24:48.999Z</time></trkpt><trkpt lat="50.951526480077305" lon="4.83855953024492"><ele>29.0</ele><time>2026-04-23T15:24:49.999Z</time></trkpt><trkpt lat="50.95140346804933" lon="4.8385566586847295"><ele>28.75</ele><time>2026-04-23T15:24:50.999Z</time></trkpt><trkpt lat="50.951270969887446" lon="4.838558184246518"><ele>28.5</ele><time>2026-04-23T15:24:51.999Z</time></trkpt><trkpt lat="50.95111683331659" lon="4.838559846735363"><ele>28.25</ele><time>2026-04-23T15:24:52.999Z</time></trkpt><trkpt lat="50.95096047750143" lon="4.838561792758639"><ele>28.0</ele><time>2026-04-23T15:24:53.999Z</time></trkpt><trkpt lat="50.95079018600755" lon="4.838563732275191"><ele>27.666666666666668</ele><time>2026-04-23T15:24:54.999Z</time></trkpt><trkpt lat="50.950611313436866" lon="4.838565717442194"><ele>27.333333333333336</ele><time>2026-04-23T15:24:55.999Z</time></trkpt><trkpt lat="50.950425350830315" lon="4.838565960490512"><ele>27.0</ele><time>2026-04-23T15:24:56.999Z</time></trkpt><trkpt lat="50.95023365459672" lon="4.83856430844863"><ele>27.0</ele><time>2026-04-23T15:24:57.999Z</time></trkpt><trkpt lat="50.95003916760751" lon="4.838559683006486"><ele>27.0</ele><time>2026-04-23T15:24:58.999Z</time></trkpt><trkpt lat="50.94983220481504" lon="4.838555028341402"><ele>27.0</ele><time>2026-04-23T15:24:59.999Z</time></trkpt><trkpt lat="50.949615896944756" lon="4.838550414283952"><ele>27.0</ele><time>2026-04-23T15:25:00.999Z</time></trkpt><trkpt lat="50.94940309867591" lon="4.838547436727351"><ele>27.0</ele><time>2026-04-23T15:25:01.999Z</time></trkpt><trkpt lat="50.949181723346584" lon="4.8385451567027085"><ele>27.0</ele><time>2026-04-23T15:25:02.999Z</time></trkpt><trkpt lat="50.948969269231526" lon="4.8385483817966985"><ele>27.333333333333336</ele><time>2026-04-23T15:25:03.999Z</time></trkpt><trkpt lat="50.94874770455663" lon="4.838547695442431"><ele>27.666666666666668</ele><time>2026-04-23T15:25:04.999Z</time></trkpt><trkpt lat="50.94852881865028" lon="4.838542078315313"><ele>28.0</ele><time>2026-04-23T15:25:05.999Z</time></trkpt><trkpt lat="50.948305232849165" lon="4.838538372091824"><ele>28.5</ele><time>2026-04-23T15:25:06.999Z</time></trkpt><trkpt lat="50.948079317351606" lon="4.838533783256457"><ele>29.0</ele><time>2026-04-23T15:25:07.999Z</time></trkpt><trkpt lat="50.94785057066351" lon="4.838529057193173"><ele>29.0</ele><time>2026-04-23T15:25:08.999Z</time></trkpt><trkpt lat="50.94762614612651" lon="4.838522626435703"><ele>29.0</ele><time>2026-04-23T15:25:09.999Z</time></trkpt><trkpt lat="50.9473951262414" lon="4.838517142248543"><ele>29.5</ele><time>2026-04-23T15:25:10.999Z</time></trkpt><trkpt lat="50.94716487183038" lon="4.838513858625636"><ele>30.0</ele><time>2026-04-23T15:25:11.999Z</time></trkpt><trkpt lat="50.946935067389084" lon="4.838511942747059"><ele>31.5</ele><time>2026-04-23T15:25:12.999Z</time></trkpt><trkpt lat="50.94670766691944" lon="4.8385119529820315"><ele>33.0</ele><time>2026-04-23T15:25:13.999Z</time></trkpt><trkpt lat="50.94647442305771" lon="4.838520133838549"><ele>33.0</ele><time>2026-04-23T15:25:14.999Z</time></trkpt><trkpt lat="50.94624058582076" lon="4.838544215997464"><ele>33.0</ele><time>2026-04-23T15:25:15.999Z</time></trkpt><trkpt lat="50.94601450636546" lon="4.838581903292616"><ele>33.5</ele><time>2026-04-23T15:25:16.999Z</time></trkpt><trkpt lat="50.94578129902964" lon="4.838639491355975"><ele>34.0</ele><time>2026-04-23T15:25:17.999Z</time></trkpt><trkpt lat="50.94555260347263" lon="4.83870711859661"><ele>34.0</ele><time>2026-04-23T15:25:18.999Z</time></trkpt><trkpt lat="50.94531847771746" lon="4.838792309151509"><ele>34.0</ele><time>2026-04-23T15:25:19.999Z</time></trkpt><trkpt lat="50.94509618643241" lon="4.83888467574648"><ele>31.5</ele><time>2026-04-23T15:25:20.999Z</time></trkpt><trkpt lat="50.94488029808482" lon="4.838988766231043"><ele>29.0</ele><time>2026-04-23T15:25:21.999Z</time></trkpt><trkpt lat="50.94466664676735" lon="4.8391090256853575"><ele>29.0</ele><time>2026-04-23T15:25:22.999Z</time></trkpt><trkpt lat="50.94445349657222" lon="4.839241626542543"><ele>29.0</ele><time>2026-04-23T15:25:23.999Z</time></trkpt><trkpt lat="50.94424463288929" lon="4.839383829692622"><ele>29.0</ele><time>2026-04-23T15:25:24.999Z</time></trkpt><trkpt lat="50.944040207794494" lon="4.839531332237912"><ele>29.0</ele><time>2026-04-23T15:25:25.999Z</time></trkpt><trkpt lat="50.94383353631989" lon="4.839683655115435"><ele>29.0</ele><time>2026-04-23T15:25:26.998Z</time></trkpt><trkpt lat="50.94364800892899" lon="4.839825227398276"><ele>29.0</ele><time>2026-04-23T15:25:27.998Z</time></trkpt><trkpt lat="50.94347306679163" lon="4.8399556148680105"><ele>29.0</ele><time>2026-04-23T15:25:28.998Z</time></trkpt><trkpt lat="50.94330489453246" lon="4.840074322462187"><ele>28.333333333333332</ele><time>2026-04-23T15:25:29.998Z</time></trkpt><trkpt lat="50.94314071357174" lon="4.840187827693708"><ele>27.666666666666664</ele><time>2026-04-23T15:25:30.998Z</time></trkpt><trkpt lat="50.94298606155385" lon="4.840295818794596"><ele>27.0</ele><time>2026-04-23T15:25:31.998Z</time></trkpt><trkpt lat="50.94284844699325" lon="4.8403946664314175"><ele>27.0</ele><time>2026-04-23T15:25:32.998Z</time></trkpt><trkpt lat="50.9427294010151" lon="4.840479012521799"><ele>27.000000000000004</ele><time>2026-04-23T15:25:33.998Z</time></trkpt><trkpt lat="50.94263220699173" lon="4.840548027468918"><ele>27.000000000000004</ele><time>2026-04-23T15:25:34.998Z</time></trkpt><trkpt lat="50.94255456854441" lon="4.840601331780715"><ele>27.0</ele><time>2026-04-23T15:25:35.998Z</time></trkpt><trkpt lat="50.94248750063084" lon="4.840648396762816"><ele>27.0</ele><time>2026-04-23T15:25:37.998Z</time></trkpt><trkpt lat="50.94242567582507" lon="4.840692834083579"><ele>26.5</ele><time>2026-04-23T15:25:40.998Z</time></trkpt><trkpt lat="50.9423347482917" lon="4.840754102569969"><ele>26.0</ele><time>2026-04-23T15:25:42.998Z</time></trkpt><trkpt lat="50.94226900538101" lon="4.840800679813191"><ele>25.5</ele><time>2026-04-23T15:25:43.998Z</time></trkpt><trkpt lat="50.94219325106871" lon="4.8408521692606366"><ele>25.0</ele><time>2026-04-23T15:25:44.998Z</time></trkpt><trkpt lat="50.94210719561084" lon="4.840914646167622"><ele>24.5</ele><time>2026-04-23T15:25:45.998Z</time></trkpt><trkpt lat="50.94201711599668" lon="4.840982037595482"><ele>24.0</ele><time>2026-04-23T15:25:46.998Z</time></trkpt><trkpt lat="50.941920560457994" lon="4.8410513543855656"><ele>24.0</ele><time>2026-04-23T15:25:47.998Z</time></trkpt><trkpt lat="50.941815919999904" lon="4.8411220940805455"><ele>24.0</ele><time>2026-04-23T15:25:48.998Z</time></trkpt><trkpt lat="50.941711600728446" lon="4.8412031258810835"><ele>24.0</ele><time>2026-04-23T15:25:49.998Z</time></trkpt><trkpt lat="50.94160641941661" lon="4.841281191999439"><ele>24.0</ele><time>2026-04-23T15:25:50.998Z</time></trkpt><trkpt lat="50.941504332757134" lon="4.841358602749079"><ele>24.25</ele><time>2026-04-23T15:25:51.998Z</time></trkpt><trkpt lat="50.94140161440218" lon="4.84143651661744"><ele>24.5</ele><time>2026-04-23T15:25:52.998Z</time></trkpt><trkpt lat="50.941299551295174" lon="4.841514205736579"><ele>24.75</ele><time>2026-04-23T15:25:53.998Z</time></trkpt><trkpt lat="50.94119713848797" lon="4.841591415772854"><ele>25.0</ele><time>2026-04-23T15:25:54.998Z</time></trkpt><trkpt lat="50.94109195451912" lon="4.8416676434222135"><ele>25.0</ele><time>2026-04-23T15:25:55.999Z</time></trkpt><trkpt lat="50.940981676052914" lon="4.841751217507665"><ele>25.0</ele><time>2026-04-23T15:25:56.999Z</time></trkpt><trkpt lat="50.94086888681839" lon="4.841835279838201"><ele>25.0</ele><time>2026-04-23T15:25:57.999Z</time></trkpt><trkpt lat="50.9407509577268" lon="4.841919721686749"><ele>25.0</ele><time>2026-04-23T15:25:58.999Z</time></trkpt><trkpt lat="50.94062913571363" lon="4.842009981939704"><ele>25.75</ele><time>2026-04-23T15:25:59.999Z</time></trkpt><trkpt lat="50.94050270959559" lon="4.842104752215173"><ele>26.5</ele><time>2026-04-23T15:26:00.999Z</time></trkpt><trkpt lat="50.9403709355388" lon="4.8422040022938075"><ele>27.25</ele><time>2026-04-23T15:26:01.999Z</time></trkpt><trkpt lat="50.940234578887214" lon="4.842305472424147"><ele>28.0</ele><time>2026-04-23T15:26:03.001Z</time></trkpt><trkpt lat="50.940097210238" lon="4.8424076906948335"><ele>28.333333333333336</ele><time>2026-04-23T15:26:04.001Z</time></trkpt><trkpt lat="50.93995181469773" lon="4.8425141257363515"><ele>28.666666666666664</ele><time>2026-04-23T15:26:05.001Z</time></trkpt><trkpt lat="50.93980452040364" lon="4.842623055129628"><ele>29.0</ele><time>2026-04-23T15:26:06.001Z</time></trkpt><trkpt lat="50.93964920586434" lon="4.8427400980526905"><ele>29.0</ele><time>2026-04-23T15:26:07.001Z</time></trkpt><trkpt lat="50.93949314058872" lon="4.842863063702107"><ele>29.0</ele><time>2026-04-23T15:26:08.001Z</time></trkpt><trkpt lat="50.93934037081349" lon="4.842990489628597"><ele>29.0</ele><time>2026-04-23T15:26:09.001Z</time></trkpt><trkpt lat="50.939185379018596" lon="4.843116326083949"><ele>29.666666666666664</ele><time>2026-04-23T15:26:10.001Z</time></trkpt><trkpt lat="50.93902980944872" lon="4.843239349982113"><ele>30.333333333333336</ele><time>2026-04-23T15:26:11.001Z</time></trkpt><trkpt lat="50.93887932456463" lon="4.8433601566086955"><ele>31.0</ele><time>2026-04-23T15:26:12.001Z</time></trkpt><trkpt lat="50.938727273423076" lon="4.843479327155811"><ele>29.666666666666668</ele><time>2026-04-23T15:26:13.001Z</time></trkpt><trkpt lat="50.938574175026204" lon="4.84360101651892"><ele>28.333333333333336</ele><time>2026-04-23T15:26:14.001Z</time></trkpt><trkpt lat="50.93842102092672" lon="4.843722472901315"><ele>27.0</ele><time>2026-04-23T15:26:15.001Z</time></trkpt><trkpt lat="50.93826583120761" lon="4.843843410761666"><ele>27.0</ele><time>2026-04-23T15:26:16.001Z</time></trkpt><trkpt lat="50.93811297171477" lon="4.843970569790964"><ele>27.0</ele><time>2026-04-23T15:26:17.001Z</time></trkpt><trkpt lat="50.93795815665123" lon="4.844093032780802"><ele>27.0</ele><time>2026-04-23T15:26:18.001Z</time></trkpt><trkpt lat="50.937800847250834" lon="4.844217629486091"><ele>26.666666666666664</ele><time>2026-04-23T15:26:19.001Z</time></trkpt><trkpt lat="50.93763599630879" lon="4.844343410125593"><ele>26.333333333333332</ele><time>2026-04-23T15:26:20.001Z</time></trkpt><trkpt lat="50.937471721537406" lon="4.844477138037184"><ele>26.0</ele><time>2026-04-23T15:26:21.001Z</time></trkpt><trkpt lat="50.937302643808074" lon="4.844584290456932"><ele>26.0</ele><time>2026-04-23T15:26:22.001Z</time></trkpt><trkpt lat="50.93714056633621" lon="4.844711579795005"><ele>26.0</ele><time>2026-04-23T15:26:23.001Z</time></trkpt><trkpt lat="50.93697341352864" lon="4.844843168765218"><ele>26.0</ele><time>2026-04-23T15:26:24.001Z</time></trkpt><trkpt lat="50.93680210379803" lon="4.844977411101441"><ele>26.0</ele><time>2026-04-23T15:26:25.001Z</time></trkpt><trkpt lat="50.936626566364495" lon="4.845113831918508"><ele>26.0</ele><time>2026-04-23T15:26:26.001Z</time></trkpt><trkpt lat="50.93645861170598" lon="4.8452449857589075"><ele>26.0</ele><time>2026-04-23T15:26:27.001Z</time></trkpt><trkpt lat="50.93621446578938" lon="4.84546399370014"><ele>25.666666666666664</ele><time>2026-04-23T15:26:28.001Z</time></trkpt><trkpt lat="50.93602528816641" lon="4.845611559228041"><ele>25.333333333333336</ele><time>2026-04-23T15:26:29.001Z</time></trkpt><trkpt lat="50.93583709632776" lon="4.8457563882258"><ele>25.0</ele><time>2026-04-23T15:26:30.001Z</time></trkpt><trkpt lat="50.93564914124211" lon="4.845904631530374"><ele>25.0</ele><time>2026-04-23T15:26:31.001Z</time></trkpt><trkpt lat="50.935459676102205" lon="4.846054257570612"><ele>25.0</ele><time>2026-04-23T15:26:32Z</time></trkpt><trkpt lat="50.935266015302886" lon="4.846202586845709"><ele>25.0</ele><time>2026-04-23T15:26:33Z</time></trkpt><trkpt lat="50.93507461876201" lon="4.84635084932854"><ele>25.0</ele><time>2026-04-23T15:26:34Z</time></trkpt><trkpt lat="50.93488108018155" lon="4.846503605025686"><ele>25.0</ele><time>2026-04-23T15:26:35Z</time></trkpt><trkpt lat="50.934690256655365" lon="4.846657963188504"><ele>25.0</ele><time>2026-04-23T15:26:36Z</time></trkpt><trkpt lat="50.93449401910252" lon="4.846809069722133"><ele>25.0</ele><time>2026-04-23T15:26:37Z</time></trkpt><trkpt lat="50.93430160761226" lon="4.846956947017785"><ele>25.0</ele><time>2026-04-23T15:26:38Z</time></trkpt><trkpt lat="50.93410583667541" lon="4.847108629823873"><ele>25.0</ele><time>2026-04-23T15:26:39Z</time></trkpt><trkpt lat="50.933913353178745" lon="4.847263331498438"><ele>25.333333333333336</ele><time>2026-04-23T15:26:40Z</time></trkpt><trkpt lat="50.93372539215461" lon="4.847407893727758"><ele>25.666666666666664</ele><time>2026-04-23T15:26:41Z</time></trkpt><trkpt lat="50.9335396278966" lon="4.84755347088635"><ele>26.0</ele><time>2026-04-23T15:26:42Z</time></trkpt><trkpt lat="50.933358351431885" lon="4.847702711144373"><ele>26.0</ele><time>2026-04-23T15:26:43Z</time></trkpt><trkpt lat="50.93317783165931" lon="4.847854373374347"><ele>26.0</ele><time>2026-04-23T15:26:44Z</time></trkpt><trkpt lat="50.93299168093545" lon="4.84799522557039"><ele>26.0</ele><time>2026-04-23T15:26:45Z</time></trkpt><trkpt lat="50.93280874141497" lon="4.8481357240741865"><ele>26.0</ele><time>2026-04-23T15:26:46Z</time></trkpt><trkpt lat="50.932624699168585" lon="4.848282293005937"><ele>26.0</ele><time>2026-04-23T15:26:47Z</time></trkpt><trkpt lat="50.932437571287025" lon="4.848428665799684"><ele>26.0</ele><time>2026-04-23T15:26:48Z</time></trkpt><trkpt lat="50.93225263428103" lon="4.848575600079936"><ele>26.0</ele><time>2026-04-23T15:26:49Z</time></trkpt><trkpt lat="50.932066030246425" lon="4.848721726655403"><ele>26.0</ele><time>2026-04-23T15:26:50Z</time></trkpt><trkpt lat="50.931879279533895" lon="4.848866081379557"><ele>26.0</ele><time>2026-04-23T15:26:51Z</time></trkpt><trkpt lat="50.93169911235611" lon="4.849010007976116"><ele>26.0</ele><time>2026-04-23T15:26:52Z</time></trkpt><trkpt lat="50.93151911473551" lon="4.849151455262993"><ele>26.0</ele><time>2026-04-23T15:26:53Z</time></trkpt><trkpt lat="50.93133951018629" lon="4.8492938789567805"><ele>26.0</ele><time>2026-04-23T15:26:54Z</time></trkpt><trkpt lat="50.93117080482329" lon="4.849427145336312"><ele>25.666666666666664</ele><time>2026-04-23T15:26:55Z</time></trkpt><trkpt lat="50.9310040817637" lon="4.849556732054357"><ele>25.333333333333336</ele><time>2026-04-23T15:26:56Z</time></trkpt><trkpt lat="50.93083233746125" lon="4.849685116248674"><ele>25.0</ele><time>2026-04-23T15:26:57Z</time></trkpt><trkpt lat="50.93066819191088" lon="4.849815195318937"><ele>25.333333333333336</ele><time>2026-04-23T15:26:58Z</time></trkpt><trkpt lat="50.93050243223771" lon="4.849937841370728"><ele>25.666666666666664</ele><time>2026-04-23T15:26:59Z</time></trkpt><trkpt lat="50.930330032524765" lon="4.8500628002625845"><ele>26.0</ele><time>2026-04-23T15:27:00Z</time></trkpt><trkpt lat="50.930164804647866" lon="4.8501980381221435"><ele>26.666666666666664</ele><time>2026-04-23T15:27:01Z</time></trkpt><trkpt lat="50.93000737883678" lon="4.850316269753475"><ele>27.333333333333336</ele><time>2026-04-23T15:27:02Z</time></trkpt><trkpt lat="50.9298504920843" lon="4.85044315024013"><ele>28.0</ele><time>2026-04-23T15:27:03Z</time></trkpt><trkpt lat="50.92969210171509" lon="4.850567423322109"><ele>28.0</ele><time>2026-04-23T15:27:04Z</time></trkpt><trkpt lat="50.929539373029975" lon="4.850679896304601"><ele>28.0</ele><time>2026-04-23T15:27:05Z</time></trkpt><trkpt lat="50.92938839953018" lon="4.850806748584541"><ele>28.0</ele><time>2026-04-23T15:27:06Z</time></trkpt><trkpt lat="50.92923719135058" lon="4.850937991060294"><ele>28.0</ele><time>2026-04-23T15:27:07Z</time></trkpt><trkpt lat="50.92908492224979" lon="4.851068381458868"><ele>28.0</ele><time>2026-04-23T15:27:08Z</time></trkpt><trkpt lat="50.928932766802625" lon="4.8511827711073705"><ele>28.0</ele><time>2026-04-23T15:27:09Z</time></trkpt><trkpt lat="50.92877496423351" lon="4.85130418754564"><ele>28.0</ele><time>2026-04-23T15:27:10Z</time></trkpt><trkpt lat="50.92861454425798" lon="4.851430394584115"><ele>28.0</ele><time>2026-04-23T15:27:11Z</time></trkpt><trkpt lat="50.92845024086215" lon="4.851556183450648"><ele>28.0</ele><time>2026-04-23T15:27:12Z</time></trkpt><trkpt lat="50.92828916600188" lon="4.851687272773935"><ele>28.0</ele><time>2026-04-23T15:27:13Z</time></trkpt><trkpt lat="50.928122676837965" lon="4.851812664717285"><ele>28.0</ele><time>2026-04-23T15:27:14Z</time></trkpt><trkpt lat="50.9279539900614" lon="4.85194982774496"><ele>28.0</ele><time>2026-04-23T15:27:15Z</time></trkpt><trkpt lat="50.927782632473416" lon="4.852085336444328"><ele>28.0</ele><time>2026-04-23T15:27:16Z</time></trkpt><trkpt lat="50.92761671108436" lon="4.8522265290851125"><ele>28.0</ele><time>2026-04-23T15:27:17Z</time></trkpt><trkpt lat="50.92744352794262" lon="4.85233771297745"><ele>28.0</ele><time>2026-04-23T15:27:18Z</time></trkpt><trkpt lat="50.927292683829556" lon="4.852484237155834"><ele>28.0</ele><time>2026-04-23T15:27:19Z</time></trkpt><trkpt lat="50.927138181015145" lon="4.852577519811941"><ele>28.0</ele><time>2026-04-23T15:27:20Z</time></trkpt><trkpt lat="50.92700110153846" lon="4.852713852742883"><ele>28.0</ele><time>2026-04-23T15:27:21Z</time></trkpt><trkpt lat="50.926865122790865" lon="4.852790922924482"><ele>28.0</ele><time>2026-04-23T15:27:22Z</time></trkpt><trkpt lat="50.92674638574333" lon="4.852884479204499"><ele>28.0</ele><time>2026-04-23T15:27:23Z</time></trkpt><trkpt lat="50.92663996380835" lon="4.852968069214576"><ele>28.0</ele><time>2026-04-23T15:27:24Z</time></trkpt><trkpt lat="50.92655232818962" lon="4.853064750640094"><ele>28.0</ele><time>2026-04-23T15:27:25Z</time></trkpt><trkpt lat="50.92646392752926" lon="4.85310430304954"><ele>28.333333333333336</ele><time>2026-04-23T15:27:26Z</time></trkpt><trkpt lat="50.92638400716305" lon="4.853165164173459"><ele>28.666666666666668</ele><time>2026-04-23T15:27:27Z</time></trkpt><trkpt lat="50.92630814311401" lon="4.853236933368414"><ele>29.0</ele><time>2026-04-23T15:27:28Z</time></trkpt><trkpt lat="50.92623683098291" lon="4.85328917730585"><ele>29.333333333333336</ele><time>2026-04-23T15:27:29Z</time></trkpt><trkpt lat="50.926164146299634" lon="4.853341318715632"><ele>29.666666666666668</ele><time>2026-04-23T15:27:29.999Z</time></trkpt><trkpt lat="50.926084578565195" lon="4.8533849487573635"><ele>30.0</ele><time>2026-04-23T15:27:30.999Z</time></trkpt><trkpt lat="50.926013435045746" lon="4.853435081628807"><ele>29.666666666666668</ele><time>2026-04-23T15:27:31.999Z</time></trkpt><trkpt lat="50.925942962830376" lon="4.853481210294646"><ele>29.333333333333336</ele><time>2026-04-23T15:27:32.999Z</time></trkpt><trkpt lat="50.925869253146715" lon="4.853522840392064"><ele>29.0</ele><time>2026-04-23T15:27:33.999Z</time></trkpt><trkpt lat="50.92579110664427" lon="4.853564326407502"><ele>28.666666666666668</ele><time>2026-04-23T15:27:34.999Z</time></trkpt><trkpt lat="50.92572533121411" lon="4.853601519235009"><ele>28.333333333333336</ele><time>2026-04-23T15:27:35.999Z</time></trkpt><trkpt lat="50.92565008292105" lon="4.853644392447131"><ele>28.0</ele><time>2026-04-23T15:27:36.999Z</time></trkpt><trkpt lat="50.9255759215788" lon="4.8536809382802755"><ele>29.333333333333336</ele><time>2026-04-23T15:27:37.999Z</time></trkpt><trkpt lat="50.92550458017694" lon="4.853716531720282"><ele>30.666666666666668</ele><time>2026-04-23T15:27:38.999Z</time></trkpt><trkpt lat="50.92543540092726" lon="4.853750633118923"><ele>32.0</ele><time>2026-04-23T15:27:39.999Z</time></trkpt><trkpt lat="50.92536468430399" lon="4.85378544588358"><ele>33.333333333333336</ele><time>2026-04-23T15:27:40.999Z</time></trkpt><trkpt lat="50.92528837443477" lon="4.85382076247786"><ele>34.666666666666664</ele><time>2026-04-23T15:27:41.999Z</time></trkpt><trkpt lat="50.92522623557998" lon="4.8538486003763515"><ele>36.0</ele><time>2026-04-23T15:27:42.999Z</time></trkpt><trkpt lat="50.92512778646696" lon="4.853889025795287"><ele>36.166666666666664</ele><time>2026-04-23T15:27:44.999Z</time></trkpt><trkpt lat="50.925025665785235" lon="4.853920360956234"><ele>36.333333333333336</ele><time>2026-04-23T15:27:47.999Z</time></trkpt><trkpt lat="50.92496399416602" lon="4.853949135854706"><ele>36.5</ele><time>2026-04-23T15:27:48.999Z</time></trkpt><trkpt lat="50.92489632400891" lon="4.85397242602917"><ele>36.66666666666667</ele><time>2026-04-23T15:27:49.999Z</time></trkpt><trkpt lat="50.92482691068047" lon="4.853991957910983"><ele>36.833333333333336</ele><time>2026-04-23T15:27:50.999Z</time></trkpt><trkpt lat="50.924750530219875" lon="4.854016541366488"><ele>37.0</ele><time>2026-04-23T15:27:51.999Z</time></trkpt><trkpt lat="50.92466986306614" lon="4.854041661313319"><ele>37.0</ele><time>2026-04-23T15:27:52.999Z</time></trkpt><trkpt lat="50.92458791117295" lon="4.854063216072046"><ele>37.0</ele><time>2026-04-23T15:27:53.999Z</time></trkpt><trkpt lat="50.92451192526777" lon="4.854082215734398"><ele>37.0</ele><time>2026-04-23T15:27:54.999Z</time></trkpt><trkpt lat="50.92442677684296" lon="4.854101173559446"><ele>37.0</ele><time>2026-04-23T15:27:55.999Z</time></trkpt><trkpt lat="50.92433889898391" lon="4.854124261746181"><ele>37.0</ele><time>2026-04-23T15:27:56.999Z</time></trkpt><trkpt lat="50.924248791582" lon="4.854142810158171"><ele>37.0</ele><time>2026-04-23T15:27:57.999Z</time></trkpt><trkpt lat="50.92415408516802" lon="4.854161699173208"><ele>37.2</ele><time>2026-04-23T15:27:58.999Z</time></trkpt><trkpt lat="50.924054801852904" lon="4.854171006522264"><ele>37.400000000000006</ele><time>2026-04-23T15:27:59.999Z</time></trkpt><trkpt lat="50.92396686287887" lon="4.854185085122685"><ele>37.599999999999994</ele><time>2026-04-23T15:28:00.999Z</time></trkpt><trkpt lat="50.92387306538218" lon="4.854200704255659"><ele>37.8</ele><time>2026-04-23T15:28:01.999Z</time></trkpt><trkpt lat="50.92377541448641" lon="4.8542125899826765"><ele>38.0</ele><time>2026-04-23T15:28:02.999Z</time></trkpt><trkpt lat="50.92368301575843" lon="4.854215937705917"><ele>38.0</ele><time>2026-04-23T15:28:03.999Z</time></trkpt><trkpt lat="50.92359477503497" lon="4.854230566975355"><ele>38.0</ele><time>2026-04-23T15:28:04.999Z</time></trkpt><trkpt lat="50.92351837905762" lon="4.854234616264974"><ele>38.0</ele><time>2026-04-23T15:28:05.999Z</time></trkpt><trkpt lat="50.92345247904754" lon="4.85423280883743"><ele>38.0</ele><time>2026-04-23T15:28:06.999Z</time></trkpt><trkpt lat="50.92335419897219" lon="4.854232239262644"><ele>38.0</ele><time>2026-04-23T15:28:09.001Z</time></trkpt><trkpt lat="50.92327266453075" lon="4.854233738556738"><ele>38.0</ele><time>2026-04-23T15:28:11.001Z</time></trkpt><trkpt lat="50.923162261793856" lon="4.854236487673807"><ele>38.0</ele><time>2026-04-23T15:28:13.001Z</time></trkpt><trkpt lat="50.92309476381517" lon="4.85423636276423"><ele>38.0</ele><time>2026-04-23T15:28:14.001Z</time></trkpt><trkpt lat="50.92301577153585" lon="4.854236520111296"><ele>38.0</ele><time>2026-04-23T15:28:15.001Z</time></trkpt><trkpt lat="50.922927720942575" lon="4.854238220788582"><ele>38.0</ele><time>2026-04-23T15:28:16.001Z</time></trkpt><trkpt lat="50.9228414816225" lon="4.854240078425792"><ele>38.0</ele><time>2026-04-23T15:28:17.001Z</time></trkpt><trkpt lat="50.92274008075262" lon="4.854244417467879"><ele>38.0</ele><time>2026-04-23T15:28:18.001Z</time></trkpt><trkpt lat="50.922633156144" lon="4.854244070210501"><ele>38.8</ele><time>2026-04-23T15:28:19.001Z</time></trkpt><trkpt lat="50.922535120619905" lon="4.854246131299952"><ele>39.599999999999994</ele><time>2026-04-23T15:28:20.001Z</time></trkpt><trkpt lat="50.92243608148758" lon="4.854248500620881"><ele>40.400000000000006</ele><time>2026-04-23T15:28:21.001Z</time></trkpt><trkpt lat="50.92234199802904" lon="4.854249589789633"><ele>41.2</ele><time>2026-04-23T15:28:22.001Z</time></trkpt><trkpt lat="50.92225576258486" lon="4.854253326540467"><ele>42.0</ele><time>2026-04-23T15:28:23.001Z</time></trkpt><trkpt lat="50.9221758811026" lon="4.854260432702661"><ele>42.0</ele><time>2026-04-23T15:28:24.001Z</time></trkpt><trkpt lat="50.92211080362692" lon="4.854282410095044"><ele>42.0</ele><time>2026-04-23T15:28:25.001Z</time></trkpt><trkpt lat="50.92204936108959" lon="4.854252000683017"><ele>42.0</ele><time>2026-04-23T15:28:26.001Z</time></trkpt><trkpt lat="50.921979223341644" lon="4.854245344550061"><ele>42.0</ele><time>2026-04-23T15:28:28.001Z</time></trkpt><trkpt lat="50.92193615574578" lon="4.854559030156696"><ele>42.0</ele><time>2026-04-23T15:28:32.001Z</time></trkpt><trkpt lat="50.921947722178345" lon="4.854734187275553"><ele>42.75</ele><time>2026-04-23T15:28:33.001Z</time></trkpt><trkpt lat="50.92195831959832" lon="4.854902459803665"><ele>43.5</ele><time>2026-04-23T15:28:34.001Z</time></trkpt><trkpt lat="50.92197229308417" lon="4.855080055231556"><ele>44.25</ele><time>2026-04-23T15:28:35.001Z</time></trkpt><trkpt lat="50.921979702178106" lon="4.855260475553395"><ele>45.0</ele><time>2026-04-23T15:28:36.001Z</time></trkpt><trkpt lat="50.921976128855235" lon="4.855445040296792"><ele>46.25</ele><time>2026-04-23T15:28:37Z</time></trkpt><trkpt lat="50.92197633607339" lon="4.855634882412559"><ele>47.5</ele><time>2026-04-23T15:28:38Z</time></trkpt><trkpt lat="50.92198198727114" lon="4.855840244631231"><ele>48.75</ele><time>2026-04-23T15:28:39Z</time></trkpt><trkpt lat="50.92198510201535" lon="4.856038198141226"><ele>50.0</ele><time>2026-04-23T15:28:40Z</time></trkpt><trkpt lat="50.92195299097816" lon="4.856234862444533"><ele>50.0</ele><time>2026-04-23T15:28:41Z</time></trkpt><trkpt lat="50.921912613713744" lon="4.856442758106942"><ele>50.0</ele><time>2026-04-23T15:28:42Z</time></trkpt><trkpt lat="50.92186875987852" lon="4.856656241458156"><ele>50.0</ele><time>2026-04-23T15:28:43Z</time></trkpt><trkpt lat="50.92182610949037" lon="4.856857500645841"><ele>50.0</ele><time>2026-04-23T15:28:44Z</time></trkpt><trkpt lat="50.92179666471729" lon="4.857059314217737"><ele>50.0</ele><time>2026-04-23T15:28:45Z</time></trkpt><trkpt lat="50.92175399658225" lon="4.857261803997807"><ele>50.0</ele><time>2026-04-23T15:28:46Z</time></trkpt><trkpt lat="50.92171389202315" lon="4.85745976497327"><ele>50.0</ele><time>2026-04-23T15:28:47Z</time></trkpt><trkpt lat="50.92166970123086" lon="4.85764147242043"><ele>50.0</ele><time>2026-04-23T15:28:48Z</time></trkpt><trkpt lat="50.92163018070184" lon="4.857833567065963"><ele>53.5</ele><time>2026-04-23T15:28:49Z</time></trkpt><trkpt lat="50.9215752756072" lon="4.858009143775425"><ele>57.0</ele><time>2026-04-23T15:28:50Z</time></trkpt><trkpt lat="50.92149474084718" lon="4.858166195573189"><ele>60.5</ele><time>2026-04-23T15:28:51Z</time></trkpt><trkpt lat="50.92141102198249" lon="4.858321053690387"><ele>64.0</ele><time>2026-04-23T15:28:52Z</time></trkpt><trkpt lat="50.9213300210132" lon="4.85846995242928"><ele>64.5</ele><time>2026-04-23T15:28:53Z</time></trkpt><trkpt lat="50.92122682126369" lon="4.858589349279759"><ele>65.0</ele><time>2026-04-23T15:28:54Z</time></trkpt><trkpt lat="50.92110656422678" lon="4.858673894526091"><ele>65.5</ele><time>2026-04-23T15:28:55Z</time></trkpt><trkpt lat="50.92099368324467" lon="4.858772935998142"><ele>66.0</ele><time>2026-04-23T15:28:56Z</time></trkpt><trkpt lat="50.920892408748756" lon="4.858901338116981"><ele>67.0</ele><time>2026-04-23T15:28:57Z</time></trkpt><trkpt lat="50.92080006558036" lon="4.8590416592937675"><ele>68.0</ele><time>2026-04-23T15:28:58Z</time></trkpt><trkpt lat="50.92072575803625" lon="4.8592182599833125"><ele>69.0</ele><time>2026-04-23T15:28:59Z</time></trkpt><trkpt lat="50.920674305840826" lon="4.859411055816994"><ele>70.0</ele><time>2026-04-23T15:29:00Z</time></trkpt><trkpt lat="50.92064354501971" lon="4.859609355311196"><ele>70.0</ele><time>2026-04-23T15:29:01Z</time></trkpt><trkpt lat="50.92062200211229" lon="4.859796925566029"><ele>70.0</ele><time>2026-04-23T15:29:02Z</time></trkpt><trkpt lat="50.92059802624328" lon="4.859980813950497"><ele>70.0</ele><time>2026-04-23T15:29:03Z</time></trkpt><trkpt lat="50.92057355387003" lon="4.860161679213782"><ele>70.0</ele><time>2026-04-23T15:29:04Z</time></trkpt><trkpt lat="50.92055069322063" lon="4.860321697748887"><ele>70.0</ele><time>2026-04-23T15:29:05Z</time></trkpt><trkpt lat="50.92052646997752" lon="4.860488132787706"><ele>70.0</ele><time>2026-04-23T15:29:06Z</time></trkpt><trkpt lat="50.92050623349023" lon="4.860641978565432"><ele>70.0</ele><time>2026-04-23T15:29:07Z</time></trkpt><trkpt lat="50.920491022566864" lon="4.860788048066575"><ele>70.0</ele><time>2026-04-23T15:29:08Z</time></trkpt><trkpt lat="50.92048278228241" lon="4.860917186490292"><ele>70.0</ele><time>2026-04-23T15:29:09Z</time></trkpt><trkpt lat="50.92048136168352" lon="4.861040071484536"><ele>70.0</ele><time>2026-04-23T15:29:10Z</time></trkpt><trkpt lat="50.92048155965035" lon="4.861227976298469"><ele>70.0</ele><time>2026-04-23T15:29:12Z</time></trkpt><trkpt lat="50.920491428408" lon="4.861411220665873"><ele>70.0</ele><time>2026-04-23T15:29:14Z</time></trkpt><trkpt lat="50.92050017223972" lon="4.861518054962965"><ele>70.0</ele><time>2026-04-23T15:29:15Z</time></trkpt><trkpt lat="50.920512680670015" lon="4.861619338676496"><ele>70.0</ele><time>2026-04-23T15:29:16Z</time></trkpt><trkpt lat="50.920528034361396" lon="4.861727993492948"><ele>70.0</ele><time>2026-04-23T15:29:17Z</time></trkpt><trkpt lat="50.92052753256404" lon="4.861844123302118"><ele>70.0</ele><time>2026-04-23T15:29:18Z</time></trkpt><trkpt lat="50.920454556748375" lon="4.8619040947896295"><ele>70.0</ele><time>2026-04-23T15:29:19Z</time></trkpt><trkpt lat="50.92040675844331" lon="4.862016175373156"><ele>70.0</ele><time>2026-04-23T15:29:20Z</time></trkpt><trkpt lat="50.920359562166716" lon="4.862139603785662"><ele>70.0</ele><time>2026-04-23T15:29:21Z</time></trkpt><trkpt lat="50.92030528357558" lon="4.862290743539584"><ele>70.0</ele><time>2026-04-23T15:29:22Z</time></trkpt><trkpt lat="50.92025810656395" lon="4.862470345951557"><ele>69.75</ele><time>2026-04-23T15:29:23Z</time></trkpt><trkpt lat="50.92019131827293" lon="4.862636732347735"><ele>69.5</ele><time>2026-04-23T15:29:24Z</time></trkpt><trkpt lat="50.920129219792294" lon="4.862828225840434"><ele>69.25</ele><time>2026-04-23T15:29:25Z</time></trkpt><trkpt lat="50.92006313221376" lon="4.863032011767029"><ele>69.0</ele><time>2026-04-23T15:29:26Z</time></trkpt><trkpt lat="50.92001206157289" lon="4.86324826989613"><ele>69.2</ele><time>2026-04-23T15:29:27Z</time></trkpt><trkpt lat="50.91993534678899" lon="4.863418146216272"><ele>69.4</ele><time>2026-04-23T15:29:28Z</time></trkpt><trkpt lat="50.91989423448671" lon="4.863536224573065"><ele>69.6</ele><time>2026-04-23T15:29:29Z</time></trkpt><trkpt lat="50.9198577586388" lon="4.863640304196629"><ele>69.8</ele><time>2026-04-23T15:29:29.999Z</time></trkpt><trkpt lat="50.91982525258114" lon="4.863786696328923"><ele>70.0</ele><time>2026-04-23T15:29:30.999Z</time></trkpt><trkpt lat="50.91977916756448" lon="4.863916701512132"><ele>70.0</ele><time>2026-04-23T15:29:31.999Z</time></trkpt><trkpt lat="50.91971752826374" lon="4.864046511845032"><ele>70.0</ele><time>2026-04-23T15:29:32.999Z</time></trkpt><trkpt lat="50.91967903242568" lon="4.864211495953489"><ele>70.0</ele><time>2026-04-23T15:29:33.999Z</time></trkpt><trkpt lat="50.91962095398666" lon="4.864343802930759"><ele>70.0</ele><time>2026-04-23T15:29:34.999Z</time></trkpt><trkpt lat="50.91954449046319" lon="4.864442510857095"><ele>70.0</ele><time>2026-04-23T15:29:35.999Z</time></trkpt><trkpt lat="50.919471270114855" lon="4.8645767094964505"><ele>69.83333333333333</ele><time>2026-04-23T15:29:36.999Z</time></trkpt><trkpt lat="50.91942081893723" lon="4.8647138458668495"><ele>69.66666666666666</ele><time>2026-04-23T15:29:37.999Z</time></trkpt><trkpt lat="50.91936991110126" lon="4.864810889426616"><ele>69.5</ele><time>2026-04-23T15:29:38.999Z</time></trkpt><trkpt lat="50.91933243089132" lon="4.864895136365944"><ele>69.33333333333333</ele><time>2026-04-23T15:29:39.999Z</time></trkpt><trkpt lat="50.91928877312495" lon="4.865017816236166"><ele>69.16666666666667</ele><time>2026-04-23T15:29:41.999Z</time></trkpt><trkpt lat="50.919248574109545" lon="4.8651105644564065"><ele>69.0</ele><time>2026-04-23T15:29:43.999Z</time></trkpt><trkpt lat="50.91896298500617" lon="4.865055028014067"><ele>69.60000000000001</ele><time>2026-04-23T15:29:46.999Z</time></trkpt><trkpt lat="50.91886553281224" lon="4.8650541271478644"><ele>70.2</ele><time>2026-04-23T15:29:47.999Z</time></trkpt><trkpt lat="50.918781482302826" lon="4.865062923729203"><ele>70.80000000000001</ele><time>2026-04-23T15:29:48.999Z</time></trkpt><trkpt lat="50.91868058372653" lon="4.865069769441267"><ele>71.4</ele><time>2026-04-23T15:29:49.999Z</time></trkpt><trkpt lat="50.9185843653455" lon="4.865072598512003"><ele>72.0</ele><time>2026-04-23T15:29:50.999Z</time></trkpt><trkpt lat="50.918483530349384" lon="4.865066581352592"><ele>73.4</ele><time>2026-04-23T15:29:51.999Z</time></trkpt><trkpt lat="50.918378660321096" lon="4.865058766015864"><ele>74.80000000000001</ele><time>2026-04-23T15:29:52.999Z</time></trkpt><trkpt lat="50.918276456072014" lon="4.86505172826737"><ele>76.2</ele><time>2026-04-23T15:29:53.999Z</time></trkpt><trkpt lat="50.918167983644274" lon="4.865047978799497"><ele>77.60000000000001</ele><time>2026-04-23T15:29:54.999Z</time></trkpt><trkpt lat="50.91805946894288" lon="4.86504078574831"><ele>79.0</ele><time>2026-04-23T15:29:55.999Z</time></trkpt><trkpt lat="50.91797558014847" lon="4.865032900826892"><ele>79.0</ele><time>2026-04-23T15:29:56.999Z</time></trkpt><trkpt lat="50.917895709073214" lon="4.865024165676476"><ele>79.0</ele><time>2026-04-23T15:29:57.999Z</time></trkpt><trkpt lat="50.91782143575157" lon="4.86501587210182"><ele>79.0</ele><time>2026-04-23T15:29:58.999Z</time></trkpt><trkpt lat="50.917736650172834" lon="4.864996929739654"><ele>79.0</ele><time>2026-04-23T15:29:59.999Z</time></trkpt><trkpt lat="50.91767293111215" lon="4.8649748276016505"><ele>79.0</ele><time>2026-04-23T15:30:00.999Z</time></trkpt><trkpt lat="50.917584862635394" lon="4.8649682539390895"><ele>79.0</ele><time>2026-04-23T15:30:02.999Z</time></trkpt><trkpt lat="50.91749661023236" lon="4.864954487189323"><ele>79.2</ele><time>2026-04-23T15:30:04.999Z</time></trkpt><trkpt lat="50.91741883157214" lon="4.86495283419372"><ele>79.4</ele><time>2026-04-23T15:30:06.999Z</time></trkpt><trkpt lat="50.91730897226685" lon="4.864944884797941"><ele>79.6</ele><time>2026-04-23T15:30:08.999Z</time></trkpt><trkpt lat="50.91718668081863" lon="4.864934844034055"><ele>79.8</ele><time>2026-04-23T15:30:10.999Z</time></trkpt><trkpt lat="50.91708492424245" lon="4.864917754254966"><ele>80.0</ele><time>2026-04-23T15:30:12.999Z</time></trkpt><trkpt lat="50.91697302617063" lon="4.864918646997559"><ele>80.0</ele><time>2026-04-23T15:30:15.001Z</time></trkpt><trkpt lat="50.91687096649408" lon="4.864921821321541"><ele>80.0</ele><time>2026-04-23T15:30:17.001Z</time></trkpt><trkpt lat="50.916807144737916" lon="4.864921814784567"><ele>80.0</ele><time>2026-04-23T15:30:18.001Z</time></trkpt><trkpt lat="50.916725377517764" lon="4.864925232804757"><ele>80.0</ele><time>2026-04-23T15:30:19.001Z</time></trkpt><trkpt lat="50.916653850954596" lon="4.864923615001262"><ele>80.0</ele><time>2026-04-23T15:30:20.001Z</time></trkpt><trkpt lat="50.916551541329376" lon="4.86490036090776"><ele>80.0</ele><time>2026-04-23T15:30:22.001Z</time></trkpt><trkpt lat="50.91646807051145" lon="4.864898362099572"><ele>79.33333333333334</ele><time>2026-04-23T15:30:24.001Z</time></trkpt><trkpt lat="50.9163885229607" lon="4.8648799953192485"><ele>78.66666666666667</ele><time>2026-04-23T15:30:26.001Z</time></trkpt><trkpt lat="50.916322674415234" lon="4.864878782587797"><ele>78.0</ele><time>2026-04-23T15:30:29.001Z</time></trkpt><trkpt lat="50.916270840070425" lon="4.865013004014514"><ele>77.33333333333333</ele><time>2026-04-23T15:30:32.001Z</time></trkpt><trkpt lat="50.916214757850064" lon="4.865174001829271"><ele>76.66666666666666</ele><time>2026-04-23T15:30:34.001Z</time></trkpt><trkpt lat="50.91618222662031" lon="4.865265457413638"><ele>76.0</ele><time>2026-04-23T15:30:35.001Z</time></trkpt><trkpt lat="50.9161157960085" lon="4.865424638975556"><ele>76.0</ele><time>2026-04-23T15:30:37.001Z</time></trkpt><trkpt lat="50.916092779831665" lon="4.865536808098267"><ele>76.0</ele><time>2026-04-23T15:30:39Z</time></trkpt><trkpt lat="50.916046238238366" lon="4.865646906418063"><ele>76.0</ele><time>2026-04-23T15:30:41Z</time></trkpt><trkpt lat="50.91601856993793" lon="4.865768875439836"><ele>76.0</ele><time>2026-04-23T15:30:42Z</time></trkpt><trkpt lat="50.91598449970396" lon="4.865870343107161"><ele>76.0</ele><time>2026-04-23T15:30:43Z</time></trkpt><trkpt lat="50.91596917692611" lon="4.86596922110285"><ele>76.0</ele><time>2026-04-23T15:30:45Z</time></trkpt><trkpt lat="50.91589311353388" lon="4.866067819617845"><ele>74.33333333333333</ele><time>2026-04-23T15:30:48Z</time></trkpt><trkpt lat="50.91582548645406" lon="4.866148801797461"><ele>72.66666666666666</ele><time>2026-04-23T15:30:51Z</time></trkpt><trkpt lat="50.915760669891235" lon="4.866168201749104"><ele>71.0</ele><time>2026-04-23T15:31:35.999Z</time></trkpt><trkpt lat="50.91570360708574" lon="4.866113817132525"><ele>69.33333333333333</ele><time>2026-04-23T15:32:23.001Z</time></trkpt><trkpt lat="50.91563270291942" lon="4.866029087721183"><ele>67.66666666666667</ele><time>2026-04-23T15:32:24.001Z</time></trkpt><trkpt lat="50.91558459200016" lon="4.865938521433283"><ele>66.0</ele><time>2026-04-23T15:32:25.001Z</time></trkpt><trkpt lat="50.91552423456341" lon="4.865823230561628"><ele>65.39999999999999</ele><time>2026-04-23T15:32:26.001Z</time></trkpt><trkpt lat="50.9154702856938" lon="4.865709110872662"><ele>64.8</ele><time>2026-04-23T15:32:27.001Z</time></trkpt><trkpt lat="50.91541601960231" lon="4.865606022809869"><ele>64.19999999999999</ele><time>2026-04-23T15:32:28.001Z</time></trkpt><trkpt lat="50.91533963231995" lon="4.86545972218748"><ele>63.599999999999994</ele><time>2026-04-23T15:32:30.001Z</time></trkpt><trkpt lat="50.91527635119567" lon="4.865335237223632"><ele>63.0</ele><time>2026-04-23T15:32:32.001Z</time></trkpt><trkpt lat="50.91520732061808" lon="4.8651932908896125"><ele>63.0</ele><time>2026-04-23T15:32:34.001Z</time></trkpt><trkpt lat="50.91516782351461" lon="4.865113769779865"><ele>63.0</ele><time>2026-04-23T15:32:35.001Z</time></trkpt><trkpt lat="50.91510745976157" lon="4.864980402669023"><ele>63.0</ele><time>2026-04-23T15:32:37.001Z</time></trkpt><trkpt lat="50.91505605525599" lon="4.864867624889003"><ele>63.0</ele><time>2026-04-23T15:32:39.001Z</time></trkpt><trkpt lat="50.91501374465665" lon="4.864783257358817"><ele>63.0</ele><time>2026-04-23T15:32:41Z</time></trkpt><trkpt lat="50.91493348230254" lon="4.864808500477221"><ele>63.0</ele><time>2026-04-23T15:32:43Z</time></trkpt><trkpt lat="50.914841434438" lon="4.864907821324052"><ele>61.166666666666664</ele><time>2026-04-23T15:32:45Z</time></trkpt><trkpt lat="50.91474493303462" lon="4.864988535561112"><ele>59.33333333333333</ele><time>2026-04-23T15:32:47Z</time></trkpt><trkpt lat="50.91467952342043" lon="4.86504304488634"><ele>57.5</ele><time>2026-04-23T15:32:48Z</time></trkpt><trkpt lat="50.9146172795985" lon="4.865089481994651"><ele>55.666666666666664</ele><time>2026-04-23T15:32:49Z</time></trkpt><trkpt lat="50.914506462178025" lon="4.86515453637349"><ele>53.83333333333333</ele><time>2026-04-23T15:32:51Z</time></trkpt><trkpt lat="50.914432108934264" lon="4.865195689682135"><ele>52.0</ele><time>2026-04-23T15:32:52Z</time></trkpt><trkpt lat="50.91435719128074" lon="4.865231057794359"><ele>51.99999999999999</ele><time>2026-04-23T15:32:53Z</time></trkpt><trkpt lat="50.91428801936399" lon="4.865256855084188"><ele>52.0</ele><time>2026-04-23T15:32:54Z</time></trkpt><trkpt lat="50.91418300955508" lon="4.865286237221827"><ele>52.0</ele><time>2026-04-23T15:32:56Z</time></trkpt><trkpt lat="50.91409899431971" lon="4.865281625826472"><ele>52.0</ele><time>2026-04-23T15:32:58Z</time></trkpt><trkpt lat="50.91403666572989" lon="4.865323855994933"><ele>51.99999999999999</ele><time>2026-04-23T15:33:02Z</time></trkpt><trkpt lat="50.91397817646672" lon="4.865372234338089"><ele>52.0</ele><time>2026-04-23T15:35:15.999Z</time></trkpt><trkpt lat="50.91390897683506" lon="4.865384969501645"><ele>50.83333333333333</ele><time>2026-04-23T15:35:17.999Z</time></trkpt><trkpt lat="50.913839486642054" lon="4.865379641223102"><ele>49.666666666666664</ele><time>2026-04-23T15:35:19.999Z</time></trkpt><trkpt lat="50.913798324864715" lon="4.865303935986873"><ele>48.5</ele><time>2026-04-23T15:35:21.999Z</time></trkpt><trkpt lat="50.913748542693746" lon="4.8652230702461505"><ele>47.33333333333333</ele><time>2026-04-23T15:35:24.999Z</time></trkpt><trkpt lat="50.91367556363475" lon="4.8651065542726935"><ele>46.166666666666664</ele><time>2026-04-23T15:35:36.999Z</time></trkpt><trkpt lat="50.91358498780173" lon="4.864963625746672"><ele>45.0</ele><time>2026-04-23T15:35:38.999Z</time></trkpt><trkpt lat="50.91354045375857" lon="4.864882556237243"><ele>45.0</ele><time>2026-04-23T15:35:39.999Z</time></trkpt><trkpt lat="50.91345823554637" lon="4.864752344597939"><ele>45.0</ele><time>2026-04-23T15:35:41.999Z</time></trkpt><trkpt lat="50.91339312544604" lon="4.864628313456732"><ele>45.0</ele><time>2026-04-23T15:35:43.999Z</time></trkpt><trkpt lat="50.91335297055201" lon="4.864548369607458"><ele>45.0</ele><time>2026-04-23T15:35:45.999Z</time></trkpt><trkpt lat="50.91328430776442" lon="4.8645682750714"><ele>45.0</ele><time>2026-04-23T15:35:48.999Z</time></trkpt><trkpt lat="50.91321091282251" lon="4.864640680845134"><ele>45.0</ele><time>2026-04-23T15:35:50.999Z</time></trkpt><trkpt lat="50.9131048187865" lon="4.864727263176725"><ele>45.0</ele><time>2026-04-23T15:35:52.999Z</time></trkpt><trkpt lat="50.91304088359747" lon="4.86477664513709"><ele>45.0</ele><time>2026-04-23T15:35:53.999Z</time></trkpt><trkpt lat="50.912977667312425" lon="4.8648323380381076"><ele>45.0</ele><time>2026-04-23T15:35:54.999Z</time></trkpt><trkpt lat="50.912918425576905" lon="4.8648902322713194"><ele>45.0</ele><time>2026-04-23T15:35:55.999Z</time></trkpt><trkpt lat="50.9128128625035" lon="4.865003495165091"><ele>45.0</ele><time>2026-04-23T15:35:57.999Z</time></trkpt><trkpt lat="50.91279119092347" lon="4.865124806434411"><ele>45.0</ele><time>2026-04-23T15:35:59.999Z</time></trkpt><trkpt lat="50.912780804770854" lon="4.8652418652862774"><ele>45.0</ele><time>2026-04-23T15:36:01.999Z</time></trkpt><trkpt lat="50.91268842692268" lon="4.865331774863716"><ele>45.0</ele><time>2026-04-23T15:36:03.999Z</time></trkpt><trkpt lat="50.91264323151032" lon="4.865419591386881"><ele>45.0</ele><time>2026-04-23T15:36:05.999Z</time></trkpt><trkpt lat="50.91255328851546" lon="4.865358829513796"><ele>45.0</ele><time>2026-04-23T15:36:10.998Z</time></trkpt><trkpt lat="50.912479457213635" lon="4.865330135169717"><ele>45.0</ele><time>2026-04-23T15:36:13.998Z</time></trkpt><trkpt lat="50.91246718143577" lon="4.865429538022871"><ele>45.0</ele><time>2026-04-23T15:36:15.998Z</time></trkpt><trkpt lat="50.912531147403236" lon="4.865481126638713"><ele>45.0</ele><time>2026-04-23T15:36:17.998Z</time></trkpt><trkpt lat="50.912645142145884" lon="4.865449808946604"><ele>45.0</ele><time>2026-04-23T15:36:19.998Z</time></trkpt><trkpt lat="50.91271279156844" lon="4.86532972783598"><ele>45.0</ele><time>2026-04-23T15:36:21.998Z</time></trkpt><trkpt lat="50.91279088709172" lon="4.865241649024225"><ele>45.0</ele><time>2026-04-23T15:36:23.998Z</time></trkpt><trkpt lat="50.912807977532594" lon="4.86505887501872"><ele>45.0</ele><time>2026-04-23T15:36:25.998Z</time></trkpt><trkpt lat="50.91284562385484" lon="4.864954933780982"><ele>44.4</ele><time>2026-04-23T15:36:27.998Z</time></trkpt><trkpt lat="50.912961787857306" lon="4.86484525315371"><ele>43.8</ele><time>2026-04-23T15:36:29.998Z</time></trkpt><trkpt lat="50.91302878297697" lon="4.864797114772511"><ele>43.2</ele><time>2026-04-23T15:36:30.998Z</time></trkpt><trkpt lat="50.91310687906652" lon="4.864741376847782"><ele>42.6</ele><time>2026-04-23T15:36:31.998Z</time></trkpt><trkpt lat="50.913163107113114" lon="4.8646943084148715"><ele>42.0</ele><time>2026-04-23T15:36:32.998Z</time></trkpt><trkpt lat="50.91325556772304" lon="4.864621546660289"><ele>42.0</ele><time>2026-04-23T15:36:34.998Z</time></trkpt><trkpt lat="50.913312777105226" lon="4.8645776651194295"><ele>42.0</ele><time>2026-04-23T15:36:36.999Z</time></trkpt><trkpt lat="50.91331973275366" lon="4.864472300830379"><ele>42.0</ele><time>2026-04-23T15:36:39.999Z</time></trkpt><trkpt lat="50.91324557648447" lon="4.864335572304686"><ele>42.0</ele><time>2026-04-23T15:36:41.999Z</time></trkpt><trkpt lat="50.913192080880584" lon="4.864253091786427"><ele>42.0</ele><time>2026-04-23T15:36:42.999Z</time></trkpt><trkpt lat="50.91313726593389" lon="4.864155218366688"><ele>42.0</ele><time>2026-04-23T15:36:43.999Z</time></trkpt><trkpt lat="50.91307778159355" lon="4.86406220211691"><ele>42.166666666666664</ele><time>2026-04-23T15:36:44.999Z</time></trkpt><trkpt lat="50.913021763689095" lon="4.863964859359226"><ele>42.333333333333336</ele><time>2026-04-23T15:36:45.999Z</time></trkpt><trkpt lat="50.91297095033385" lon="4.8638715834655075"><ele>42.5</ele><time>2026-04-23T15:36:46.999Z</time></trkpt><trkpt lat="50.91292230731608" lon="4.863782194354398"><ele>42.66666666666667</ele><time>2026-04-23T15:36:47.999Z</time></trkpt><trkpt lat="50.91287178809024" lon="4.863678929669455"><ele>42.833333333333336</ele><time>2026-04-23T15:36:48.999Z</time></trkpt><trkpt lat="50.912825815643345" lon="4.863583794498416"><ele>43.0</ele><time>2026-04-23T15:36:50Z</time></trkpt><trkpt lat="50.91278652090255" lon="4.863489671171857"><ele>42.833333333333336</ele><time>2026-04-23T15:36:51Z</time></trkpt><trkpt lat="50.912751296593235" lon="4.863390539945501"><ele>42.66666666666667</ele><time>2026-04-23T15:36:52Z</time></trkpt><trkpt lat="50.9127105664658" lon="4.863313162484115"><ele>42.5</ele><time>2026-04-23T15:36:53Z</time></trkpt><trkpt lat="50.91264140912272" lon="4.86320828612313"><ele>42.333333333333336</ele><time>2026-04-23T15:36:55Z</time></trkpt><trkpt lat="50.912588622048766" lon="4.863138658223959"><ele>42.166666666666664</ele><time>2026-04-23T15:37:01Z</time></trkpt><trkpt lat="50.912457525932375" lon="4.863097576573441"><ele>42.0</ele><time>2026-04-23T15:37:03Z</time></trkpt><trkpt lat="50.91237906694037" lon="4.86313911405272"><ele>42.0</ele><time>2026-04-23T15:37:04Z</time></trkpt><trkpt lat="50.912291177776424" lon="4.863244545768102"><ele>42.0</ele><time>2026-04-23T15:37:05Z</time></trkpt><trkpt lat="50.91219670267161" lon="4.863370140042079"><ele>42.0</ele><time>2026-04-23T15:37:06Z</time></trkpt><trkpt lat="50.91209368553988" lon="4.863506955215341"><ele>42.0</ele><time>2026-04-23T15:37:07Z</time></trkpt><trkpt lat="50.91198096271086" lon="4.863643890893398"><ele>42.666666666666664</ele><time>2026-04-23T15:37:08Z</time></trkpt><trkpt lat="50.91186362482202" lon="4.863786474553175"><ele>43.33333333333333</ele><time>2026-04-23T15:37:09Z</time></trkpt><trkpt lat="50.91174265948045" lon="4.863933650708962"><ele>44.0</ele><time>2026-04-23T15:37:10Z</time></trkpt><trkpt lat="50.91161428166089" lon="4.864085696363227"><ele>44.666666666666664</ele><time>2026-04-23T15:37:10.999Z</time></trkpt><trkpt lat="50.9114772611144" lon="4.864243614397641"><ele>45.333333333333336</ele><time>2026-04-23T15:37:11.999Z</time></trkpt><trkpt lat="50.911339326114415" lon="4.864406425022916"><ele>46.0</ele><time>2026-04-23T15:37:12.999Z</time></trkpt><trkpt lat="50.91119539459762" lon="4.86457612706708"><ele>46.333333333333336</ele><time>2026-04-23T15:37:13.999Z</time></trkpt><trkpt lat="50.91105275570688" lon="4.864748612402676"><ele>46.666666666666664</ele><time>2026-04-23T15:37:14.999Z</time></trkpt><trkpt lat="50.91090294593188" lon="4.864931814100778"><ele>47.0</ele><time>2026-04-23T15:37:15.999Z</time></trkpt><trkpt lat="50.91075776085728" lon="4.865113234434808"><ele>47.0</ele><time>2026-04-23T15:37:16.999Z</time></trkpt><trkpt lat="50.910603150906276" lon="4.865298370095699"><ele>47.0</ele><time>2026-04-23T15:37:17.999Z</time></trkpt><trkpt lat="50.910443212291504" lon="4.8654883471755115"><ele>47.0</ele><time>2026-04-23T15:37:18.999Z</time></trkpt><trkpt lat="50.91028503792037" lon="4.865673562609025"><ele>47.0</ele><time>2026-04-23T15:37:19.999Z</time></trkpt><trkpt lat="50.91012578784429" lon="4.865859594292105"><ele>47.0</ele><time>2026-04-23T15:37:20.999Z</time></trkpt><trkpt lat="50.90996572733314" lon="4.866050378596764"><ele>47.0</ele><time>2026-04-23T15:37:21.999Z</time></trkpt><trkpt lat="50.90980271994578" lon="4.866244832435464"><ele>45.0</ele><time>2026-04-23T15:37:22.999Z</time></trkpt><trkpt lat="50.90963757913434" lon="4.8664419670122"><ele>43.0</ele><time>2026-04-23T15:37:23.999Z</time></trkpt><trkpt lat="50.90947034945765" lon="4.86663649335245"><ele>41.0</ele><time>2026-04-23T15:37:24.999Z</time></trkpt><trkpt lat="50.909305506131275" lon="4.866826138023852"><ele>41.666666666666664</ele><time>2026-04-23T15:37:25.999Z</time></trkpt><trkpt lat="50.90913695779413" lon="4.867020461423003"><ele>42.333333333333336</ele><time>2026-04-23T15:37:26.999Z</time></trkpt><trkpt lat="50.90896853906774" lon="4.867218813192212"><ele>43.0</ele><time>2026-04-23T15:37:27.999Z</time></trkpt><trkpt lat="50.908804090709275" lon="4.867415171202733"><ele>43.0</ele><time>2026-04-23T15:37:28.999Z</time></trkpt><trkpt lat="50.90864613283567" lon="4.867602292473465"><ele>43.0</ele><time>2026-04-23T15:37:29.999Z</time></trkpt><trkpt lat="50.908504637422524" lon="4.86776812872734"><ele>43.0</ele><time>2026-04-23T15:37:30.999Z</time></trkpt><trkpt lat="50.90836675886662" lon="4.867937811993812"><ele>44.0</ele><time>2026-04-23T15:37:31.999Z</time></trkpt><trkpt lat="50.90823425096605" lon="4.8681058993042505"><ele>45.0</ele><time>2026-04-23T15:37:32.999Z</time></trkpt><trkpt lat="50.90810175651166" lon="4.868269975826454"><ele>46.0</ele><time>2026-04-23T15:37:33.999Z</time></trkpt><trkpt lat="50.907974027564606" lon="4.868420110520827"><ele>45.75</ele><time>2026-04-23T15:37:34.999Z</time></trkpt><trkpt lat="50.907859875620154" lon="4.868550770731496"><ele>45.5</ele><time>2026-04-23T15:37:35.999Z</time></trkpt><trkpt lat="50.907755593149645" lon="4.868671818179411"><ele>45.25</ele><time>2026-04-23T15:37:36.999Z</time></trkpt><trkpt lat="50.90766128801772" lon="4.868785120565193"><ele>45.0</ele><time>2026-04-23T15:37:37.999Z</time></trkpt><trkpt lat="50.907576720619886" lon="4.868886566312384"><ele>45.0</ele><time>2026-04-23T15:37:38.999Z</time></trkpt><trkpt lat="50.90749557191536" lon="4.868986115820523"><ele>45.0</ele><time>2026-04-23T15:37:39.999Z</time></trkpt><trkpt lat="50.90742207121184" lon="4.86907320807213"><ele>45.0</ele><time>2026-04-23T15:37:40.999Z</time></trkpt><trkpt lat="50.90734969917042" lon="4.869161347393548"><ele>45.0</ele><time>2026-04-23T15:37:41.999Z</time></trkpt><trkpt lat="50.907285593425414" lon="4.86924113268775"><ele>45.0</ele><time>2026-04-23T15:37:42.999Z</time></trkpt><trkpt lat="50.90723128065849" lon="4.869310153380331"><ele>45.0</ele><time>2026-04-23T15:37:43.999Z</time></trkpt><trkpt lat="50.90715524129712" lon="4.86939660478908"><ele>44.833333333333336</ele><time>2026-04-23T15:37:45.999Z</time></trkpt><trkpt lat="50.90708680470705" lon="4.869464813477224"><ele>44.666666666666664</ele><time>2026-04-23T15:37:47.999Z</time></trkpt><trkpt lat="50.907025961571485" lon="4.869516074017679"><ele>44.5</ele><time>2026-04-23T15:37:50.999Z</time></trkpt><trkpt lat="50.906969755915874" lon="4.869561137937404"><ele>44.33333333333333</ele><time>2026-04-23T15:37:56.999Z</time></trkpt><trkpt lat="50.90688037846501" lon="4.869604883924667"><ele>44.166666666666664</ele><time>2026-04-23T15:38:01.999Z</time></trkpt><trkpt lat="50.90680847270122" lon="4.86959830817345"><ele>44.0</ele><time>2026-04-23T15:38:02.999Z</time></trkpt><trkpt lat="50.90673247233556" lon="4.869609693118832"><ele>44.0</ele><time>2026-04-23T15:38:03.999Z</time></trkpt><trkpt lat="50.90665752789752" lon="4.869671987738145"><ele>44.0</ele><time>2026-04-23T15:38:04.999Z</time></trkpt><trkpt lat="50.906615092510286" lon="4.869800744929952"><ele>44.0</ele><time>2026-04-23T15:38:05.999Z</time></trkpt><trkpt lat="50.90661447839164" lon="4.869947182366983"><ele>44.0</ele><time>2026-04-23T15:38:06.999Z</time></trkpt><trkpt lat="50.90664928303962" lon="4.870084306917838"><ele>44.0</ele><time>2026-04-23T15:38:07.999Z</time></trkpt><trkpt lat="50.9067177245987" lon="4.87017629375304"><ele>44.0</ele><time>2026-04-23T15:38:08.999Z</time></trkpt><trkpt lat="50.906800440179005" lon="4.870266156508751"><ele>44.0</ele><time>2026-04-23T15:38:09.999Z</time></trkpt><trkpt lat="50.90685454651934" lon="4.8703931633651365"><ele>44.0</ele><time>2026-04-23T15:38:10.999Z</time></trkpt><trkpt lat="50.90688780390825" lon="4.870536202661697"><ele>44.0</ele><time>2026-04-23T15:38:11.999Z</time></trkpt><trkpt lat="50.90692486347104" lon="4.8706703294536995"><ele>44.0</ele><time>2026-04-23T15:38:12.999Z</time></trkpt><trkpt lat="50.906973695152736" lon="4.870882424595332"><ele>44.25</ele><time>2026-04-23T15:38:13.999Z</time></trkpt><trkpt lat="50.907020156188466" lon="4.871074272553475"><ele>44.5</ele><time>2026-04-23T15:38:14.999Z</time></trkpt><trkpt lat="50.90706388432278" lon="4.87127566249561"><ele>44.75</ele><time>2026-04-23T15:38:15.999Z</time></trkpt><trkpt lat="50.90710731098863" lon="4.871479328496551"><ele>45.0</ele><time>2026-04-23T15:38:16.999Z</time></trkpt><trkpt lat="50.90715301798965" lon="4.871684387405138"><ele>45.5</ele><time>2026-04-23T15:38:17.999Z</time></trkpt><trkpt lat="50.90719953815331" lon="4.8718902823386765"><ele>46.0</ele><time>2026-04-23T15:38:18.999Z</time></trkpt><trkpt lat="50.90724458375578" lon="4.872098543461008"><ele>46.5</ele><time>2026-04-23T15:38:19.999Z</time></trkpt><trkpt lat="50.907288280913185" lon="4.872300315374764"><ele>47.0</ele><time>2026-04-23T15:38:20.999Z</time></trkpt><trkpt lat="50.907331410873816" lon="4.872514346723172"><ele>47.5</ele><time>2026-04-23T15:38:21.998Z</time></trkpt><trkpt lat="50.9073645910147" lon="4.872723362073334"><ele>48.0</ele><time>2026-04-23T15:38:22.998Z</time></trkpt><trkpt lat="50.907387225107016" lon="4.872927404546399"><ele>48.5</ele><time>2026-04-23T15:38:23.998Z</time></trkpt><trkpt lat="50.90740441100733" lon="4.873131732642299"><ele>49.0</ele><time>2026-04-23T15:38:24.998Z</time></trkpt><trkpt lat="50.9074301702921" lon="4.873333521516571"><ele>49.0</ele><time>2026-04-23T15:38:25.998Z</time></trkpt><trkpt lat="50.90745259070422" lon="4.873533786454703"><ele>49.0</ele><time>2026-04-23T15:38:26.998Z</time></trkpt><trkpt lat="50.90747594022873" lon="4.873737319888176"><ele>49.0</ele><time>2026-04-23T15:38:27.998Z</time></trkpt><trkpt lat="50.90749583904473" lon="4.873918511561888"><ele>49.0</ele><time>2026-04-23T15:38:28.998Z</time></trkpt><trkpt lat="50.907515989775874" lon="4.87408343913913"><ele>49.0</ele><time>2026-04-23T15:38:29.998Z</time></trkpt><trkpt lat="50.90753471153855" lon="4.874245988289896"><ele>49.0</ele><time>2026-04-23T15:38:30.998Z</time></trkpt><trkpt lat="50.90755436191164" lon="4.87440493002011"><ele>49.0</ele><time>2026-04-23T15:38:31.998Z</time></trkpt><trkpt lat="50.90757125048195" lon="4.874572614116933"><ele>49.0</ele><time>2026-04-23T15:38:32.998Z</time></trkpt><trkpt lat="50.90758870515233" lon="4.874752897863753"><ele>49.0</ele><time>2026-04-23T15:38:33.998Z</time></trkpt><trkpt lat="50.9076022293384" lon="4.874937662626644"><ele>48.75</ele><time>2026-04-23T15:38:34.998Z</time></trkpt><trkpt lat="50.90761313520713" lon="4.875129426255675"><ele>48.5</ele><time>2026-04-23T15:38:35.998Z</time></trkpt><trkpt lat="50.907623647581545" lon="4.875322111723941"><ele>48.25</ele><time>2026-04-23T15:38:36.998Z</time></trkpt><trkpt lat="50.90764175697046" lon="4.875517009338791"><ele>48.0</ele><time>2026-04-23T15:38:37.998Z</time></trkpt><trkpt lat="50.90765404543368" lon="4.8756942046431755"><ele>48.0</ele><time>2026-04-23T15:38:38.998Z</time></trkpt><trkpt lat="50.90766287571828" lon="4.87583868330176"><ele>48.0</ele><time>2026-04-23T15:38:39.998Z</time></trkpt><trkpt lat="50.907664988712774" lon="4.875978542908513"><ele>48.0</ele><time>2026-04-23T15:38:42Z</time></trkpt><trkpt lat="50.90766983969997" lon="4.876096479022645"><ele>48.0</ele><time>2026-04-23T15:38:45Z</time></trkpt><trkpt lat="50.90768125984629" lon="4.876250488284197"><ele>48.0</ele><time>2026-04-23T15:38:47Z</time></trkpt><trkpt lat="50.90768922114616" lon="4.876357673512205"><ele>48.0</ele><time>2026-04-23T15:38:48Z</time></trkpt><trkpt lat="50.90769915396628" lon="4.8764820306097825"><ele>47.8</ele><time>2026-04-23T15:38:49Z</time></trkpt><trkpt lat="50.90770932055709" lon="4.876623870181961"><ele>47.599999999999994</ele><time>2026-04-23T15:38:50Z</time></trkpt><trkpt lat="50.90771904614381" lon="4.876772339458342"><ele>47.400000000000006</ele><time>2026-04-23T15:38:51Z</time></trkpt><trkpt lat="50.90773159213314" lon="4.876941390365468"><ele>47.2</ele><time>2026-04-23T15:38:52Z</time></trkpt><trkpt lat="50.907739875731544" lon="4.877078737070272"><ele>47.0</ele><time>2026-04-23T15:38:53Z</time></trkpt><trkpt lat="50.90775211131729" lon="4.8771992675051585"><ele>46.8</ele><time>2026-04-23T15:38:54Z</time></trkpt><trkpt lat="50.907758357907746" lon="4.877305215264537"><ele>46.6</ele><time>2026-04-23T15:38:55Z</time></trkpt><trkpt lat="50.90776805394615" lon="4.877518449024669"><ele>46.4</ele><time>2026-04-23T15:38:57Z</time></trkpt><trkpt lat="50.90777306962284" lon="4.877649145059068"><ele>46.199999999999996</ele><time>2026-04-23T15:38:58Z</time></trkpt><trkpt lat="50.90777958722709" lon="4.877784227557384"><ele>46.0</ele><time>2026-04-23T15:38:59Z</time></trkpt><trkpt lat="50.90778707735147" lon="4.87792869928816"><ele>46.0</ele><time>2026-04-23T15:39:00Z</time></trkpt><trkpt lat="50.90778726301083" lon="4.878086545935738"><ele>46.0</ele><time>2026-04-23T15:39:01Z</time></trkpt><trkpt lat="50.907793636437184" lon="4.878251271605441"><ele>46.0</ele><time>2026-04-23T15:39:02Z</time></trkpt><trkpt lat="50.9078048172134" lon="4.878428058896585"><ele>46.0</ele><time>2026-04-23T15:39:03Z</time></trkpt><trkpt lat="50.90782462600724" lon="4.878616198507442"><ele>46.0</ele><time>2026-04-23T15:39:04Z</time></trkpt><trkpt lat="50.90785353830047" lon="4.878801054465136"><ele>46.25</ele><time>2026-04-23T15:39:05Z</time></trkpt><trkpt lat="50.90789545833575" lon="4.878993357296781"><ele>46.5</ele><time>2026-04-23T15:39:06Z</time></trkpt><trkpt lat="50.90794623223462" lon="4.8791656574949185"><ele>46.75</ele><time>2026-04-23T15:39:07Z</time></trkpt><trkpt lat="50.90799925891934" lon="4.8793308756636815"><ele>47.0</ele><time>2026-04-23T15:39:08Z</time></trkpt><trkpt lat="50.90805040906205" lon="4.879496041441143"><ele>47.0</ele><time>2026-04-23T15:39:09Z</time></trkpt><trkpt lat="50.90810166937635" lon="4.8796599523793995"><ele>47.0</ele><time>2026-04-23T15:39:10Z</time></trkpt><trkpt lat="50.908155025221674" lon="4.879824783764495"><ele>47.0</ele><time>2026-04-23T15:39:11Z</time></trkpt><trkpt lat="50.90820721131016" lon="4.8799742649459565"><ele>47.0</ele><time>2026-04-23T15:39:12Z</time></trkpt><trkpt lat="50.90824768189268" lon="4.88010615938786"><ele>47.0</ele><time>2026-04-23T15:39:13Z</time></trkpt><trkpt lat="50.908277503293725" lon="4.880229335061364"><ele>47.2</ele><time>2026-04-23T15:39:14Z</time></trkpt><trkpt lat="50.90827802189805" lon="4.880368110728087"><ele>47.400000000000006</ele><time>2026-04-23T15:39:15Z</time></trkpt><trkpt lat="50.90818078782305" lon="4.8804363564456805"><ele>47.599999999999994</ele><time>2026-04-23T15:39:16Z</time></trkpt><trkpt lat="50.908120018852316" lon="4.880558905961028"><ele>47.8</ele><time>2026-04-23T15:39:17Z</time></trkpt><trkpt lat="50.90812922134873" lon="4.880743034502992"><ele>48.0</ele><time>2026-04-23T15:39:18Z</time></trkpt><trkpt lat="50.90814502161625" lon="4.8809105699061694"><ele>48.0</ele><time>2026-04-23T15:39:19Z</time></trkpt><trkpt lat="50.908112069115965" lon="4.881081391447865"><ele>48.0</ele><time>2026-04-23T15:39:20Z</time></trkpt><trkpt lat="50.90809909078977" lon="4.881258986640752"><ele>48.0</ele><time>2026-04-23T15:39:21Z</time></trkpt><trkpt lat="50.90809644446363" lon="4.881447570944327"><ele>48.0</ele><time>2026-04-23T15:39:22Z</time></trkpt><trkpt lat="50.90809746102936" lon="4.881616831672995"><ele>47.8</ele><time>2026-04-23T15:39:23Z</time></trkpt><trkpt lat="50.90810441572151" lon="4.881783523379999"><ele>47.599999999999994</ele><time>2026-04-23T15:39:24Z</time></trkpt><trkpt lat="50.90811673165091" lon="4.88195280377111"><ele>47.400000000000006</ele><time>2026-04-23T15:39:25Z</time></trkpt><trkpt lat="50.90813518755354" lon="4.882124003409311"><ele>47.2</ele><time>2026-04-23T15:39:26Z</time></trkpt><trkpt lat="50.90815576358412" lon="4.882297178974942"><ele>47.0</ele><time>2026-04-23T15:39:27Z</time></trkpt><trkpt lat="50.90817901031338" lon="4.882473917083888"><ele>47.25</ele><time>2026-04-23T15:39:28Z</time></trkpt><trkpt lat="50.90821081293891" lon="4.882648331659953"><ele>47.5</ele><time>2026-04-23T15:39:29Z</time></trkpt><trkpt lat="50.90824820065216" lon="4.882824263494789"><ele>47.75</ele><time>2026-04-23T15:39:30Z</time></trkpt><trkpt lat="50.90828531870013" lon="4.883004410953066"><ele>48.0</ele><time>2026-04-23T15:39:31Z</time></trkpt><trkpt lat="50.908318078629804" lon="4.883186197896733"><ele>48.0</ele><time>2026-04-23T15:39:32Z</time></trkpt><trkpt lat="50.90835266737973" lon="4.8833648988524985"><ele>48.0</ele><time>2026-04-23T15:39:33Z</time></trkpt><trkpt lat="50.908385415063755" lon="4.883541248461375"><ele>48.0</ele><time>2026-04-23T15:39:34Z</time></trkpt><trkpt lat="50.90841408365758" lon="4.883715098614582"><ele>48.0</ele><time>2026-04-23T15:39:35Z</time></trkpt><trkpt lat="50.90842744908745" lon="4.883886751071749"><ele>47.666666666666664</ele><time>2026-04-23T15:39:36Z</time></trkpt><trkpt lat="50.90842132874851" lon="4.8840411416318625"><ele>47.333333333333336</ele><time>2026-04-23T15:39:37Z</time></trkpt><trkpt lat="50.90841278238525" lon="4.884168457656438"><ele>47.0</ele><time>2026-04-23T15:39:38Z</time></trkpt><trkpt lat="50.908412993081754" lon="4.884281009456193"><ele>46.66666666666667</ele><time>2026-04-23T15:39:38.999Z</time></trkpt><trkpt lat="50.908415817456984" lon="4.884429725496753"><ele>46.333333333333336</ele><time>2026-04-23T15:39:40.999Z</time></trkpt><trkpt lat="50.90841336795119" lon="4.884545258568706"><ele>46.0</ele><time>2026-04-23T15:39:43.999Z</time></trkpt><trkpt lat="50.90842081751291" lon="4.884646069543359"><ele>45.8</ele><time>2026-04-23T15:39:44.999Z</time></trkpt><trkpt lat="50.9084339136513" lon="4.884772376737103"><ele>45.599999999999994</ele><time>2026-04-23T15:39:45.999Z</time></trkpt><trkpt lat="50.90844143746039" lon="4.884913003773003"><ele>45.4</ele><time>2026-04-23T15:39:46.999Z</time></trkpt><trkpt lat="50.90844570598244" lon="4.885077637838253"><ele>45.2</ele><time>2026-04-23T15:39:47.999Z</time></trkpt><trkpt lat="50.90845495555024" lon="4.885251150483149"><ele>45.0</ele><time>2026-04-23T15:39:48.999Z</time></trkpt><trkpt lat="50.90847057027393" lon="4.885441886431937"><ele>45.0</ele><time>2026-04-23T15:39:49.999Z</time></trkpt><trkpt lat="50.908489525575945" lon="4.885645142060813"><ele>45.0</ele><time>2026-04-23T15:39:50.999Z</time></trkpt><trkpt lat="50.90851150129046" lon="4.885843632723075"><ele>45.0</ele><time>2026-04-23T15:39:51.999Z</time></trkpt><trkpt lat="50.908528187665425" lon="4.88603293492086"><ele>45.0</ele><time>2026-04-23T15:39:52.999Z</time></trkpt><trkpt lat="50.90855420721314" lon="4.8862306490873"><ele>45.0</ele><time>2026-04-23T15:39:53.999Z</time></trkpt><trkpt lat="50.90857877517045" lon="4.886432451580442"><ele>45.0</ele><time>2026-04-23T15:39:54.999Z</time></trkpt><trkpt lat="50.908607199767815" lon="4.886631788908008"><ele>45.0</ele><time>2026-04-23T15:39:55.999Z</time></trkpt><trkpt lat="50.90864851492975" lon="4.886828067294358"><ele>45.0</ele><time>2026-04-23T15:39:56.999Z</time></trkpt><trkpt lat="50.90869928435302" lon="4.887019120562595"><ele>45.25</ele><time>2026-04-23T15:39:57.999Z</time></trkpt><trkpt lat="50.9087579195191" lon="4.887209187130169"><ele>45.5</ele><time>2026-04-23T15:39:58.999Z</time></trkpt><trkpt lat="50.90882488413009" lon="4.887390936417609"><ele>45.75</ele><time>2026-04-23T15:39:59.999Z</time></trkpt><trkpt lat="50.908905596806484" lon="4.887562471556142"><ele>46.0</ele><time>2026-04-23T15:40:00.999Z</time></trkpt><trkpt lat="50.90899606388556" lon="4.887733348220359"><ele>46.0</ele><time>2026-04-23T15:40:01.999Z</time></trkpt><trkpt lat="50.90909143358556" lon="4.8878911565296"><ele>46.0</ele><time>2026-04-23T15:40:02.999Z</time></trkpt><trkpt lat="50.90919014646224" lon="4.888035540411322"><ele>46.0</ele><time>2026-04-23T15:40:03.999Z</time></trkpt><trkpt lat="50.909291143443625" lon="4.888184904198659"><ele>46.0</ele><time>2026-04-23T15:40:04.999Z</time></trkpt><trkpt lat="50.90938621753581" lon="4.888332861213325"><ele>46.0</ele><time>2026-04-23T15:40:05.999Z</time></trkpt><trkpt lat="50.90947287004386" lon="4.888494452339596"><ele>46.0</ele><time>2026-04-23T15:40:06.999Z</time></trkpt><trkpt lat="50.909552064575735" lon="4.888676302923926"><ele>46.0</ele><time>2026-04-23T15:40:07.999Z</time></trkpt><trkpt lat="50.909605381879366" lon="4.888873397867972"><ele>46.0</ele><time>2026-04-23T15:40:08.999Z</time></trkpt><trkpt lat="50.909641514070515" lon="4.889085635525653"><ele>46.25</ele><time>2026-04-23T15:40:09.999Z</time></trkpt><trkpt lat="50.90963409474798" lon="4.889308735832168"><ele>46.5</ele><time>2026-04-23T15:40:10.999Z</time></trkpt><trkpt lat="50.90962327756723" lon="4.88953331923794"><ele>46.75</ele><time>2026-04-23T15:40:11.999Z</time></trkpt><trkpt lat="50.90958960862652" lon="4.889755390745233"><ele>47.0</ele><time>2026-04-23T15:40:12.999Z</time></trkpt><trkpt lat="50.90952834931249" lon="4.889957180365918"><ele>47.75</ele><time>2026-04-23T15:40:13.999Z</time></trkpt><trkpt lat="50.90946305835587" lon="4.890168678528186"><ele>48.5</ele><time>2026-04-23T15:40:14.999Z</time></trkpt><trkpt lat="50.90938159959926" lon="4.890356394013425"><ele>49.25</ele><time>2026-04-23T15:40:15.999Z</time></trkpt><trkpt lat="50.90930772178441" lon="4.890562896970068"><ele>50.0</ele><time>2026-04-23T15:40:16.999Z</time></trkpt><trkpt lat="50.909256055744294" lon="4.890778791530218"><ele>50.0</ele><time>2026-04-23T15:40:17.999Z</time></trkpt><trkpt lat="50.90921717473049" lon="4.891012542133067"><ele>50.0</ele><time>2026-04-23T15:40:18.999Z</time></trkpt><trkpt lat="50.90919166775026" lon="4.8912524983421415"><ele>50.0</ele><time>2026-04-23T15:40:19.999Z</time></trkpt><trkpt lat="50.909181512093845" lon="4.891492317779404"><ele>50.0</ele><time>2026-04-23T15:40:20.999Z</time></trkpt><trkpt lat="50.90918739199829" lon="4.891737952944364"><ele>50.0</ele><time>2026-04-23T15:40:21.999Z</time></trkpt><trkpt lat="50.90920896305133" lon="4.891981261661255"><ele>50.0</ele><time>2026-04-23T15:40:22.999Z</time></trkpt><trkpt lat="50.90924905940617" lon="4.892231073524569"><ele>50.66666666666667</ele><time>2026-04-23T15:40:23.999Z</time></trkpt><trkpt lat="50.90929782063935" lon="4.892478070427365"><ele>51.33333333333333</ele><time>2026-04-23T15:40:24.999Z</time></trkpt><trkpt lat="50.90933236399755" lon="4.892724957769607"><ele>52.0</ele><time>2026-04-23T15:40:25.999Z</time></trkpt><trkpt lat="50.90934996378574" lon="4.89297423692389"><ele>52.0</ele><time>2026-04-23T15:40:26.999Z</time></trkpt><trkpt lat="50.90935128991076" lon="4.893238997519627"><ele>52.0</ele><time>2026-04-23T15:40:27.999Z</time></trkpt><trkpt lat="50.909342042686916" lon="4.893493288629535"><ele>52.0</ele><time>2026-04-23T15:40:28.999Z</time></trkpt><trkpt lat="50.90932423995487" lon="4.893755217294075"><ele>52.666666666666664</ele><time>2026-04-23T15:40:29.999Z</time></trkpt><trkpt lat="50.90927997770997" lon="4.89400532826856"><ele>53.33333333333333</ele><time>2026-04-23T15:40:30.999Z</time></trkpt><trkpt lat="50.90926375732655" lon="4.894272152108486"><ele>54.0</ele><time>2026-04-23T15:40:31.999Z</time></trkpt><trkpt lat="50.909244444440255" lon="4.894525441111304"><ele>54.66666666666667</ele><time>2026-04-23T15:40:32.999Z</time></trkpt><trkpt lat="50.90924276810255" lon="4.894797168862229"><ele>55.333333333333336</ele><time>2026-04-23T15:40:33.999Z</time></trkpt><trkpt lat="50.90925749188809" lon="4.895064760510719"><ele>56.0</ele><time>2026-04-23T15:40:34.999Z</time></trkpt><trkpt lat="50.9092854438053" lon="4.895327600276672"><ele>56.66666666666667</ele><time>2026-04-23T15:40:35.999Z</time></trkpt><trkpt lat="50.90932517122052" lon="4.895583512334484"><ele>57.33333333333333</ele><time>2026-04-23T15:40:36.999Z</time></trkpt><trkpt lat="50.90937758739534" lon="4.895847551331675"><ele>58.0</ele><time>2026-04-23T15:40:37.999Z</time></trkpt><trkpt lat="50.909433809354674" lon="4.8961011781245345"><ele>58.0</ele><time>2026-04-23T15:40:38.999Z</time></trkpt><trkpt lat="50.90948724774788" lon="4.896362481921871"><ele>58.0</ele><time>2026-04-23T15:40:39.999Z</time></trkpt><trkpt lat="50.90954092471791" lon="4.8966212029814"><ele>58.0</ele><time>2026-04-23T15:40:40.999Z</time></trkpt><trkpt lat="50.90959473351212" lon="4.896881672793326"><ele>58.33333333333333</ele><time>2026-04-23T15:40:41.999Z</time></trkpt><trkpt lat="50.90964789499997" lon="4.897142417900245"><ele>58.66666666666667</ele><time>2026-04-23T15:40:42.999Z</time></trkpt><trkpt lat="50.909697603956715" lon="4.8974010991550605"><ele>59.0</ele><time>2026-04-23T15:40:43.999Z</time></trkpt><trkpt lat="50.909751123803815" lon="4.897663043156615"><ele>59.66666666666667</ele><time>2026-04-23T15:40:44.999Z</time></trkpt><trkpt lat="50.909807169510124" lon="4.897919101357066"><ele>60.33333333333333</ele><time>2026-04-23T15:40:45.999Z</time></trkpt><trkpt lat="50.909863781826274" lon="4.898179349766603"><ele>61.0</ele><time>2026-04-23T15:40:46.999Z</time></trkpt><trkpt lat="50.90991921500581" lon="4.898432071907836"><ele>62.33333333333333</ele><time>2026-04-23T15:40:48Z</time></trkpt><trkpt lat="50.90997071472768" lon="4.898689604302303"><ele>63.66666666666667</ele><time>2026-04-23T15:40:49Z</time></trkpt><trkpt lat="50.91002195616499" lon="4.898951193929997"><ele>65.0</ele><time>2026-04-23T15:40:50Z</time></trkpt><trkpt lat="50.910074331713226" lon="4.89920698152453"><ele>65.66666666666667</ele><time>2026-04-23T15:40:51Z</time></trkpt><trkpt lat="50.91011780313511" lon="4.899469824284206"><ele>66.33333333333333</ele><time>2026-04-23T15:40:52Z</time></trkpt><trkpt lat="50.91014640269074" lon="4.899741675197677"><ele>67.0</ele><time>2026-04-23T15:40:53Z</time></trkpt><trkpt lat="50.910157294131494" lon="4.900013358753984"><ele>67.33333333333333</ele><time>2026-04-23T15:40:54Z</time></trkpt><trkpt lat="50.91015769810582" lon="4.900291603848223"><ele>67.66666666666667</ele><time>2026-04-23T15:40:55Z</time></trkpt><trkpt lat="50.91014417407282" lon="4.9005714515113805"><ele>68.0</ele><time>2026-04-23T15:40:56Z</time></trkpt><trkpt lat="50.9101227502808" lon="4.900843190483417"><ele>69.0</ele><time>2026-04-23T15:40:57Z</time></trkpt><trkpt lat="50.910112265783475" lon="4.901129379280878"><ele>70.0</ele><time>2026-04-23T15:40:58Z</time></trkpt><trkpt lat="50.91012249602058" lon="4.901408384634594"><ele>71.0</ele><time>2026-04-23T15:40:59Z</time></trkpt><trkpt lat="50.91016338939976" lon="4.901678912428059"><ele>71.66666666666667</ele><time>2026-04-23T15:41:00Z</time></trkpt><trkpt lat="50.91024211651189" lon="4.9019398774391245"><ele>72.33333333333333</ele><time>2026-04-23T15:41:01Z</time></trkpt><trkpt lat="50.91033456674226" lon="4.902195089330687"><ele>73.0</ele><time>2026-04-23T15:41:02Z</time></trkpt><trkpt lat="50.91043657928428" lon="4.902424428566268"><ele>73.33333333333333</ele><time>2026-04-23T15:41:03Z</time></trkpt><trkpt lat="50.910564440915856" lon="4.902622632670415"><ele>73.66666666666667</ele><time>2026-04-23T15:41:04Z</time></trkpt><trkpt lat="50.910714823327645" lon="4.902807131397617"><ele>74.0</ele><time>2026-04-23T15:41:05Z</time></trkpt><trkpt lat="50.91085877416517" lon="4.902975662541277"><ele>74.0</ele><time>2026-04-23T15:41:06Z</time></trkpt><trkpt lat="50.91099760691645" lon="4.90314889857119"><ele>74.0</ele><time>2026-04-23T15:41:07Z</time></trkpt><trkpt lat="50.91113655694047" lon="4.9033298070106195"><ele>74.0</ele><time>2026-04-23T15:41:08Z</time></trkpt><trkpt lat="50.91127220487216" lon="4.903504701946999"><ele>74.66666666666667</ele><time>2026-04-23T15:41:09Z</time></trkpt><trkpt lat="50.91140717787992" lon="4.903674727993199"><ele>75.33333333333333</ele><time>2026-04-23T15:41:10Z</time></trkpt><trkpt lat="50.911542216475965" lon="4.903845668422649"><ele>76.0</ele><time>2026-04-23T15:41:11Z</time></trkpt><trkpt lat="50.91167624139311" lon="4.904015549630107"><ele>76.0</ele><time>2026-04-23T15:41:12Z</time></trkpt><trkpt lat="50.91181045449643" lon="4.904189185908833"><ele>76.0</ele><time>2026-04-23T15:41:13Z</time></trkpt><trkpt lat="50.91193710428891" lon="4.904366390717121"><ele>76.0</ele><time>2026-04-23T15:41:14Z</time></trkpt><trkpt lat="50.91205681263865" lon="4.9045609001008765"><ele>76.0</ele><time>2026-04-23T15:41:15Z</time></trkpt><trkpt lat="50.91213153903761" lon="4.904778224173414"><ele>76.0</ele><time>2026-04-23T15:41:16Z</time></trkpt><trkpt lat="50.91219131075661" lon="4.904985080636353"><ele>76.0</ele><time>2026-04-23T15:41:17Z</time></trkpt><trkpt lat="50.91223471970909" lon="4.905186753046022"><ele>76.0</ele><time>2026-04-23T15:41:18Z</time></trkpt><trkpt lat="50.912281334965954" lon="4.905381445142406"><ele>75.75</ele><time>2026-04-23T15:41:19Z</time></trkpt><trkpt lat="50.91230293266512" lon="4.90557608463575"><ele>75.5</ele><time>2026-04-23T15:41:20Z</time></trkpt><trkpt lat="50.91232716756863" lon="4.9057643566270315"><ele>75.25</ele><time>2026-04-23T15:41:21Z</time></trkpt><trkpt lat="50.912354396313106" lon="4.905957381242542"><ele>75.0</ele><time>2026-04-23T15:41:22Z</time></trkpt><trkpt lat="50.912387607056544" lon="4.906161892196826"><ele>75.0</ele><time>2026-04-23T15:41:23Z</time></trkpt><trkpt lat="50.912420675104" lon="4.9063640915176485"><ele>75.0</ele><time>2026-04-23T15:41:24Z</time></trkpt><trkpt lat="50.91245111149541" lon="4.906572841610485"><ele>75.0</ele><time>2026-04-23T15:41:25Z</time></trkpt><trkpt lat="50.9124988573295" lon="4.906777412599857"><ele>75.0</ele><time>2026-04-23T15:41:26Z</time></trkpt><trkpt lat="50.91255914312957" lon="4.906966799667733"><ele>74.25</ele><time>2026-04-23T15:41:27Z</time></trkpt><trkpt lat="50.91262454758945" lon="4.907158962199219"><ele>73.5</ele><time>2026-04-23T15:41:28Z</time></trkpt><trkpt lat="50.91269921994212" lon="4.90734342584013"><ele>72.75</ele><time>2026-04-23T15:41:29Z</time></trkpt><trkpt lat="50.912778917879535" lon="4.907525977452253"><ele>72.0</ele><time>2026-04-23T15:41:30Z</time></trkpt><trkpt lat="50.912859218992665" lon="4.907704920007374"><ele>71.75</ele><time>2026-04-23T15:41:31Z</time></trkpt><trkpt lat="50.912935422134815" lon="4.907884091244387"><ele>71.5</ele><time>2026-04-23T15:41:32Z</time></trkpt><trkpt lat="50.913014668628044" lon="4.908072786197751"><ele>71.25</ele><time>2026-04-23T15:41:33Z</time></trkpt><trkpt lat="50.913089233328655" lon="4.908267381923534"><ele>71.0</ele><time>2026-04-23T15:41:34Z</time></trkpt><trkpt lat="50.913154308391505" lon="4.908471882883844"><ele>71.0</ele><time>2026-04-23T15:41:35Z</time></trkpt><trkpt lat="50.91321323835008" lon="4.908680616667912"><ele>71.0</ele><time>2026-04-23T15:41:36Z</time></trkpt><trkpt lat="50.91326478759316" lon="4.90890183321023"><ele>71.0</ele><time>2026-04-23T15:41:37Z</time></trkpt><trkpt lat="50.91330458138643" lon="4.909128025657319"><ele>71.0</ele><time>2026-04-23T15:41:38Z</time></trkpt><trkpt lat="50.913337261735336" lon="4.90936604320039"><ele>70.33333333333334</ele><time>2026-04-23T15:41:39Z</time></trkpt><trkpt lat="50.913361893127714" lon="4.90960245338579"><ele>69.66666666666667</ele><time>2026-04-23T15:41:40Z</time></trkpt><trkpt lat="50.91338292093785" lon="4.909845420323595"><ele>69.0</ele><time>2026-04-23T15:41:41Z</time></trkpt><trkpt lat="50.913400114910615" lon="4.9100909462541775"><ele>68.66666666666667</ele><time>2026-04-23T15:41:42Z</time></trkpt><trkpt lat="50.913407503538025" lon="4.9103376401189935"><ele>68.33333333333334</ele><time>2026-04-23T15:41:43Z</time></trkpt><trkpt lat="50.91340388857913" lon="4.910578394577799"><ele>68.0</ele><time>2026-04-23T15:41:44Z</time></trkpt><trkpt lat="50.9133970381661" lon="4.910811912613531"><ele>67.66666666666667</ele><time>2026-04-23T15:41:45Z</time></trkpt><trkpt lat="50.91339186138546" lon="4.911050510460154"><ele>67.33333333333333</ele><time>2026-04-23T15:41:46Z</time></trkpt><trkpt lat="50.913390344495085" lon="4.911289509042089"><ele>67.0</ele><time>2026-04-23T15:41:47Z</time></trkpt><trkpt lat="50.91338931697988" lon="4.911533105664638"><ele>67.0</ele><time>2026-04-23T15:41:48Z</time></trkpt><trkpt lat="50.91338892430388" lon="4.9117738550394465"><ele>67.0</ele><time>2026-04-23T15:41:49Z</time></trkpt><trkpt lat="50.913387068403146" lon="4.912013529142566"><ele>67.0</ele><time>2026-04-23T15:41:50Z</time></trkpt><trkpt lat="50.91338445134589" lon="4.912253710686633"><ele>67.0</ele><time>2026-04-23T15:41:51Z</time></trkpt><trkpt lat="50.91338206798863" lon="4.912489063414361"><ele>67.0</ele><time>2026-04-23T15:41:52Z</time></trkpt><trkpt lat="50.91337975264743" lon="4.91272883164158"><ele>67.0</ele><time>2026-04-23T15:41:53Z</time></trkpt><trkpt lat="50.913377870363696" lon="4.912938746846755"><ele>67.0</ele><time>2026-04-23T15:41:54Z</time></trkpt><trkpt lat="50.91337371599705" lon="4.91312890986259"><ele>67.0</ele><time>2026-04-23T15:41:55Z</time></trkpt><trkpt lat="50.913370389391226" lon="4.913305900621972"><ele>67.0</ele><time>2026-04-23T15:41:56Z</time></trkpt><trkpt lat="50.91336810660738" lon="4.913458243806361"><ele>67.0</ele><time>2026-04-23T15:41:57Z</time></trkpt><trkpt lat="50.913367673586315" lon="4.913615547418793"><ele>67.0</ele><time>2026-04-23T15:41:58Z</time></trkpt><trkpt lat="50.913369389943284" lon="4.913758828419855"><ele>67.0</ele><time>2026-04-23T15:41:59Z</time></trkpt><trkpt lat="50.91337066695215" lon="4.9138964018821"><ele>67.0</ele><time>2026-04-23T15:42:00Z</time></trkpt><trkpt lat="50.913368425779495" lon="4.914005763283189"><ele>67.0</ele><time>2026-04-23T15:42:00.999Z</time></trkpt><trkpt lat="50.91334208939732" lon="4.914182827911043"><ele>67.0</ele><time>2026-04-23T15:42:02.999Z</time></trkpt><trkpt lat="50.913205391812674" lon="4.914130762741881"><ele>67.0</ele><time>2026-04-23T15:42:04.999Z</time></trkpt><trkpt lat="50.91311403728704" lon="4.914121146481535"><ele>67.0</ele><time>2026-04-23T15:42:05.999Z</time></trkpt><trkpt lat="50.913011782814095" lon="4.914110382850929"><ele>67.0</ele><time>2026-04-23T15:42:06.999Z</time></trkpt><trkpt lat="50.912897103091765" lon="4.914098314439085"><ele>67.0</ele><time>2026-04-23T15:42:07.999Z</time></trkpt><trkpt lat="50.91276932973239" lon="4.914084869478093"><ele>67.0</ele><time>2026-04-23T15:42:08.999Z</time></trkpt><trkpt lat="50.91263040838807" lon="4.914070251471177"><ele>67.0</ele><time>2026-04-23T15:42:09.999Z</time></trkpt><trkpt lat="50.91248174014161" lon="4.914054607854345"><ele>67.33333333333333</ele><time>2026-04-23T15:42:10.999Z</time></trkpt><trkpt lat="50.912328894632466" lon="4.914038524677411"><ele>67.66666666666667</ele><time>2026-04-23T15:42:11.999Z</time></trkpt><trkpt lat="50.912171298061494" lon="4.91402194157388"><ele>68.0</ele><time>2026-04-23T15:42:12.999Z</time></trkpt><trkpt lat="50.91200833108258" lon="4.9140037432713966"><ele>68.0</ele><time>2026-04-23T15:42:13.999Z</time></trkpt><trkpt lat="50.91183193181478" lon="4.9139845640416215"><ele>68.0</ele><time>2026-04-23T15:42:14.999Z</time></trkpt><trkpt lat="50.911658803372966" lon="4.913967323509478"><ele>68.0</ele><time>2026-04-23T15:42:15.999Z</time></trkpt><trkpt lat="50.911495971264834" lon="4.913951474180174"><ele>68.0</ele><time>2026-04-23T15:42:16.999Z</time></trkpt><trkpt lat="50.91136729068757" lon="4.913938949003754"><ele>68.0</ele><time>2026-04-23T15:42:17.999Z</time></trkpt><trkpt lat="50.91124837489928" lon="4.913925671087118"><ele>68.0</ele><time>2026-04-23T15:42:18.999Z</time></trkpt><trkpt lat="50.91114562747406" lon="4.91391493544367"><ele>68.0</ele><time>2026-04-23T15:42:19.999Z</time></trkpt><trkpt lat="50.911047664543425" lon="4.9139254535789245"><ele>68.0</ele><time>2026-04-23T15:42:20.999Z</time></trkpt><trkpt lat="50.91095228539861" lon="4.913910487880095"><ele>67.66666666666667</ele><time>2026-04-23T15:42:21.999Z</time></trkpt><trkpt lat="50.910871877822174" lon="4.913899741025248"><ele>67.33333333333334</ele><time>2026-04-23T15:42:22.999Z</time></trkpt><trkpt lat="50.91079132308595" lon="4.913886077981636"><ele>67.0</ele><time>2026-04-23T15:42:23.999Z</time></trkpt><trkpt lat="50.91070417369588" lon="4.913879822625598"><ele>66.66666666666667</ele><time>2026-04-23T15:42:24.999Z</time></trkpt><trkpt lat="50.91061906054839" lon="4.9138638322589445"><ele>66.33333333333333</ele><time>2026-04-23T15:42:25.999Z</time></trkpt><trkpt lat="50.910538079692756" lon="4.913862426150441"><ele>66.0</ele><time>2026-04-23T15:42:26.999Z</time></trkpt><trkpt lat="50.9104523698325" lon="4.913825309467563"><ele>66.0</ele><time>2026-04-23T15:42:27.999Z</time></trkpt><trkpt lat="50.91036639768418" lon="4.91381460083352"><ele>66.0</ele><time>2026-04-23T15:42:28.999Z</time></trkpt><trkpt lat="50.91027181538027" lon="4.913828733627754"><ele>66.0</ele><time>2026-04-23T15:42:29.999Z</time></trkpt><trkpt lat="50.91014814758362" lon="4.913787818694085"><ele>66.0</ele><time>2026-04-23T15:42:30.999Z</time></trkpt><trkpt lat="50.910027219736946" lon="4.91377297926727"><ele>66.0</ele><time>2026-04-23T15:42:31.999Z</time></trkpt><trkpt lat="50.90988952079172" lon="4.913755982188295"><ele>65.0</ele><time>2026-04-23T15:42:32.999Z</time></trkpt><trkpt lat="50.90974259504518" lon="4.91376266128377"><ele>64.0</ele><time>2026-04-23T15:42:33.999Z</time></trkpt><trkpt lat="50.90959409350556" lon="4.913720149912887"><ele>63.0</ele><time>2026-04-23T15:42:34.999Z</time></trkpt><trkpt lat="50.90943685404944" lon="4.913701438880269"><ele>63.0</ele><time>2026-04-23T15:42:35.999Z</time></trkpt><trkpt lat="50.909280165023986" lon="4.913682793338288"><ele>63.0</ele><time>2026-04-23T15:42:36.999Z</time></trkpt><trkpt lat="50.9091122891395" lon="4.913660871450381"><ele>63.0</ele><time>2026-04-23T15:42:37.999Z</time></trkpt><trkpt lat="50.90893668572527" lon="4.913636492172801"><ele>62.0</ele><time>2026-04-23T15:42:38.999Z</time></trkpt><trkpt lat="50.90875637664419" lon="4.913613223834256"><ele>61.0</ele><time>2026-04-23T15:42:39.999Z</time></trkpt><trkpt lat="50.90859532636085" lon="4.913593911264325"><ele>60.0</ele><time>2026-04-23T15:42:40.999Z</time></trkpt><trkpt lat="50.908442222356335" lon="4.913575446379999"><ele>59.5</ele><time>2026-04-23T15:42:41.999Z</time></trkpt><trkpt lat="50.90830407463806" lon="4.913584782295303"><ele>59.0</ele><time>2026-04-23T15:42:42.999Z</time></trkpt><trkpt lat="50.90817496366654" lon="4.9135701450053455"><ele>58.5</ele><time>2026-04-23T15:42:43.999Z</time></trkpt><trkpt lat="50.908053713342284" lon="4.913529553293239"><ele>58.0</ele><time>2026-04-23T15:42:44.999Z</time></trkpt><trkpt lat="50.90794492951813" lon="4.913516404494765"><ele>58.0</ele><time>2026-04-23T15:42:45.999Z</time></trkpt><trkpt lat="50.90784898685969" lon="4.913525986817023"><ele>58.0</ele><time>2026-04-23T15:42:46.999Z</time></trkpt><trkpt lat="50.90775949255923" lon="4.913490615625963"><ele>58.0</ele><time>2026-04-23T15:42:47.999Z</time></trkpt><trkpt lat="50.90768609777333" lon="4.913481543650733"><ele>58.0</ele><time>2026-04-23T15:42:48.999Z</time></trkpt><trkpt lat="50.907570033323886" lon="4.91346719748616"><ele>58.0</ele><time>2026-04-23T15:42:50.999Z</time></trkpt><trkpt lat="50.90748620634041" lon="4.913471168007387"><ele>57.99999999999999</ele><time>2026-04-23T15:42:53.001Z</time></trkpt><trkpt lat="50.907421778552695" lon="4.913472597067423"><ele>58.0</ele><time>2026-04-23T15:42:55.001Z</time></trkpt><trkpt lat="50.9073522653615" lon="4.913440280243128"><ele>58.0</ele><time>2026-04-23T15:42:57.001Z</time></trkpt><trkpt lat="50.9073198218474" lon="4.913645985280106"><ele>58.0</ele><time>2026-04-23T15:42:59.001Z</time></trkpt><trkpt lat="50.90731489792095" lon="4.913770340597998"><ele>57.99999999999999</ele><time>2026-04-23T15:43:00.001Z</time></trkpt><trkpt lat="50.90732032879325" lon="4.9139142800585205"><ele>58.0</ele><time>2026-04-23T15:43:01.001Z</time></trkpt><trkpt lat="50.90732643097976" lon="4.914072576181867"><ele>58.25</ele><time>2026-04-23T15:43:02.001Z</time></trkpt><trkpt lat="50.90733234443738" lon="4.914243208584017"><ele>58.5</ele><time>2026-04-23T15:43:03.001Z</time></trkpt><trkpt lat="50.907339156367755" lon="4.914434748343948"><ele>58.75</ele><time>2026-04-23T15:43:04.001Z</time></trkpt><trkpt lat="50.907346624654316" lon="4.914646227488096"><ele>59.0</ele><time>2026-04-23T15:43:05.001Z</time></trkpt><trkpt lat="50.90735433797756" lon="4.914869340845948"><ele>59.25</ele><time>2026-04-23T15:43:06.001Z</time></trkpt><trkpt lat="50.90736193097082" lon="4.915094000187547"><ele>59.5</ele><time>2026-04-23T15:43:07.001Z</time></trkpt><trkpt lat="50.90736978640459" lon="4.915326424551329"><ele>59.75</ele><time>2026-04-23T15:43:08.001Z</time></trkpt><trkpt lat="50.907378522100494" lon="4.915565642019767"><ele>60.0</ele><time>2026-04-23T15:43:09.001Z</time></trkpt><trkpt lat="50.90740353768644" lon="4.9158054833434655"><ele>60.0</ele><time>2026-04-23T15:43:10.001Z</time></trkpt><trkpt lat="50.90741334812896" lon="4.916060349093601"><ele>60.0</ele><time>2026-04-23T15:43:11.001Z</time></trkpt><trkpt lat="50.90742206174631" lon="4.916315965480755"><ele>60.0</ele><time>2026-04-23T15:43:12.001Z</time></trkpt><trkpt lat="50.90743504267718" lon="4.916584083018556"><ele>60.0</ele><time>2026-04-23T15:43:13.001Z</time></trkpt><trkpt lat="50.90744389950687" lon="4.916835105246796"><ele>60.0</ele><time>2026-04-23T15:43:14Z</time></trkpt><trkpt lat="50.90744888578719" lon="4.917072079105236"><ele>60.0</ele><time>2026-04-23T15:43:15Z</time></trkpt><trkpt lat="50.90745804902617" lon="4.917283794750749"><ele>60.0</ele><time>2026-04-23T15:43:16Z</time></trkpt><trkpt lat="50.90746702881894" lon="4.917476595756367"><ele>60.5</ele><time>2026-04-23T15:43:17Z</time></trkpt><trkpt lat="50.90748492896342" lon="4.917671902371359"><ele>61.0</ele><time>2026-04-23T15:43:18Z</time></trkpt><trkpt lat="50.90753020205916" lon="4.917870926396536"><ele>61.5</ele><time>2026-04-23T15:43:19Z</time></trkpt><trkpt lat="50.90759554279834" lon="4.918063705039533"><ele>62.0</ele><time>2026-04-23T15:43:20Z</time></trkpt><trkpt lat="50.90766574636908" lon="4.9182570259583365"><ele>62.25</ele><time>2026-04-23T15:43:21Z</time></trkpt><trkpt lat="50.90773010568614" lon="4.918432224764136"><ele>62.5</ele><time>2026-04-23T15:43:22Z</time></trkpt><trkpt lat="50.907780167627365" lon="4.918586031183654"><ele>62.75</ele><time>2026-04-23T15:43:23Z</time></trkpt><trkpt lat="50.907829625937666" lon="4.918735470911279"><ele>63.0</ele><time>2026-04-23T15:43:24Z</time></trkpt><trkpt lat="50.907882306522566" lon="4.918898778360634"><ele>63.0</ele><time>2026-04-23T15:43:25Z</time></trkpt><trkpt lat="50.90793882367354" lon="4.919055740264608"><ele>63.0</ele><time>2026-04-23T15:43:26Z</time></trkpt><trkpt lat="50.907987115531895" lon="4.919200650291504"><ele>63.0</ele><time>2026-04-23T15:43:27Z</time></trkpt><trkpt lat="50.90802302632865" lon="4.919308029244377"><ele>63.0</ele><time>2026-04-23T15:43:28Z</time></trkpt><trkpt lat="50.90807470779715" lon="4.9194597980908075"><ele>63.0</ele><time>2026-04-23T15:43:30Z</time></trkpt><trkpt lat="50.908103285383156" lon="4.919554622944706"><ele>63.0</ele><time>2026-04-23T15:43:33Z</time></trkpt><trkpt lat="50.90814349493135" lon="4.919637832837738"><ele>63.0</ele><time>2026-04-23T15:43:35Z</time></trkpt><trkpt lat="50.90821203681605" lon="4.919848946333798"><ele>63.0</ele><time>2026-04-23T15:43:37Z</time></trkpt><trkpt lat="50.908276899442725" lon="4.919968528645535"><ele>63.0</ele><time>2026-04-23T15:43:38Z</time></trkpt><trkpt lat="50.90831179974649" lon="4.920112800931282"><ele>63.0</ele><time>2026-04-23T15:43:39Z</time></trkpt><trkpt lat="50.908352101632246" lon="4.920250342864206"><ele>63.0</ele><time>2026-04-23T15:43:40Z</time></trkpt><trkpt lat="50.90840149735281" lon="4.920407733752829"><ele>63.0</ele><time>2026-04-23T15:43:41Z</time></trkpt><trkpt lat="50.908450483107906" lon="4.920566138947276"><ele>63.0</ele><time>2026-04-23T15:43:42Z</time></trkpt><trkpt lat="50.90850284230771" lon="4.920728639069431"><ele>63.0</ele><time>2026-04-23T15:43:43Z</time></trkpt><trkpt lat="50.90856011382136" lon="4.9208879553037095"><ele>63.0</ele><time>2026-04-23T15:43:44Z</time></trkpt><trkpt lat="50.9086186169781" lon="4.921051420814536"><ele>63.0</ele><time>2026-04-23T15:43:45Z</time></trkpt><trkpt lat="50.908673904833584" lon="4.921209745903167"><ele>63.0</ele><time>2026-04-23T15:43:46Z</time></trkpt><trkpt lat="50.90872092228168" lon="4.921366416354614"><ele>63.0</ele><time>2026-04-23T15:43:47Z</time></trkpt><trkpt lat="50.90877230726928" lon="4.921507285969653"><ele>63.0</ele><time>2026-04-23T15:43:48Z</time></trkpt><trkpt lat="50.90882569852959" lon="4.921659201282275"><ele>63.0</ele><time>2026-04-23T15:43:49Z</time></trkpt><trkpt lat="50.90887466127843" lon="4.9218095685950125"><ele>63.0</ele><time>2026-04-23T15:43:50Z</time></trkpt><trkpt lat="50.908926336237606" lon="4.921968505308947"><ele>63.0</ele><time>2026-04-23T15:43:51Z</time></trkpt><trkpt lat="50.908975890062045" lon="4.922123412443279"><ele>63.0</ele><time>2026-04-23T15:43:52Z</time></trkpt><trkpt lat="50.909020623982876" lon="4.922271613599377"><ele>63.0</ele><time>2026-04-23T15:43:53Z</time></trkpt><trkpt lat="50.9090609218856" lon="4.922409293847687"><ele>63.0</ele><time>2026-04-23T15:43:54Z</time></trkpt><trkpt lat="50.90910828317882" lon="4.922566717266021"><ele>63.0</ele><time>2026-04-23T15:43:55Z</time></trkpt><trkpt lat="50.9091565551043" lon="4.922708195279889"><ele>63.0</ele><time>2026-04-23T15:43:56Z</time></trkpt><trkpt lat="50.909210092212405" lon="4.922866020730724"><ele>63.0</ele><time>2026-04-23T15:43:57Z</time></trkpt><trkpt lat="50.90926054200971" lon="4.923020199502199"><ele>63.0</ele><time>2026-04-23T15:43:58Z</time></trkpt><trkpt lat="50.90931579375394" lon="4.9231858028583195"><ele>63.0</ele><time>2026-04-23T15:43:59Z</time></trkpt><trkpt lat="50.90935944597878" lon="4.923339016670684"><ele>63.0</ele><time>2026-04-23T15:44:00Z</time></trkpt><trkpt lat="50.90941605453433" lon="4.923502624418203"><ele>63.0</ele><time>2026-04-23T15:44:01Z</time></trkpt><trkpt lat="50.90947286445363" lon="4.923663492280864"><ele>63.0</ele><time>2026-04-23T15:44:02Z</time></trkpt><trkpt lat="50.90952158825564" lon="4.923811757347458"><ele>63.0</ele><time>2026-04-23T15:44:03Z</time></trkpt><trkpt lat="50.909573299837156" lon="4.923965298305596"><ele>62.8</ele><time>2026-04-23T15:44:04Z</time></trkpt><trkpt lat="50.90962466886652" lon="4.924114646569088"><ele>62.599999999999994</ele><time>2026-04-23T15:44:05Z</time></trkpt><trkpt lat="50.9096718390451" lon="4.924259717857213"><ele>62.400000000000006</ele><time>2026-04-23T15:44:06Z</time></trkpt><trkpt lat="50.90971848158772" lon="4.924404314613768"><ele>62.2</ele><time>2026-04-23T15:44:07Z</time></trkpt><trkpt lat="50.90977126110988" lon="4.924561502902806"><ele>62.0</ele><time>2026-04-23T15:44:08Z</time></trkpt><trkpt lat="50.90981173367308" lon="4.924689309852218"><ele>62.0</ele><time>2026-04-23T15:44:09Z</time></trkpt><trkpt lat="50.90984677073333" lon="4.924790951331512"><ele>62.0</ele><time>2026-04-23T15:44:10Z</time></trkpt><trkpt lat="50.90990017712185" lon="4.924960112698893"><ele>62.0</ele><time>2026-04-23T15:44:12Z</time></trkpt><trkpt lat="50.909981730100675" lon="4.925048456783439"><ele>62.0</ele><time>2026-04-23T15:44:13.999Z</time></trkpt><trkpt lat="50.91005244638502" lon="4.925039763162"><ele>62.0</ele><time>2026-04-23T15:44:14.999Z</time></trkpt><trkpt lat="50.91013887376969" lon="4.9250102190990175"><ele>62.2</ele><time>2026-04-23T15:44:15.999Z</time></trkpt><trkpt lat="50.91022964291115" lon="4.924962012249312"><ele>62.400000000000006</ele><time>2026-04-23T15:44:16.999Z</time></trkpt><trkpt lat="50.91031479020293" lon="4.9249348256058605"><ele>62.599999999999994</ele><time>2026-04-23T15:44:17.999Z</time></trkpt><trkpt lat="50.9104119509665" lon="4.924899137274876"><ele>62.8</ele><time>2026-04-23T15:44:18.999Z</time></trkpt><trkpt lat="50.91050117682821" lon="4.924869349222255"><ele>63.0</ele><time>2026-04-23T15:44:19.999Z</time></trkpt><trkpt lat="50.91058536307317" lon="4.924836992368801"><ele>63.0</ele><time>2026-04-23T15:44:20.999Z</time></trkpt><trkpt lat="50.91065851964034" lon="4.924801532580254"><ele>63.0</ele><time>2026-04-23T15:44:21.999Z</time></trkpt><trkpt lat="50.91072651947718" lon="4.924777305126961"><ele>63.0</ele><time>2026-04-23T15:44:22.999Z</time></trkpt><trkpt lat="50.91079698458379" lon="4.92480305918748"><ele>63.0</ele><time>2026-04-23T15:44:23.999Z</time></trkpt><trkpt lat="50.91089177455936" lon="4.925100588046845"><ele>63.0</ele><time>2026-04-23T15:44:29.999Z</time></trkpt><trkpt lat="50.91090280288249" lon="4.925242664043238"><ele>62.8</ele><time>2026-04-23T15:44:30.999Z</time></trkpt><trkpt lat="50.91091534428117" lon="4.925397853696591"><ele>62.599999999999994</ele><time>2026-04-23T15:44:31.999Z</time></trkpt><trkpt lat="50.91092706013644" lon="4.925553348256356"><ele>62.400000000000006</ele><time>2026-04-23T15:44:32.999Z</time></trkpt><trkpt lat="50.91093838430729" lon="4.925711555838461"><ele>62.2</ele><time>2026-04-23T15:44:33.999Z</time></trkpt><trkpt lat="50.9109515984016" lon="4.9258654777487285"><ele>62.0</ele><time>2026-04-23T15:44:34.999Z</time></trkpt><trkpt lat="50.91096289511601" lon="4.926028164351534"><ele>62.0</ele><time>2026-04-23T15:44:35.999Z</time></trkpt><trkpt lat="50.910982911918104" lon="4.926197732175798"><ele>62.0</ele><time>2026-04-23T15:44:36.999Z</time></trkpt><trkpt lat="50.91100485374547" lon="4.926363464896761"><ele>62.0</ele><time>2026-04-23T15:44:37.999Z</time></trkpt><trkpt lat="50.911026160475984" lon="4.926548247890427"><ele>62.0</ele><time>2026-04-23T15:44:38.999Z</time></trkpt><trkpt lat="50.911043837756615" lon="4.926726414108129"><ele>62.0</ele><time>2026-04-23T15:44:39.999Z</time></trkpt><trkpt lat="50.91106514154341" lon="4.926907931525156"><ele>61.8</ele><time>2026-04-23T15:44:40.999Z</time></trkpt><trkpt lat="50.911088025308125" lon="4.927080217857037"><ele>61.6</ele><time>2026-04-23T15:44:41.999Z</time></trkpt><trkpt lat="50.91110662574384" lon="4.927237748998678"><ele>61.39999999999999</ele><time>2026-04-23T15:44:42.999Z</time></trkpt><trkpt lat="50.911128902917305" lon="4.92739397148682"><ele>61.199999999999996</ele><time>2026-04-23T15:44:43.999Z</time></trkpt><trkpt lat="50.9111506029657" lon="4.927568713167448"><ele>61.0</ele><time>2026-04-23T15:44:44.999Z</time></trkpt><trkpt lat="50.91117721330558" lon="4.927752101034973"><ele>60.8</ele><time>2026-04-23T15:44:45.999Z</time></trkpt><trkpt lat="50.911205503656134" lon="4.927928742145333"><ele>60.599999999999994</ele><time>2026-04-23T15:44:46.999Z</time></trkpt><trkpt lat="50.91123197504551" lon="4.928106884769411"><ele>60.4</ele><time>2026-04-23T15:44:47.999Z</time></trkpt><trkpt lat="50.911252764160956" lon="4.928265495738936"><ele>60.2</ele><time>2026-04-23T15:44:48.999Z</time></trkpt><trkpt lat="50.91127982871812" lon="4.928432998416026"><ele>60.0</ele><time>2026-04-23T15:44:49.999Z</time></trkpt><trkpt lat="50.91131122670776" lon="4.9286197980466095"><ele>60.0</ele><time>2026-04-23T15:44:50.999Z</time></trkpt><trkpt lat="50.911340478916735" lon="4.928805925475567"><ele>60.0</ele><time>2026-04-23T15:44:51.999Z</time></trkpt><trkpt lat="50.91136989715178" lon="4.9289947171426425"><ele>60.0</ele><time>2026-04-23T15:44:52.999Z</time></trkpt><trkpt lat="50.91139898845856" lon="4.929202869690974"><ele>60.0</ele><time>2026-04-23T15:44:53.999Z</time></trkpt><trkpt lat="50.91143842177657" lon="4.9294306659634755"><ele>60.5</ele><time>2026-04-23T15:44:54.999Z</time></trkpt><trkpt lat="50.91145454192177" lon="4.929567253072194"><ele>61.0</ele><time>2026-04-23T15:44:55.999Z</time></trkpt><trkpt lat="50.91148524219592" lon="4.929753009154996"><ele>61.5</ele><time>2026-04-23T15:44:56.999Z</time></trkpt><trkpt lat="50.91152211865776" lon="4.929939639270955"><ele>62.0</ele><time>2026-04-23T15:44:58.001Z</time></trkpt><trkpt lat="50.91156304364039" lon="4.930125211119271"><ele>62.75</ele><time>2026-04-23T15:44:59.001Z</time></trkpt><trkpt lat="50.91159761280787" lon="4.9303040989286515"><ele>63.5</ele><time>2026-04-23T15:45:00.001Z</time></trkpt><trkpt lat="50.9116274495038" lon="4.930473605869812"><ele>64.25</ele><time>2026-04-23T15:45:01.001Z</time></trkpt><trkpt lat="50.91166176209286" lon="4.930651000527239"><ele>65.0</ele><time>2026-04-23T15:45:02.001Z</time></trkpt><trkpt lat="50.91169215333291" lon="4.930824912530472"><ele>65.75</ele><time>2026-04-23T15:45:03.001Z</time></trkpt><trkpt lat="50.911676416530355" lon="4.93097397329352"><ele>66.5</ele><time>2026-04-23T15:45:04.001Z</time></trkpt><trkpt lat="50.911745945915285" lon="4.931179216336206"><ele>67.25</ele><time>2026-04-23T15:45:05.001Z</time></trkpt><trkpt lat="50.911785178809666" lon="4.931368043039842"><ele>68.0</ele><time>2026-04-23T15:45:06.001Z</time></trkpt><trkpt lat="50.91182276559059" lon="4.931553481026557"><ele>69.25</ele><time>2026-04-23T15:45:07.001Z</time></trkpt><trkpt lat="50.9118522645491" lon="4.931733782614758"><ele>70.5</ele><time>2026-04-23T15:45:08.001Z</time></trkpt><trkpt lat="50.91188907812382" lon="4.9319094548746705"><ele>71.75</ele><time>2026-04-23T15:45:09.001Z</time></trkpt><trkpt lat="50.911927642634645" lon="4.932043378595583"><ele>73.0</ele><time>2026-04-23T15:45:10.001Z</time></trkpt><trkpt lat="50.91200854836553" lon="4.932223589646539"><ele>73.0</ele><time>2026-04-23T15:45:11.001Z</time></trkpt><trkpt lat="50.912122567059455" lon="4.932307549040559"><ele>73.0</ele><time>2026-04-23T15:45:12.001Z</time></trkpt><trkpt lat="50.91217326908308" lon="4.932493100869612"><ele>73.0</ele><time>2026-04-23T15:45:13.001Z</time></trkpt><trkpt lat="50.91217167465887" lon="4.932718474303307"><ele>73.0</ele><time>2026-04-23T15:45:14.001Z</time></trkpt><trkpt lat="50.91220863440773" lon="4.932899223126467"><ele>73.2</ele><time>2026-04-23T15:45:15.001Z</time></trkpt><trkpt lat="50.91224389412987" lon="4.933053503270827"><ele>73.4</ele><time>2026-04-23T15:45:16.001Z</time></trkpt><trkpt lat="50.91228669743607" lon="4.933171015426212"><ele>73.60000000000001</ele><time>2026-04-23T15:45:17Z</time></trkpt><trkpt lat="50.91233041750793" lon="4.933333070560418"><ele>73.8</ele><time>2026-04-23T15:45:18Z</time></trkpt><trkpt lat="50.912407557116886" lon="4.933483178069033"><ele>74.0</ele><time>2026-04-23T15:45:19Z</time></trkpt><trkpt lat="50.91247552838926" lon="4.933669044013406"><ele>74.0</ele><time>2026-04-23T15:45:20Z</time></trkpt><trkpt lat="50.912537988286104" lon="4.933830962833773"><ele>74.0</ele><time>2026-04-23T15:45:21Z</time></trkpt><trkpt lat="50.912603564747926" lon="4.933989888510601"><ele>74.0</ele><time>2026-04-23T15:45:22Z</time></trkpt><trkpt lat="50.91266561189914" lon="4.934160524526327"><ele>74.0</ele><time>2026-04-23T15:45:23Z</time></trkpt><trkpt lat="50.91272836362085" lon="4.934341424542992"><ele>74.0</ele><time>2026-04-23T15:45:24Z</time></trkpt><trkpt lat="50.912793390409256" lon="4.934527009047677"><ele>74.0</ele><time>2026-04-23T15:45:25Z</time></trkpt><trkpt lat="50.912856939308895" lon="4.934710790674061"><ele>74.0</ele><time>2026-04-23T15:45:26Z</time></trkpt><trkpt lat="50.91292287865436" lon="4.934902992309425"><ele>74.0</ele><time>2026-04-23T15:45:27Z</time></trkpt><trkpt lat="50.912987453598404" lon="4.935089516075205"><ele>74.0</ele><time>2026-04-23T15:45:28Z</time></trkpt><trkpt lat="50.913052615882386" lon="4.935275940353018"><ele>74.0</ele><time>2026-04-23T15:45:29Z</time></trkpt><trkpt lat="50.9131160961554" lon="4.935468134739885"><ele>74.0</ele><time>2026-04-23T15:45:30Z</time></trkpt><trkpt lat="50.91318228866446" lon="4.9356632674631635"><ele>74.0</ele><time>2026-04-23T15:45:31Z</time></trkpt><trkpt lat="50.91324633820273" lon="4.935854441869146"><ele>74.25</ele><time>2026-04-23T15:45:32Z</time></trkpt><trkpt lat="50.91331520548632" lon="4.936051940948679"><ele>74.5</ele><time>2026-04-23T15:45:33Z</time></trkpt><trkpt lat="50.91338022307799" lon="4.936249352072132"><ele>74.75</ele><time>2026-04-23T15:45:34Z</time></trkpt><trkpt lat="50.91344720975083" lon="4.936450845530552"><ele>75.0</ele><time>2026-04-23T15:45:35Z</time></trkpt><trkpt lat="50.91350791131316" lon="4.936644064851545"><ele>75.0</ele><time>2026-04-23T15:45:36Z</time></trkpt><trkpt lat="50.91356527497514" lon="4.936807381320916"><ele>75.0</ele><time>2026-04-23T15:45:37Z</time></trkpt><trkpt lat="50.91361720115313" lon="4.936966437014126"><ele>75.0</ele><time>2026-04-23T15:45:38Z</time></trkpt><trkpt lat="50.91367163134302" lon="4.9371309851236465"><ele>75.0</ele><time>2026-04-23T15:45:39Z</time></trkpt><trkpt lat="50.913721620902436" lon="4.937285066654375"><ele>75.0</ele><time>2026-04-23T15:45:40Z</time></trkpt><trkpt lat="50.91375465151487" lon="4.93738931268481"><ele>75.0</ele><time>2026-04-23T15:45:41Z</time></trkpt><trkpt lat="50.91378635583326" lon="4.937494146652493"><ele>75.0</ele><time>2026-04-23T15:45:42Z</time></trkpt><trkpt lat="50.91381181946054" lon="4.937675609790617"><ele>75.0</ele><time>2026-04-23T15:45:44Z</time></trkpt><trkpt lat="50.913741286296165" lon="4.937751692320711"><ele>75.0</ele><time>2026-04-23T15:45:46Z</time></trkpt><trkpt lat="50.91367738340999" lon="4.937788791989683"><ele>75.0</ele><time>2026-04-23T15:45:47Z</time></trkpt><trkpt lat="50.91359180186316" lon="4.9378043890619105"><ele>75.0</ele><time>2026-04-23T15:45:48Z</time></trkpt><trkpt lat="50.913501742909496" lon="4.937825855028994"><ele>75.0</ele><time>2026-04-23T15:45:49Z</time></trkpt><trkpt lat="50.91340594227087" lon="4.937858627791528"><ele>75.0</ele><time>2026-04-23T15:45:50Z</time></trkpt><trkpt lat="50.91332492579689" lon="4.937891495678231"><ele>75.0</ele><time>2026-04-23T15:45:51Z</time></trkpt><trkpt lat="50.913211100787485" lon="4.937940246860981"><ele>75.0</ele><time>2026-04-23T15:45:53Z</time></trkpt><trkpt lat="50.91310459248392" lon="4.937994336845622"><ele>75.2</ele><time>2026-04-23T15:45:55Z</time></trkpt><trkpt lat="50.91305926665334" lon="4.938134769404952"><ele>75.4</ele><time>2026-04-23T15:45:57Z</time></trkpt><trkpt lat="50.9130773408103" lon="4.938237773230422"><ele>75.6</ele><time>2026-04-23T15:45:58Z</time></trkpt><trkpt lat="50.91311689058679" lon="4.938355778305603"><ele>75.8</ele><time>2026-04-23T15:45:59Z</time></trkpt><trkpt lat="50.91316533012409" lon="4.938480113777007"><ele>76.0</ele><time>2026-04-23T15:46:00Z</time></trkpt><trkpt lat="50.913199789973696" lon="4.938655810001788"><ele>76.0</ele><time>2026-04-23T15:46:01Z</time></trkpt><trkpt lat="50.913244074633546" lon="4.9388904683719765"><ele>76.0</ele><time>2026-04-23T15:46:02Z</time></trkpt><trkpt lat="50.913296637257154" lon="4.939103990245722"><ele>76.0</ele><time>2026-04-23T15:46:03Z</time></trkpt><trkpt lat="50.91332137264955" lon="4.939247524234227"><ele>76.0</ele><time>2026-04-23T15:46:04Z</time></trkpt><trkpt lat="50.91334601790167" lon="4.939366942524996"><ele>75.5</ele><time>2026-04-23T15:46:05Z</time></trkpt><trkpt lat="50.91337026815472" lon="4.939479192664613"><ele>75.0</ele><time>2026-04-23T15:46:06Z</time></trkpt><trkpt lat="50.9133927773386" lon="4.939580061333971"><ele>74.5</ele><time>2026-04-23T15:46:07Z</time></trkpt><trkpt lat="50.9133618573468" lon="4.939683165236573"><ele>74.0</ele><time>2026-04-23T15:46:08Z</time></trkpt><trkpt lat="50.91338368670294" lon="4.93981318633645"><ele>73.5</ele><time>2026-04-23T15:46:11Z</time></trkpt><trkpt lat="50.91341936389741" lon="4.939948134189098"><ele>73.0</ele><time>2026-04-23T15:46:13Z</time></trkpt><trkpt lat="50.913436736130336" lon="4.940066020661895"><ele>72.2</ele><time>2026-04-23T15:46:14Z</time></trkpt><trkpt lat="50.913459934342924" lon="4.940208258721875"><ele>71.4</ele><time>2026-04-23T15:46:14.999Z</time></trkpt><trkpt lat="50.91348983225099" lon="4.940365448218954"><ele>70.60000000000001</ele><time>2026-04-23T15:46:15.999Z</time></trkpt><trkpt lat="50.913514614829325" lon="4.940530411297941"><ele>69.8</ele><time>2026-04-23T15:46:16.999Z</time></trkpt><trkpt lat="50.91353296507483" lon="4.940683878886152"><ele>69.0</ele><time>2026-04-23T15:46:17.999Z</time></trkpt><trkpt lat="50.913562032483405" lon="4.940836238461178"><ele>68.25</ele><time>2026-04-23T15:46:18.999Z</time></trkpt><trkpt lat="50.91358545962472" lon="4.940982396056362"><ele>67.5</ele><time>2026-04-23T15:46:19.999Z</time></trkpt><trkpt lat="50.91360956869944" lon="4.941146012607595"><ele>66.75</ele><time>2026-04-23T15:46:20.999Z</time></trkpt><trkpt lat="50.91364565527566" lon="4.941332959498698"><ele>66.0</ele><time>2026-04-23T15:46:21.999Z</time></trkpt><trkpt lat="50.91367790542992" lon="4.941526856974839"><ele>65.75</ele><time>2026-04-23T15:46:22.999Z</time></trkpt><trkpt lat="50.91371571964467" lon="4.94173034026924"><ele>65.5</ele><time>2026-04-23T15:46:23.999Z</time></trkpt><trkpt lat="50.91376404755163" lon="4.941915712047466"><ele>65.25</ele><time>2026-04-23T15:46:24.999Z</time></trkpt><trkpt lat="50.91379796254852" lon="4.942099504636225"><ele>65.0</ele><time>2026-04-23T15:46:25.999Z</time></trkpt><trkpt lat="50.91382762238253" lon="4.942257090321568"><ele>65.0</ele><time>2026-04-23T15:46:26.999Z</time></trkpt><trkpt lat="50.913836845158734" lon="4.942399162156373"><ele>65.0</ele><time>2026-04-23T15:46:27.999Z</time></trkpt><trkpt lat="50.91387332245524" lon="4.942521378678796"><ele>65.0</ele><time>2026-04-23T15:46:28.999Z</time></trkpt><trkpt lat="50.91388638231613" lon="4.9426752903327085"><ele>65.0</ele><time>2026-04-23T15:46:29.999Z</time></trkpt><trkpt lat="50.913937637881105" lon="4.9428288588653775"><ele>65.0</ele><time>2026-04-23T15:46:30.999Z</time></trkpt><trkpt lat="50.9139796103149" lon="4.942990773392929"><ele>64.75</ele><time>2026-04-23T15:46:31.999Z</time></trkpt><trkpt lat="50.91402153913166" lon="4.943155702408826"><ele>64.5</ele><time>2026-04-23T15:46:32.999Z</time></trkpt><trkpt lat="50.91406447187089" lon="4.943345051451251"><ele>64.25</ele><time>2026-04-23T15:46:33.999Z</time></trkpt><trkpt lat="50.91411314342587" lon="4.943558672649109"><ele>64.0</ele><time>2026-04-23T15:46:34.999Z</time></trkpt><trkpt lat="50.91417671879457" lon="4.94382404495896"><ele>63.666666666666664</ele><time>2026-04-23T15:46:35.999Z</time></trkpt><trkpt lat="50.914243211338224" lon="4.944097829637134"><ele>63.33333333333333</ele><time>2026-04-23T15:46:36.999Z</time></trkpt><trkpt lat="50.91429535486735" lon="4.944313528211656"><ele>63.0</ele><time>2026-04-23T15:46:37.999Z</time></trkpt><trkpt lat="50.914323601617866" lon="4.944507408804591"><ele>63.0</ele><time>2026-04-23T15:46:38.999Z</time></trkpt><trkpt lat="50.91436587358862" lon="4.944688730716056"><ele>63.0</ele><time>2026-04-23T15:46:39.999Z</time></trkpt><trkpt lat="50.91441324597879" lon="4.944829181815942"><ele>63.0</ele><time>2026-04-23T15:46:40.999Z</time></trkpt><trkpt lat="50.91444208424025" lon="4.944963419129611"><ele>63.0</ele><time>2026-04-23T15:46:41.999Z</time></trkpt><trkpt lat="50.914474165882076" lon="4.945095366060526"><ele>63.0</ele><time>2026-04-23T15:46:42.999Z</time></trkpt><trkpt lat="50.91450174582469" lon="4.945214639502585"><ele>63.5</ele><time>2026-04-23T15:46:43.999Z</time></trkpt><trkpt lat="50.91452279504253" lon="4.945315760550011"><ele>64.0</ele><time>2026-04-23T15:46:44.999Z</time></trkpt><trkpt lat="50.91454667992359" lon="4.945418847648578"><ele>64.5</ele><time>2026-04-23T15:46:45.999Z</time></trkpt><trkpt lat="50.91455515908724" lon="4.945545338522216"><ele>65.0</ele><time>2026-04-23T15:46:47.999Z</time></trkpt><trkpt lat="50.91479017379328" lon="4.94540153750248"><ele>65.0</ele><time>2026-04-23T15:46:49.999Z</time></trkpt><trkpt lat="50.91487952670638" lon="4.945346148902153"><ele>65.0</ele><time>2026-04-23T15:46:50.999Z</time></trkpt><trkpt lat="50.91499090797109" lon="4.945274085240364"><ele>65.0</ele><time>2026-04-23T15:46:51.999Z</time></trkpt><trkpt lat="50.91511653347482" lon="4.945246376171622"><ele>65.0</ele><time>2026-04-23T15:46:52.999Z</time></trkpt><trkpt lat="50.91522489393352" lon="4.945172815815781"><ele>63.25</ele><time>2026-04-23T15:46:53.999Z</time></trkpt><trkpt lat="50.915348293377264" lon="4.945130402884426"><ele>61.5</ele><time>2026-04-23T15:46:54.999Z</time></trkpt><trkpt lat="50.915473342349166" lon="4.945100778887003"><ele>59.75</ele><time>2026-04-23T15:46:55.999Z</time></trkpt><trkpt lat="50.915589505072084" lon="4.945054295725767"><ele>58.0</ele><time>2026-04-23T15:46:56.999Z</time></trkpt><trkpt lat="50.915701098499724" lon="4.944982593130612"><ele>58.0</ele><time>2026-04-23T15:46:57.999Z</time></trkpt><trkpt lat="50.91582816847436" lon="4.944939250647171"><ele>58.0</ele><time>2026-04-23T15:46:58.999Z</time></trkpt><trkpt lat="50.91594660396502" lon="4.944901759562008"><ele>58.0</ele><time>2026-04-23T15:46:59.999Z</time></trkpt><trkpt lat="50.9160609092615" lon="4.944823134952903"><ele>58.0</ele><time>2026-04-23T15:47:00.999Z</time></trkpt><trkpt lat="50.916187206038515" lon="4.944774124840528"><ele>56.75</ele><time>2026-04-23T15:47:01.999Z</time></trkpt><trkpt lat="50.91631184264301" lon="4.944719049467123"><ele>55.5</ele><time>2026-04-23T15:47:03.001Z</time></trkpt><trkpt lat="50.91644572457157" lon="4.944655480202914"><ele>54.25</ele><time>2026-04-23T15:47:04.001Z</time></trkpt><trkpt lat="50.91658326823899" lon="4.9445913633555385"><ele>53.0</ele><time>2026-04-23T15:47:05.001Z</time></trkpt><trkpt lat="50.91672070839816" lon="4.944523803512847"><ele>52.5</ele><time>2026-04-23T15:47:06.001Z</time></trkpt><trkpt lat="50.91685680706714" lon="4.944459623648728"><ele>52.0</ele><time>2026-04-23T15:47:07.001Z</time></trkpt><trkpt lat="50.917002270639465" lon="4.944398662914415"><ele>51.5</ele><time>2026-04-23T15:47:08.001Z</time></trkpt><trkpt lat="50.91714647965183" lon="4.944325823775829"><ele>51.0</ele><time>2026-04-23T15:47:09.001Z</time></trkpt><trkpt lat="50.91729035012738" lon="4.944257633144038"><ele>51.25</ele><time>2026-04-23T15:47:10.001Z</time></trkpt><trkpt lat="50.917431969642486" lon="4.944188774257802"><ele>51.5</ele><time>2026-04-23T15:47:11.001Z</time></trkpt><trkpt lat="50.91756504836929" lon="4.944092626857434"><ele>51.75</ele><time>2026-04-23T15:47:12.001Z</time></trkpt><trkpt lat="50.91767991375888" lon="4.944033957479512"><ele>52.0</ele><time>2026-04-23T15:47:13.001Z</time></trkpt><trkpt lat="50.91777091523026" lon="4.943984661548145"><ele>52.166666666666664</ele><time>2026-04-23T15:47:14.001Z</time></trkpt><trkpt lat="50.917850928314266" lon="4.943921784431973"><ele>52.33333333333333</ele><time>2026-04-23T15:47:15.001Z</time></trkpt><trkpt lat="50.91793280714523" lon="4.943895808172247"><ele>52.5</ele><time>2026-04-23T15:47:16.001Z</time></trkpt><trkpt lat="50.91799599113083" lon="4.943841225252549"><ele>52.66666666666667</ele><time>2026-04-23T15:47:17.001Z</time></trkpt><trkpt lat="50.9180744685114" lon="4.943818434925911"><ele>52.833333333333336</ele><time>2026-04-23T15:47:18.001Z</time></trkpt><trkpt lat="50.91815771464339" lon="4.9437832502373285"><ele>53.0</ele><time>2026-04-23T15:47:19.001Z</time></trkpt><trkpt lat="50.91822740852843" lon="4.943743866074133"><ele>53.00000000000001</ele><time>2026-04-23T15:47:20.001Z</time></trkpt><trkpt lat="50.91829286969649" lon="4.943703794457738"><ele>53.0</ele><time>2026-04-23T15:47:21.001Z</time></trkpt><trkpt lat="50.918404235329376" lon="4.943657800753261"><ele>53.0</ele><time>2026-04-23T15:47:23.001Z</time></trkpt><trkpt lat="50.91849473789079" lon="4.9436095051456315"><ele>53.0</ele><time>2026-04-23T15:47:25.001Z</time></trkpt><trkpt lat="50.91856408625901" lon="4.943590549700185"><ele>53.00000000000001</ele><time>2026-04-23T15:47:28Z</time></trkpt><trkpt lat="50.91864433947405" lon="4.943564809751981"><ele>53.0</ele><time>2026-04-23T15:47:37Z</time></trkpt><trkpt lat="50.918571693461374" lon="4.943597489373157"><ele>53.0</ele><time>2026-04-23T15:47:41Z</time></trkpt><trkpt lat="50.918412408402666" lon="4.9436647751384255"><ele>53.0</ele><time>2026-04-23T15:47:45Z</time></trkpt><trkpt lat="50.918330117494875" lon="4.943701552999153"><ele>53.0</ele><time>2026-04-23T15:47:46Z</time></trkpt><trkpt lat="50.91824311223974" lon="4.943738729527677"><ele>53.0</ele><time>2026-04-23T15:47:47Z</time></trkpt><trkpt lat="50.918154721404946" lon="4.9437748374897215"><ele>53.0</ele><time>2026-04-23T15:47:48Z</time></trkpt><trkpt lat="50.91806381271336" lon="4.943812276937514"><ele>53.00000000000001</ele><time>2026-04-23T15:47:49Z</time></trkpt><trkpt lat="50.91799542669985" lon="4.9438439033999915"><ele>53.0</ele><time>2026-04-23T15:47:50Z</time></trkpt><trkpt lat="50.91788200283973" lon="4.943888921414842"><ele>53.0</ele><time>2026-04-23T15:47:52Z</time></trkpt><trkpt lat="50.91778744511588" lon="4.943950771766327"><ele>53.0</ele><time>2026-04-23T15:47:54Z</time></trkpt><trkpt lat="50.91775885824748" lon="4.944088521688594"><ele>53.00000000000001</ele><time>2026-04-23T15:47:56Z</time></trkpt><trkpt lat="50.91776843977055" lon="4.944192040319817"><ele>53.0</ele><time>2026-04-23T15:47:57Z</time></trkpt><trkpt lat="50.91779825395548" lon="4.944304414040545"><ele>52.599999999999994</ele><time>2026-04-23T15:47:58Z</time></trkpt><trkpt lat="50.917819343614845" lon="4.9444393671620395"><ele>52.199999999999996</ele><time>2026-04-23T15:47:59Z</time></trkpt><trkpt lat="50.91783627706868" lon="4.944594778270811"><ele>51.8</ele><time>2026-04-23T15:48:00Z</time></trkpt><trkpt lat="50.91785099191852" lon="4.944759912827006"><ele>51.4</ele><time>2026-04-23T15:48:01Z</time></trkpt><trkpt lat="50.917862761805004" lon="4.944921746033817"><ele>51.0</ele><time>2026-04-23T15:48:02Z</time></trkpt><trkpt lat="50.917873015526055" lon="4.9450483304550374"><ele>50.8</ele><time>2026-04-23T15:48:03Z</time></trkpt><trkpt lat="50.917891091996125" lon="4.945181444202202"><ele>50.599999999999994</ele><time>2026-04-23T15:48:04Z</time></trkpt><trkpt lat="50.917903871990404" lon="4.945301199481296"><ele>50.4</ele><time>2026-04-23T15:48:05Z</time></trkpt><trkpt lat="50.91791138666338" lon="4.945401174358461"><ele>50.2</ele><time>2026-04-23T15:48:06Z</time></trkpt><trkpt lat="50.91786565287016" lon="4.945543514803325"><ele>50.0</ele><time>2026-04-23T15:48:08Z</time></trkpt><trkpt lat="50.9177393919828" lon="4.945614386359009"><ele>50.0</ele><time>2026-04-23T15:48:10Z</time></trkpt><trkpt lat="50.91767081336616" lon="4.945716900057093"><ele>50.0</ele><time>2026-04-23T15:48:12Z</time></trkpt><trkpt lat="50.9176995326873" lon="4.94590820042028"><ele>50.0</ele><time>2026-04-23T15:48:14Z</time></trkpt><trkpt lat="50.91772908155954" lon="4.9460316777127105"><ele>50.0</ele><time>2026-04-23T15:48:15Z</time></trkpt><trkpt lat="50.91775793960674" lon="4.9461655281368895"><ele>50.0</ele><time>2026-04-23T15:48:16Z</time></trkpt><trkpt lat="50.91779051550015" lon="4.946314659848926"><ele>50.2</ele><time>2026-04-23T15:48:17Z</time></trkpt><trkpt lat="50.91782289214159" lon="4.94647882855841"><ele>50.4</ele><time>2026-04-23T15:48:18Z</time></trkpt><trkpt lat="50.917852631866616" lon="4.9466288515576045"><ele>50.599999999999994</ele><time>2026-04-23T15:48:18.999Z</time></trkpt><trkpt lat="50.91788877218872" lon="4.946795679568828"><ele>50.8</ele><time>2026-04-23T15:48:19.999Z</time></trkpt><trkpt lat="50.917929803242195" lon="4.9469691030481995"><ele>51.0</ele><time>2026-04-23T15:48:20.999Z</time></trkpt><trkpt lat="50.917967251874565" lon="4.947127969560646"><ele>51.4</ele><time>2026-04-23T15:48:21.999Z</time></trkpt><trkpt lat="50.91800130358068" lon="4.947286095210631"><ele>51.8</ele><time>2026-04-23T15:48:22.999Z</time></trkpt><trkpt lat="50.918031466220754" lon="4.947450514251307"><ele>52.199999999999996</ele><time>2026-04-23T15:48:23.999Z</time></trkpt><trkpt lat="50.91806543557811" lon="4.947617567554006"><ele>52.599999999999994</ele><time>2026-04-23T15:48:24.999Z</time></trkpt><trkpt lat="50.9180930559639" lon="4.947779438978439"><ele>53.0</ele><time>2026-04-23T15:48:25.999Z</time></trkpt><trkpt lat="50.918122628065014" lon="4.947928962975325"><ele>53.599999999999994</ele><time>2026-04-23T15:48:26.999Z</time></trkpt><trkpt lat="50.91815051265412" lon="4.948086226562066"><ele>54.199999999999996</ele><time>2026-04-23T15:48:27.999Z</time></trkpt><trkpt lat="50.91818063664701" lon="4.948252295208859"><ele>54.8</ele><time>2026-04-23T15:48:28.999Z</time></trkpt><trkpt lat="50.91820430475191" lon="4.948400576199664"><ele>55.4</ele><time>2026-04-23T15:48:29.999Z</time></trkpt><trkpt lat="50.91822855355956" lon="4.9485489811744605"><ele>56.0</ele><time>2026-04-23T15:48:30.999Z</time></trkpt><trkpt lat="50.91825661951491" lon="4.948653024588396"><ele>56.0</ele><time>2026-04-23T15:48:31.999Z</time></trkpt><trkpt lat="50.91828203017882" lon="4.948797125043361"><ele>55.99999999999999</ele><time>2026-04-23T15:48:32.999Z</time></trkpt><trkpt lat="50.918310792488285" lon="4.948960058570272"><ele>55.99999999999999</ele><time>2026-04-23T15:48:33.999Z</time></trkpt><trkpt lat="50.918335975352576" lon="4.949111638747557"><ele>56.0</ele><time>2026-04-23T15:48:34.999Z</time></trkpt><trkpt lat="50.918366436403076" lon="4.9492548401437"><ele>56.0</ele><time>2026-04-23T15:48:35.999Z</time></trkpt><trkpt lat="50.91840355886309" lon="4.94939777392089"><ele>56.4</ele><time>2026-04-23T15:48:36.999Z</time></trkpt><trkpt lat="50.91844457596232" lon="4.949534815386883"><ele>56.8</ele><time>2026-04-23T15:48:37.999Z</time></trkpt><trkpt lat="50.918488565293536" lon="4.949678954792235"><ele>57.199999999999996</ele><time>2026-04-23T15:48:38.999Z</time></trkpt><trkpt lat="50.918536773589544" lon="4.949825268313391"><ele>57.599999999999994</ele><time>2026-04-23T15:48:39.999Z</time></trkpt><trkpt lat="50.9185806119237" lon="4.949962249313984"><ele>58.0</ele><time>2026-04-23T15:48:40.999Z</time></trkpt><trkpt lat="50.91862810205648" lon="4.950105494945424"><ele>57.2</ele><time>2026-04-23T15:48:41.999Z</time></trkpt><trkpt lat="50.91867840297411" lon="4.95025690197873"><ele>56.4</ele><time>2026-04-23T15:48:42.999Z</time></trkpt><trkpt lat="50.91872851917971" lon="4.950396537342642"><ele>55.60000000000001</ele><time>2026-04-23T15:48:43.999Z</time></trkpt><trkpt lat="50.918780527854494" lon="4.950537813385577"><ele>54.800000000000004</ele><time>2026-04-23T15:48:44.999Z</time></trkpt><trkpt lat="50.91883600594977" lon="4.950667132541553"><ele>54.0</ele><time>2026-04-23T15:48:45.999Z</time></trkpt><trkpt lat="50.91888283060642" lon="4.950808709038653"><ele>54.0</ele><time>2026-04-23T15:48:46.999Z</time></trkpt><trkpt lat="50.91893172632449" lon="4.950947262331287"><ele>54.00000000000001</ele><time>2026-04-23T15:48:47.999Z</time></trkpt><trkpt lat="50.918982409588224" lon="4.951076173212636"><ele>54.00000000000001</ele><time>2026-04-23T15:48:48.999Z</time></trkpt><trkpt lat="50.919027888914194" lon="4.951205207055714"><ele>54.0</ele><time>2026-04-23T15:48:49.999Z</time></trkpt><trkpt lat="50.91907422565863" lon="4.951334545391438"><ele>54.0</ele><time>2026-04-23T15:48:50.999Z</time></trkpt><trkpt lat="50.9191178955281" lon="4.951463308798646"><ele>54.0</ele><time>2026-04-23T15:48:51.999Z</time></trkpt><trkpt lat="50.919152897376094" lon="4.951587293679359"><ele>54.00000000000001</ele><time>2026-04-23T15:48:52.999Z</time></trkpt><trkpt lat="50.919197086604065" lon="4.951718607995838"><ele>54.00000000000001</ele><time>2026-04-23T15:48:53.999Z</time></trkpt><trkpt lat="50.91924946970743" lon="4.951847577785134"><ele>54.0</ele><time>2026-04-23T15:48:54.999Z</time></trkpt><trkpt lat="50.91930820432625" lon="4.951953997058068"><ele>54.0</ele><time>2026-04-23T15:48:55.999Z</time></trkpt><trkpt lat="50.91938951704103" lon="4.952054821825505"><ele>53.800000000000004</ele><time>2026-04-23T15:48:56.999Z</time></trkpt><trkpt lat="50.91948147402175" lon="4.952131594793332"><ele>53.60000000000001</ele><time>2026-04-23T15:48:57.999Z</time></trkpt><trkpt lat="50.91956362703825" lon="4.952214324498386"><ele>53.4</ele><time>2026-04-23T15:48:58.999Z</time></trkpt><trkpt lat="50.919623859428285" lon="4.952329298287352"><ele>53.2</ele><time>2026-04-23T15:48:59.999Z</time></trkpt><trkpt lat="50.919669012117836" lon="4.952489874963735"><ele>53.0</ele><time>2026-04-23T15:49:00.999Z</time></trkpt><trkpt lat="50.919707120708175" lon="4.952659936634506"><ele>54.0</ele><time>2026-04-23T15:49:01.999Z</time></trkpt><trkpt lat="50.91974679205638" lon="4.952823273058944"><ele>55.0</ele><time>2026-04-23T15:49:02.999Z</time></trkpt><trkpt lat="50.919788528212734" lon="4.953001430605458"><ele>56.0</ele><time>2026-04-23T15:49:03.999Z</time></trkpt><trkpt lat="50.919835385014" lon="4.953173681961958"><ele>57.0</ele><time>2026-04-23T15:49:04.999Z</time></trkpt><trkpt lat="50.91988192329144" lon="4.953341032228583"><ele>57.0</ele><time>2026-04-23T15:49:05.999Z</time></trkpt><trkpt lat="50.91991157877176" lon="4.953471958086551"><ele>57.0</ele><time>2026-04-23T15:49:06.999Z</time></trkpt><trkpt lat="50.919938837799116" lon="4.953588625379506"><ele>57.0</ele><time>2026-04-23T15:49:07.999Z</time></trkpt><trkpt lat="50.91997149940583" lon="4.953722973473934"><ele>57.0</ele><time>2026-04-23T15:49:09.001Z</time></trkpt><trkpt lat="50.920000349245086" lon="4.953840741656534"><ele>57.0</ele><time>2026-04-23T15:49:10.001Z</time></trkpt><trkpt lat="50.920019365767025" lon="4.953947827871396"><ele>57.0</ele><time>2026-04-23T15:49:11.001Z</time></trkpt><trkpt lat="50.92005621755965" lon="4.954121407399218"><ele>56.333333333333336</ele><time>2026-04-23T15:49:13.001Z</time></trkpt><trkpt lat="50.92007994676302" lon="4.954247829045015"><ele>55.66666666666667</ele><time>2026-04-23T15:49:15.001Z</time></trkpt><trkpt lat="50.920163631864014" lon="4.954368212368436"><ele>55.0</ele><time>2026-04-23T15:49:19.001Z</time></trkpt><trkpt lat="50.92025276715774" lon="4.954363700647504"><ele>54.333333333333336</ele><time>2026-04-23T15:49:20.001Z</time></trkpt><trkpt lat="50.920319196846236" lon="4.9543505409283375"><ele>53.66666666666667</ele><time>2026-04-23T15:49:21.001Z</time></trkpt><trkpt lat="50.920391635577325" lon="4.954341521699372"><ele>53.0</ele><time>2026-04-23T15:49:22.001Z</time></trkpt><trkpt lat="50.920457641122844" lon="4.954353049237983"><ele>53.0</ele><time>2026-04-23T15:49:24.001Z</time></trkpt><trkpt lat="50.92055211899308" lon="4.9543880182775615"><ele>53.0</ele><time>2026-04-23T15:49:29.001Z</time></trkpt><trkpt lat="50.92066369055713" lon="4.9544799250431355"><ele>53.0</ele><time>2026-04-23T15:49:31Z</time></trkpt><trkpt lat="50.92068093611152" lon="4.954602310373265"><ele>53.0</ele><time>2026-04-23T15:49:32Z</time></trkpt><trkpt lat="50.92065436370004" lon="4.954751256608213"><ele>53.0</ele><time>2026-04-23T15:49:33Z</time></trkpt><trkpt lat="50.92062383246232" lon="4.9548926805702855"><ele>52.25</ele><time>2026-04-23T15:49:34Z</time></trkpt><trkpt lat="50.92060875452398" lon="4.955057002031738"><ele>51.5</ele><time>2026-04-23T15:49:35Z</time></trkpt><trkpt lat="50.92060203337444" lon="4.9552382183108215"><ele>50.75</ele><time>2026-04-23T15:49:36Z</time></trkpt><trkpt lat="50.920599728719125" lon="4.95544796394174"><ele>50.0</ele><time>2026-04-23T15:49:37Z</time></trkpt><trkpt lat="50.92060385201857" lon="4.955655845026434"><ele>49.5</ele><time>2026-04-23T15:49:38Z</time></trkpt><trkpt lat="50.92061420812634" lon="4.955879129708803"><ele>49.0</ele><time>2026-04-23T15:49:39Z</time></trkpt><trkpt lat="50.92063673014364" lon="4.956115208171607"><ele>48.5</ele><time>2026-04-23T15:49:40Z</time></trkpt><trkpt lat="50.920666144937286" lon="4.9563559907251244"><ele>48.0</ele><time>2026-04-23T15:49:41Z</time></trkpt><trkpt lat="50.92069854856585" lon="4.956610914319307"><ele>48.0</ele><time>2026-04-23T15:49:42Z</time></trkpt><trkpt lat="50.9207266043718" lon="4.956859447834907"><ele>48.0</ele><time>2026-04-23T15:49:43Z</time></trkpt><trkpt lat="50.92075424162269" lon="4.95711409450707"><ele>48.0</ele><time>2026-04-23T15:49:44Z</time></trkpt><trkpt lat="50.92078219596411" lon="4.95738210645652"><ele>48.33333333333333</ele><time>2026-04-23T15:49:45Z</time></trkpt><trkpt lat="50.920814593889" lon="4.9576526286232605"><ele>48.666666666666664</ele><time>2026-04-23T15:49:46Z</time></trkpt><trkpt lat="50.92084508287122" lon="4.957919664098451"><ele>49.0</ele><time>2026-04-23T15:49:47Z</time></trkpt><trkpt lat="50.92087335960222" lon="4.958188158320826"><ele>48.666666666666664</ele><time>2026-04-23T15:49:48Z</time></trkpt><trkpt lat="50.920899485996244" lon="4.958461125270989"><ele>48.33333333333333</ele><time>2026-04-23T15:49:49Z</time></trkpt><trkpt lat="50.920924072496504" lon="4.958718224806731"><ele>48.0</ele><time>2026-04-23T15:49:50Z</time></trkpt><trkpt lat="50.920947820765925" lon="4.9589554557661595"><ele>48.0</ele><time>2026-04-23T15:49:51Z</time></trkpt><trkpt lat="50.92097412136763" lon="4.959191592373407"><ele>48.0</ele><time>2026-04-23T15:49:52Z</time></trkpt><trkpt lat="50.921003299010074" lon="4.959427460360849"><ele>48.0</ele><time>2026-04-23T15:49:53Z</time></trkpt><trkpt lat="50.921015031420325" lon="4.959671288340838"><ele>48.66666666666667</ele><time>2026-04-23T15:49:54Z</time></trkpt><trkpt lat="50.92105886306637" lon="4.959908442839568"><ele>49.333333333333336</ele><time>2026-04-23T15:49:55Z</time></trkpt><trkpt lat="50.921079777169076" lon="4.960153642934165"><ele>50.0</ele><time>2026-04-23T15:49:56Z</time></trkpt><trkpt lat="50.92110093487527" lon="4.96040580455809"><ele>51.0</ele><time>2026-04-23T15:49:57Z</time></trkpt><trkpt lat="50.92111486478829" lon="4.960663962463672"><ele>52.0</ele><time>2026-04-23T15:49:58Z</time></trkpt><trkpt lat="50.921119572655265" lon="4.960921584296062"><ele>53.0</ele><time>2026-04-23T15:49:59Z</time></trkpt><trkpt lat="50.921115611823815" lon="4.961176453994056"><ele>54.0</ele><time>2026-04-23T15:50:00Z</time></trkpt><trkpt lat="50.921102596340994" lon="4.961439935991601"><ele>55.0</ele><time>2026-04-23T15:50:01Z</time></trkpt><trkpt lat="50.921087187319834" lon="4.9616957395646475"><ele>56.0</ele><time>2026-04-23T15:50:02Z</time></trkpt><trkpt lat="50.92107925025608" lon="4.961964321647181"><ele>56.0</ele><time>2026-04-23T15:50:03Z</time></trkpt><trkpt lat="50.921084940944695" lon="4.96222339114299"><ele>56.0</ele><time>2026-04-23T15:50:04Z</time></trkpt><trkpt lat="50.921105385695434" lon="4.9624877768575715"><ele>56.0</ele><time>2026-04-23T15:50:05Z</time></trkpt><trkpt lat="50.92113694878884" lon="4.962721917629935"><ele>55.75</ele><time>2026-04-23T15:50:06Z</time></trkpt><trkpt lat="50.921169520493706" lon="4.962932365239799"><ele>55.5</ele><time>2026-04-23T15:50:07Z</time></trkpt><trkpt lat="50.92120658485564" lon="4.963129891961648"><ele>55.25</ele><time>2026-04-23T15:50:08Z</time></trkpt><trkpt lat="50.921246345901906" lon="4.96333202331505"><ele>55.0</ele><time>2026-04-23T15:50:09Z</time></trkpt><trkpt lat="50.921287053871374" lon="4.963548832624361"><ele>55.0</ele><time>2026-04-23T15:50:10Z</time></trkpt><trkpt lat="50.9213342090132" lon="4.963782918156591"><ele>55.0</ele><time>2026-04-23T15:50:11Z</time></trkpt><trkpt lat="50.92138483433032" lon="4.964042026127568"><ele>55.0</ele><time>2026-04-23T15:50:12Z</time></trkpt><trkpt lat="50.92143843556881" lon="4.964305946802611"><ele>55.0</ele><time>2026-04-23T15:50:13Z</time></trkpt><trkpt lat="50.921492397964315" lon="4.964590002523551"><ele>55.0</ele><time>2026-04-23T15:50:14Z</time></trkpt><trkpt lat="50.921543264319794" lon="4.964864364908266"><ele>55.0</ele><time>2026-04-23T15:50:15Z</time></trkpt><trkpt lat="50.92158888364505" lon="4.9650987105038595"><ele>55.25</ele><time>2026-04-23T15:50:16Z</time></trkpt><trkpt lat="50.92163143905909" lon="4.965328872825639"><ele>55.5</ele><time>2026-04-23T15:50:17Z</time></trkpt><trkpt lat="50.92166945136543" lon="4.965534680441267"><ele>55.75</ele><time>2026-04-23T15:50:18Z</time></trkpt><trkpt lat="50.921702512138026" lon="4.965727149034032"><ele>56.0</ele><time>2026-04-23T15:50:18.999Z</time></trkpt><trkpt lat="50.92173028296374" lon="4.9659218231709685"><ele>55.5</ele><time>2026-04-23T15:50:19.999Z</time></trkpt><trkpt lat="50.92175229066689" lon="4.966131699003811"><ele>55.0</ele><time>2026-04-23T15:50:20.999Z</time></trkpt><trkpt lat="50.92177083151257" lon="4.966332547231333"><ele>54.5</ele><time>2026-04-23T15:50:21.999Z</time></trkpt><trkpt lat="50.921786346208634" lon="4.966516736596007"><ele>54.0</ele><time>2026-04-23T15:50:22.999Z</time></trkpt><trkpt lat="50.92177984692157" lon="4.966711190002017"><ele>54.0</ele><time>2026-04-23T15:50:23.999Z</time></trkpt><trkpt lat="50.92178188157252" lon="4.966915132396743"><ele>54.0</ele><time>2026-04-23T15:50:24.999Z</time></trkpt><trkpt lat="50.921780970452936" lon="4.967127016132863"><ele>54.0</ele><time>2026-04-23T15:50:25.999Z</time></trkpt><trkpt lat="50.9217809704522" lon="4.967343368536611"><ele>54.0</ele><time>2026-04-23T15:50:26.999Z</time></trkpt><trkpt lat="50.92178097045227" lon="4.967554231432547"><ele>54.0</ele><time>2026-04-23T15:50:27.999Z</time></trkpt><trkpt lat="50.92179738590505" lon="4.967771757590555"><ele>54.0</ele><time>2026-04-23T15:50:28.999Z</time></trkpt><trkpt lat="50.921787093965314" lon="4.96798757064991"><ele>54.0</ele><time>2026-04-23T15:50:29.999Z</time></trkpt><trkpt lat="50.92179040826791" lon="4.968190615432163"><ele>54.0</ele><time>2026-04-23T15:50:30.999Z</time></trkpt><trkpt lat="50.92179009032249" lon="4.968406793215125"><ele>54.0</ele><time>2026-04-23T15:50:31.999Z</time></trkpt><trkpt lat="50.921791377115454" lon="4.968617929413679"><ele>54.0</ele><time>2026-04-23T15:50:32.999Z</time></trkpt><trkpt lat="50.92179537087017" lon="4.968832552495535"><ele>54.0</ele><time>2026-04-23T15:50:33.999Z</time></trkpt><trkpt lat="50.92181750719127" lon="4.969045423413807"><ele>54.0</ele><time>2026-04-23T15:50:34.999Z</time></trkpt><trkpt lat="50.921844607023914" lon="4.969265203009472"><ele>54.0</ele><time>2026-04-23T15:50:35.999Z</time></trkpt><trkpt lat="50.92188753843362" lon="4.9694860395815565"><ele>54.0</ele><time>2026-04-23T15:50:36.999Z</time></trkpt><trkpt lat="50.92193942839406" lon="4.969706298558475"><ele>54.0</ele><time>2026-04-23T15:50:37.999Z</time></trkpt><trkpt lat="50.92199722299306" lon="4.969932107299615"><ele>54.0</ele><time>2026-04-23T15:50:38.999Z</time></trkpt><trkpt lat="50.9220564122107" lon="4.970156883534128"><ele>53.33333333333333</ele><time>2026-04-23T15:50:39.999Z</time></trkpt><trkpt lat="50.92211603505719" lon="4.970387552506677"><ele>52.666666666666664</ele><time>2026-04-23T15:50:40.999Z</time></trkpt><trkpt lat="50.92217236477656" lon="4.970622010407916"><ele>52.0</ele><time>2026-04-23T15:50:41.999Z</time></trkpt><trkpt lat="50.9222342983326" lon="4.970872224563759"><ele>51.33333333333333</ele><time>2026-04-23T15:50:42.999Z</time></trkpt><trkpt lat="50.92227178635074" lon="4.97112510556084"><ele>50.66666666666667</ele><time>2026-04-23T15:50:43.999Z</time></trkpt><trkpt lat="50.92232126270299" lon="4.97137693206851"><ele>50.0</ele><time>2026-04-23T15:50:44.999Z</time></trkpt><trkpt lat="50.92236385578932" lon="4.971642603067027"><ele>50.0</ele><time>2026-04-23T15:50:45.999Z</time></trkpt><trkpt lat="50.92239811193787" lon="4.9719028818186715"><ele>50.0</ele><time>2026-04-23T15:50:46.999Z</time></trkpt><trkpt lat="50.92244117682693" lon="4.972180538238201"><ele>50.0</ele><time>2026-04-23T15:50:47.999Z</time></trkpt><trkpt lat="50.92246505508835" lon="4.9724556867276855"><ele>50.333333333333336</ele><time>2026-04-23T15:50:48.999Z</time></trkpt><trkpt lat="50.92248304336221" lon="4.97273889273536"><ele>50.66666666666667</ele><time>2026-04-23T15:50:49.999Z</time></trkpt><trkpt lat="50.9224950455825" lon="4.973025358795532"><ele>51.0</ele><time>2026-04-23T15:50:50.999Z</time></trkpt><trkpt lat="50.92250049717843" lon="4.973314026345636"><ele>51.66666666666667</ele><time>2026-04-23T15:50:51.999Z</time></trkpt><trkpt lat="50.92247416839229" lon="4.973604814957572"><ele>52.333333333333336</ele><time>2026-04-23T15:50:52.999Z</time></trkpt><trkpt lat="50.92247358975238" lon="4.973904827618341"><ele>53.0</ele><time>2026-04-23T15:50:53.999Z</time></trkpt><trkpt lat="50.922460400990914" lon="4.974194206191524"><ele>53.0</ele><time>2026-04-23T15:50:54.999Z</time></trkpt><trkpt lat="50.92244719954617" lon="4.974492120427747"><ele>53.0</ele><time>2026-04-23T15:50:55.999Z</time></trkpt><trkpt lat="50.92243601798308" lon="4.974781235687839"><ele>53.0</ele><time>2026-04-23T15:50:56.999Z</time></trkpt><trkpt lat="50.92242746170682" lon="4.975067094293407"><ele>52.333333333333336</ele><time>2026-04-23T15:50:57.999Z</time></trkpt><trkpt lat="50.92242194211045" lon="4.9753635045851485"><ele>51.66666666666667</ele><time>2026-04-23T15:50:58.999Z</time></trkpt><trkpt lat="50.92242897105439" lon="4.975642522408183"><ele>51.0</ele><time>2026-04-23T15:50:59.999Z</time></trkpt><trkpt lat="50.922456262424845" lon="4.975917892289651"><ele>50.33333333333333</ele><time>2026-04-23T15:51:00.999Z</time></trkpt><trkpt lat="50.92249591139966" lon="4.97618879187704"><ele>49.666666666666664</ele><time>2026-04-23T15:51:01.999Z</time></trkpt><trkpt lat="50.92254096177957" lon="4.976454988458801"><ele>49.0</ele><time>2026-04-23T15:51:02.999Z</time></trkpt><trkpt lat="50.922591819989826" lon="4.97669562788396"><ele>48.33333333333333</ele><time>2026-04-23T15:51:03.999Z</time></trkpt><trkpt lat="50.92264805844567" lon="4.9769315479391505"><ele>47.666666666666664</ele><time>2026-04-23T15:51:04.999Z</time></trkpt><trkpt lat="50.922702593275794" lon="4.9771629535816215"><ele>47.0</ele><time>2026-04-23T15:51:05.999Z</time></trkpt><trkpt lat="50.92275436011724" lon="4.977401784714137"><ele>47.33333333333333</ele><time>2026-04-23T15:51:06.999Z</time></trkpt><trkpt lat="50.92280393660368" lon="4.9776451252770135"><ele>47.666666666666664</ele><time>2026-04-23T15:51:07.999Z</time></trkpt><trkpt lat="50.92285402855473" lon="4.977884904818901"><ele>48.0</ele><time>2026-04-23T15:51:08.999Z</time></trkpt><trkpt lat="50.92290689795924" lon="4.978116748353368"><ele>48.0</ele><time>2026-04-23T15:51:09.999Z</time></trkpt><trkpt lat="50.92296124258074" lon="4.978348835370464"><ele>48.0</ele><time>2026-04-23T15:51:10.999Z</time></trkpt><trkpt lat="50.92300836032473" lon="4.978563288437461"><ele>48.0</ele><time>2026-04-23T15:51:11.999Z</time></trkpt><trkpt lat="50.92305376287223" lon="4.978774160740756"><ele>48.0</ele><time>2026-04-23T15:51:12.998Z</time></trkpt><trkpt lat="50.923094568760604" lon="4.978969565551406"><ele>47.8</ele><time>2026-04-23T15:51:13.998Z</time></trkpt><trkpt lat="50.92311739476726" lon="4.979155672135338"><ele>47.599999999999994</ele><time>2026-04-23T15:51:15.001Z</time></trkpt><trkpt lat="50.923150880109624" lon="4.979314208443197"><ele>47.400000000000006</ele><time>2026-04-23T15:51:16.001Z</time></trkpt><trkpt lat="50.923185990613796" lon="4.97947475199655"><ele>47.2</ele><time>2026-04-23T15:51:17.001Z</time></trkpt><trkpt lat="50.923222969954395" lon="4.979637444272889"><ele>47.0</ele><time>2026-04-23T15:51:18.001Z</time></trkpt><trkpt lat="50.92327488206922" lon="4.979783920810676"><ele>46.83333333333333</ele><time>2026-04-23T15:51:19.001Z</time></trkpt><trkpt lat="50.92330557858705" lon="4.979923116589669"><ele>46.666666666666664</ele><time>2026-04-23T15:51:20.001Z</time></trkpt><trkpt lat="50.92331119275493" lon="4.980050286229713"><ele>46.5</ele><time>2026-04-23T15:51:21.001Z</time></trkpt><trkpt lat="50.923319203312744" lon="4.980152768087247"><ele>46.333333333333336</ele><time>2026-04-23T15:51:22.001Z</time></trkpt><trkpt lat="50.92327383269508" lon="4.980234696097908"><ele>46.16666666666667</ele><time>2026-04-23T15:51:23.001Z</time></trkpt><trkpt lat="50.92321015770037" lon="4.980296429890002"><ele>46.0</ele><time>2026-04-23T15:51:24.001Z</time></trkpt><trkpt lat="50.923124034749065" lon="4.980306951083486"><ele>45.599999999999994</ele><time>2026-04-23T15:51:25.001Z</time></trkpt><trkpt lat="50.923054715006444" lon="4.980373045611031"><ele>45.2</ele><time>2026-04-23T15:51:26.001Z</time></trkpt><trkpt lat="50.92296490872525" lon="4.980428667313659"><ele>44.8</ele><time>2026-04-23T15:51:27.001Z</time></trkpt><trkpt lat="50.92288369355614" lon="4.9804794506439105"><ele>44.400000000000006</ele><time>2026-04-23T15:51:28.001Z</time></trkpt><trkpt lat="50.92279368366863" lon="4.9805324010338134"><ele>44.0</ele><time>2026-04-23T15:51:29.001Z</time></trkpt><trkpt lat="50.92269846958146" lon="4.980591959231014"><ele>44.0</ele><time>2026-04-23T15:51:30Z</time></trkpt><trkpt lat="50.92258940092641" lon="4.980660936285289"><ele>44.0</ele><time>2026-04-23T15:51:31Z</time></trkpt><trkpt lat="50.92247283442473" lon="4.980724696643807"><ele>44.0</ele><time>2026-04-23T15:51:32Z</time></trkpt><trkpt lat="50.922356541295855" lon="4.980802869927974"><ele>44.0</ele><time>2026-04-23T15:51:33Z</time></trkpt><trkpt lat="50.92223299458017" lon="4.980877131524167"><ele>43.25</ele><time>2026-04-23T15:51:34Z</time></trkpt><trkpt lat="50.92211849766155" lon="4.980960767131873"><ele>42.5</ele><time>2026-04-23T15:51:35Z</time></trkpt><trkpt lat="50.922003230118214" lon="4.9810310280041685"><ele>41.75</ele><time>2026-04-23T15:51:36Z</time></trkpt><trkpt lat="50.92188176679439" lon="4.981102719209119"><ele>41.0</ele><time>2026-04-23T15:51:37Z</time></trkpt><trkpt lat="50.92176061264755" lon="4.981181334272457"><ele>40.75</ele><time>2026-04-23T15:51:38Z</time></trkpt><trkpt lat="50.921637551891266" lon="4.9812580710974865"><ele>40.5</ele><time>2026-04-23T15:51:39Z</time></trkpt><trkpt lat="50.92152579726163" lon="4.981326660051615"><ele>40.25</ele><time>2026-04-23T15:51:40Z</time></trkpt><trkpt lat="50.921416504734026" lon="4.981392708857507"><ele>40.0</ele><time>2026-04-23T15:51:41Z</time></trkpt><trkpt lat="50.921311132846064" lon="4.981460177026879"><ele>40.0</ele><time>2026-04-23T15:51:41.999Z</time></trkpt><trkpt lat="50.92120799336483" lon="4.981525193639622"><ele>40.0</ele><time>2026-04-23T15:51:42.999Z</time></trkpt><trkpt lat="50.92112054156621" lon="4.9815797764901415"><ele>40.0</ele><time>2026-04-23T15:51:43.999Z</time></trkpt><trkpt lat="50.921052734693625" lon="4.981616118388527"><ele>40.0</ele><time>2026-04-23T15:51:44.999Z</time></trkpt><trkpt lat="50.92095633136284" lon="4.981666170372139"><ele>40.0</ele><time>2026-04-23T15:51:46.999Z</time></trkpt><trkpt lat="50.92084857810698" lon="4.981714105541697"><ele>40.0</ele><time>2026-04-23T15:51:48.999Z</time></trkpt><trkpt lat="50.92078039062956" lon="4.981747012748263"><ele>40.0</ele><time>2026-04-23T15:51:49.999Z</time></trkpt><trkpt lat="50.92071367258494" lon="4.981782831077042"><ele>40.0</ele><time>2026-04-23T15:51:50.999Z</time></trkpt><trkpt lat="50.92063987921508" lon="4.981819026008014"><ele>40.0</ele><time>2026-04-23T15:51:51.999Z</time></trkpt><trkpt lat="50.92056161218537" lon="4.981854856734963"><ele>40.0</ele><time>2026-04-23T15:51:52.999Z</time></trkpt><trkpt lat="50.92048080685003" lon="4.981893817301712"><ele>40.0</ele><time>2026-04-23T15:51:53.999Z</time></trkpt><trkpt lat="50.92039964412893" lon="4.981931244175916"><ele>40.0</ele><time>2026-04-23T15:51:54.999Z</time></trkpt><trkpt lat="50.92031104893151" lon="4.981978058345669"><ele>40.0</ele><time>2026-04-23T15:51:55.999Z</time></trkpt><trkpt lat="50.92021991695698" lon="4.982022425458311"><ele>40.0</ele><time>2026-04-23T15:51:56.999Z</time></trkpt><trkpt lat="50.92013018789603" lon="4.982064603655586"><ele>40.0</ele><time>2026-04-23T15:51:57.999Z</time></trkpt><trkpt lat="50.92004193617376" lon="4.982114650617199"><ele>40.0</ele><time>2026-04-23T15:51:58.999Z</time></trkpt><trkpt lat="50.91995288232685" lon="4.9821369789730054"><ele>40.0</ele><time>2026-04-23T15:51:59.999Z</time></trkpt><trkpt lat="50.919885448724436" lon="4.982182507031615"><ele>40.0</ele><time>2026-04-23T15:52:00.999Z</time></trkpt><trkpt lat="50.91982799288561" lon="4.982225113471614"><ele>40.0</ele><time>2026-04-23T15:52:01.999Z</time></trkpt><trkpt lat="50.91974375552171" lon="4.982302895543212"><ele>40.0</ele><time>2026-04-23T15:52:03.999Z</time></trkpt><trkpt lat="50.91968258052442" lon="4.98237834514878"><ele>40.0</ele><time>2026-04-23T15:53:18.997Z</time></trkpt><trkpt lat="50.919568604879586" lon="4.98247285677724"><ele>40.0</ele><time>2026-04-23T15:53:20.999Z</time></trkpt><trkpt lat="50.919506104945434" lon="4.9825498097071"><ele>40.0</ele><time>2026-04-23T15:53:21.999Z</time></trkpt><trkpt lat="50.91944907867957" lon="4.982665354617696"><ele>40.0</ele><time>2026-04-23T15:53:22.999Z</time></trkpt><trkpt lat="50.919395234051926" lon="4.982803900709625"><ele>40.0</ele><time>2026-04-23T15:53:23.999Z</time></trkpt><trkpt lat="50.9193383211521" lon="4.982969469389293"><ele>40.0</ele><time>2026-04-23T15:53:24.999Z</time></trkpt><trkpt lat="50.91927587802521" lon="4.9831355813509495"><ele>40.0</ele><time>2026-04-23T15:53:25.999Z</time></trkpt><trkpt lat="50.919220824132424" lon="4.983293395488706"><ele>40.5</ele><time>2026-04-23T15:53:26.999Z</time></trkpt><trkpt lat="50.91915815112208" lon="4.983467561062323"><ele>41.0</ele><time>2026-04-23T15:53:28Z</time></trkpt><trkpt lat="50.919093753176725" lon="4.983645182553698"><ele>41.5</ele><time>2026-04-23T15:53:29Z</time></trkpt><trkpt lat="50.91902769958346" lon="4.983825820802135"><ele>42.0</ele><time>2026-04-23T15:53:30Z</time></trkpt><trkpt lat="50.9189622535628" lon="4.984010284665907"><ele>41.75</ele><time>2026-04-23T15:53:31Z</time></trkpt><trkpt lat="50.91889157055209" lon="4.984194670659108"><ele>41.5</ele><time>2026-04-23T15:53:32Z</time></trkpt><trkpt lat="50.918823103261815" lon="4.984384466428938"><ele>41.25</ele><time>2026-04-23T15:53:33Z</time></trkpt><trkpt lat="50.91874144004845" lon="4.984554524612691"><ele>41.0</ele><time>2026-04-23T15:53:34Z</time></trkpt><trkpt lat="50.91867142164609" lon="4.984739104418996"><ele>41.0</ele><time>2026-04-23T15:53:35Z</time></trkpt><trkpt lat="50.9186013672475" lon="4.98492815774649"><ele>41.0</ele><time>2026-04-23T15:53:36Z</time></trkpt><trkpt lat="50.918532298035956" lon="4.9851173983281"><ele>41.0</ele><time>2026-04-23T15:53:37Z</time></trkpt><trkpt lat="50.91846827520074" lon="4.985292812411773"><ele>41.0</ele><time>2026-04-23T15:53:38Z</time></trkpt><trkpt lat="50.91840566067183" lon="4.985472321855533"><ele>42.0</ele><time>2026-04-23T15:53:39Z</time></trkpt><trkpt lat="50.918347133455484" lon="4.985647300191219"><ele>43.0</ele><time>2026-04-23T15:53:40Z</time></trkpt><trkpt lat="50.91830679574798" lon="4.985839881585591"><ele>44.0</ele><time>2026-04-23T15:53:41Z</time></trkpt><trkpt lat="50.91826525671209" lon="4.986013753413594"><ele>45.0</ele><time>2026-04-23T15:53:42Z</time></trkpt><trkpt lat="50.91822375624139" lon="4.986149682768805"><ele>45.0</ele><time>2026-04-23T15:53:43Z</time></trkpt><trkpt lat="50.91821206918823" lon="4.986290094807846"><ele>45.0</ele><time>2026-04-23T15:53:44Z</time></trkpt><trkpt lat="50.91818613400034" lon="4.986419503883721"><ele>45.0</ele><time>2026-04-23T15:53:45Z</time></trkpt><trkpt lat="50.91816661888301" lon="4.986559139385765"><ele>45.0</ele><time>2026-04-23T15:53:46Z</time></trkpt><trkpt lat="50.91812730531392" lon="4.986711506576092"><ele>45.0</ele><time>2026-04-23T15:53:47Z</time></trkpt><trkpt lat="50.91809801676438" lon="4.9868840848907485"><ele>44.75</ele><time>2026-04-23T15:53:48Z</time></trkpt><trkpt lat="50.91806623948439" lon="4.987071328261992"><ele>44.5</ele><time>2026-04-23T15:53:49Z</time></trkpt><trkpt lat="50.91805274662717" lon="4.9872515966903705"><ele>44.25</ele><time>2026-04-23T15:53:50Z</time></trkpt><trkpt lat="50.918002857341804" lon="4.987428122741604"><ele>44.0</ele><time>2026-04-23T15:53:51Z</time></trkpt><trkpt lat="50.91796751701413" lon="4.987604706321456"><ele>43.75</ele><time>2026-04-23T15:53:52Z</time></trkpt><trkpt lat="50.91793807606069" lon="4.987800666020413"><ele>43.5</ele><time>2026-04-23T15:53:53Z</time></trkpt><trkpt lat="50.91788569666729" lon="4.987993036748705"><ele>43.25</ele><time>2026-04-23T15:53:54Z</time></trkpt><trkpt lat="50.917829544987015" lon="4.98818931986148"><ele>43.0</ele><time>2026-04-23T15:53:55Z</time></trkpt><trkpt lat="50.9177710056849" lon="4.98838612430354"><ele>42.75</ele><time>2026-04-23T15:53:56Z</time></trkpt><trkpt lat="50.9176913627846" lon="4.988570549061217"><ele>42.5</ele><time>2026-04-23T15:53:57Z</time></trkpt><trkpt lat="50.917620072893435" lon="4.98876415960864"><ele>42.25</ele><time>2026-04-23T15:53:58Z</time></trkpt><trkpt lat="50.91755765756879" lon="4.988971326247248"><ele>42.0</ele><time>2026-04-23T15:53:59Z</time></trkpt><trkpt lat="50.91748001465474" lon="4.989157013419556"><ele>42.75</ele><time>2026-04-23T15:54:00Z</time></trkpt><trkpt lat="50.917398054949665" lon="4.989340225829737"><ele>43.5</ele><time>2026-04-23T15:54:01Z</time></trkpt><trkpt lat="50.917300087623246" lon="4.989489051075256"><ele>44.25</ele><time>2026-04-23T15:54:02Z</time></trkpt><trkpt lat="50.91722576091308" lon="4.989656615453445"><ele>45.0</ele><time>2026-04-23T15:54:03Z</time></trkpt><trkpt lat="50.91713917154892" lon="4.989814448698564"><ele>45.0</ele><time>2026-04-23T15:54:04Z</time></trkpt><trkpt lat="50.91705744872983" lon="4.989962487380702"><ele>45.0</ele><time>2026-04-23T15:54:05Z</time></trkpt><trkpt lat="50.91696506316346" lon="4.990073815977218"><ele>45.0</ele><time>2026-04-23T15:54:06Z</time></trkpt><trkpt lat="50.91689352455998" lon="4.990183453091356"><ele>45.0</ele><time>2026-04-23T15:54:07Z</time></trkpt><trkpt lat="50.916828952135646" lon="4.990277956276143"><ele>45.0</ele><time>2026-04-23T15:54:08Z</time></trkpt><trkpt lat="50.91673616544161" lon="4.9904045743217065"><ele>45.333333333333336</ele><time>2026-04-23T15:54:09Z</time></trkpt><trkpt lat="50.91661777702795" lon="4.990557863278947"><ele>45.66666666666667</ele><time>2026-04-23T15:54:10Z</time></trkpt><trkpt lat="50.916480456815265" lon="4.990727764987185"><ele>46.0</ele><time>2026-04-23T15:54:11Z</time></trkpt><trkpt lat="50.91633815689466" lon="4.990903313017137"><ele>46.333333333333336</ele><time>2026-04-23T15:54:12Z</time></trkpt><trkpt lat="50.91619335466034" lon="4.991107270197198"><ele>46.666666666666664</ele><time>2026-04-23T15:54:13Z</time></trkpt><trkpt lat="50.916047836811124" lon="4.991294701981942"><ele>47.0</ele><time>2026-04-23T15:54:13.999Z</time></trkpt><trkpt lat="50.91588060800731" lon="4.991478474681306"><ele>48.0</ele><time>2026-04-23T15:54:14.999Z</time></trkpt><trkpt lat="50.91574184982851" lon="4.991689582153775"><ele>49.0</ele><time>2026-04-23T15:54:15.999Z</time></trkpt><trkpt lat="50.915588080682525" lon="4.99187828999882"><ele>50.0</ele><time>2026-04-23T15:54:16.999Z</time></trkpt><trkpt lat="50.91543159821185" lon="4.99208604746549"><ele>50.0</ele><time>2026-04-23T15:54:17.999Z</time></trkpt><trkpt lat="50.91528570039711" lon="4.99230164191376"><ele>50.0</ele><time>2026-04-23T15:54:18.999Z</time></trkpt><trkpt lat="50.91514842205174" lon="4.992523614712022"><ele>50.0</ele><time>2026-04-23T15:54:19.999Z</time></trkpt><trkpt lat="50.91501420938534" lon="4.9927699872890905"><ele>50.0</ele><time>2026-04-23T15:54:20.999Z</time></trkpt><trkpt lat="50.91489874877863" lon="4.993024186482282"><ele>50.0</ele><time>2026-04-23T15:54:21.999Z</time></trkpt><trkpt lat="50.91478897417644" lon="4.9932927143986205"><ele>50.0</ele><time>2026-04-23T15:54:22.999Z</time></trkpt><trkpt lat="50.91469030330436" lon="4.993579503053011"><ele>50.333333333333336</ele><time>2026-04-23T15:54:23.999Z</time></trkpt><trkpt lat="50.91458394542264" lon="4.993861987613397"><ele>50.66666666666667</ele><time>2026-04-23T15:54:24.999Z</time></trkpt><trkpt lat="50.914510637472425" lon="4.994172363619275"><ele>51.0</ele><time>2026-04-23T15:54:25.999Z</time></trkpt><trkpt lat="50.914440201523924" lon="4.994472456333917"><ele>51.66666666666667</ele><time>2026-04-23T15:54:26.999Z</time></trkpt><trkpt lat="50.91438917255111" lon="4.994791465114001"><ele>52.333333333333336</ele><time>2026-04-23T15:54:27.999Z</time></trkpt><trkpt lat="50.91434365924578" lon="4.995099731288041"><ele>53.0</ele><time>2026-04-23T15:54:28.999Z</time></trkpt><trkpt lat="50.91430675113547" lon="4.995410628239734"><ele>53.333333333333336</ele><time>2026-04-23T15:54:29.999Z</time></trkpt><trkpt lat="50.914277348596094" lon="4.995729584678977"><ele>53.66666666666667</ele><time>2026-04-23T15:54:30.999Z</time></trkpt><trkpt lat="50.91423039541808" lon="4.9960346867289385"><ele>54.0</ele><time>2026-04-23T15:54:31.999Z</time></trkpt><trkpt lat="50.914198141771905" lon="4.996339047096373"><ele>54.33333333333333</ele><time>2026-04-23T15:54:32.999Z</time></trkpt><trkpt lat="50.91418032975237" lon="4.9966575611497115"><ele>54.666666666666664</ele><time>2026-04-23T15:54:33.999Z</time></trkpt><trkpt lat="50.91415109809411" lon="4.996945152847791"><ele>55.0</ele><time>2026-04-23T15:54:34.999Z</time></trkpt><trkpt lat="50.914106176526865" lon="4.997211699551365"><ele>54.5</ele><time>2026-04-23T15:54:35.999Z</time></trkpt><trkpt lat="50.914080559226214" lon="4.99745342959416"><ele>54.0</ele><time>2026-04-23T15:54:36.999Z</time></trkpt><trkpt lat="50.91405742837286" lon="4.997671265009094"><ele>53.5</ele><time>2026-04-23T15:54:37.999Z</time></trkpt><trkpt lat="50.91403540189881" lon="4.997875674572276"><ele>53.0</ele><time>2026-04-23T15:54:38.999Z</time></trkpt><trkpt lat="50.91401505101423" lon="4.998064534682467"><ele>53.0</ele><time>2026-04-23T15:54:39.999Z</time></trkpt><trkpt lat="50.91399537059005" lon="4.998247172986409"><ele>53.0</ele><time>2026-04-23T15:54:40.999Z</time></trkpt><trkpt lat="50.91397468192118" lon="4.9984391679783355"><ele>53.0</ele><time>2026-04-23T15:54:41.999Z</time></trkpt><trkpt lat="50.913953257817944" lon="4.998637988218112"><ele>53.0</ele><time>2026-04-23T15:54:42.999Z</time></trkpt><trkpt lat="50.9139325655528" lon="4.998831751844462"><ele>53.0</ele><time>2026-04-23T15:54:43.999Z</time></trkpt><trkpt lat="50.91391197630712" lon="4.999028844718999"><ele>53.0</ele><time>2026-04-23T15:54:44.999Z</time></trkpt><trkpt lat="50.91389218310455" lon="4.999218317434524"><ele>53.0</ele><time>2026-04-23T15:54:45.999Z</time></trkpt><trkpt lat="50.91387200170533" lon="4.999411506129542"><ele>53.0</ele><time>2026-04-23T15:54:46.999Z</time></trkpt><trkpt lat="50.91385157445005" lon="4.999607048339979"><ele>53.0</ele><time>2026-04-23T15:54:47.999Z</time></trkpt><trkpt lat="50.91383072306417" lon="4.999805824990786"><ele>53.0</ele><time>2026-04-23T15:54:48.999Z</time></trkpt><trkpt lat="50.91380935611026" lon="5.000005406441609"><ele>53.0</ele><time>2026-04-23T15:54:49.999Z</time></trkpt><trkpt lat="50.91378789347698" lon="5.0002100682345185"><ele>53.0</ele><time>2026-04-23T15:54:50.999Z</time></trkpt><trkpt lat="50.913767330821734" lon="5.000407375062085"><ele>53.0</ele><time>2026-04-23T15:54:51.999Z</time></trkpt><trkpt lat="50.913760532314086" lon="5.000620732817864"><ele>53.0</ele><time>2026-04-23T15:54:52.999Z</time></trkpt><trkpt lat="50.913740160626595" lon="5.000819077642869"><ele>53.0</ele><time>2026-04-23T15:54:53.999Z</time></trkpt><trkpt lat="50.91371947725742" lon="5.000998084702738"><ele>53.0</ele><time>2026-04-23T15:54:54.999Z</time></trkpt><trkpt lat="50.913686502523454" lon="5.001175070657113"><ele>52.75</ele><time>2026-04-23T15:54:55.999Z</time></trkpt><trkpt lat="50.91367526728782" lon="5.001361567691071"><ele>52.5</ele><time>2026-04-23T15:54:56.999Z</time></trkpt><trkpt lat="50.91366770750653" lon="5.001544551632667"><ele>52.25</ele><time>2026-04-23T15:54:57.999Z</time></trkpt><trkpt lat="50.91366096297987" lon="5.001723035576571"><ele>52.0</ele><time>2026-04-23T15:54:58.999Z</time></trkpt><trkpt lat="50.913652124694856" lon="5.00190458559737"><ele>52.5</ele><time>2026-04-23T15:54:59.999Z</time></trkpt><trkpt lat="50.91365714479468" lon="5.002088531381202"><ele>53.0</ele><time>2026-04-23T15:55:00.999Z</time></trkpt><trkpt lat="50.9136774588874" lon="5.002364283861696"><ele>53.5</ele><time>2026-04-23T15:55:01.999Z</time></trkpt><trkpt lat="50.913693143996724" lon="5.002578583020522"><ele>54.0</ele><time>2026-04-23T15:55:02.999Z</time></trkpt><trkpt lat="50.91371047987105" lon="5.0027944539903375"><ele>54.0</ele><time>2026-04-23T15:55:03.999Z</time></trkpt><trkpt lat="50.913734379748355" lon="5.003013061130578"><ele>54.0</ele><time>2026-04-23T15:55:04.999Z</time></trkpt><trkpt lat="50.913763680541265" lon="5.003229901538776"><ele>54.0</ele><time>2026-04-23T15:55:05.998Z</time></trkpt><trkpt lat="50.91379383410699" lon="5.003445738854414"><ele>54.0</ele><time>2026-04-23T15:55:06.998Z</time></trkpt><trkpt lat="50.913823349173825" lon="5.0036585325476715"><ele>54.25</ele><time>2026-04-23T15:55:07.998Z</time></trkpt><trkpt lat="50.91385419367202" lon="5.00387977877009"><ele>54.5</ele><time>2026-04-23T15:55:08.998Z</time></trkpt><trkpt lat="50.91387861542991" lon="5.0040950092406815"><ele>54.75</ele><time>2026-04-23T15:55:09.998Z</time></trkpt><trkpt lat="50.91390424067145" lon="5.004307556298858"><ele>55.0</ele><time>2026-04-23T15:55:10.998Z</time></trkpt><trkpt lat="50.91389988381788" lon="5.004520445040577"><ele>55.25</ele><time>2026-04-23T15:55:11.998Z</time></trkpt><trkpt lat="50.91390523898263" lon="5.004728833500187"><ele>55.5</ele><time>2026-04-23T15:55:12.998Z</time></trkpt><trkpt lat="50.913897343808756" lon="5.004931122025043"><ele>55.75</ele><time>2026-04-23T15:55:13.998Z</time></trkpt><trkpt lat="50.91388314408264" lon="5.005146674836648"><ele>56.0</ele><time>2026-04-23T15:55:14.998Z</time></trkpt><trkpt lat="50.91385853241972" lon="5.00536525143941"><ele>56.5</ele><time>2026-04-23T15:55:15.998Z</time></trkpt><trkpt lat="50.913829934088014" lon="5.005591986566683"><ele>57.0</ele><time>2026-04-23T15:55:16.998Z</time></trkpt><trkpt lat="50.9137984885004" lon="5.0058239140637"><ele>57.5</ele><time>2026-04-23T15:55:17.998Z</time></trkpt><trkpt lat="50.91376772346475" lon="5.006058537369922"><ele>58.0</ele><time>2026-04-23T15:55:18.998Z</time></trkpt><trkpt lat="50.9137370844989" lon="5.006293068551098"><ele>58.666666666666664</ele><time>2026-04-23T15:55:19.998Z</time></trkpt><trkpt lat="50.91372439581142" lon="5.006522248827029"><ele>59.33333333333333</ele><time>2026-04-23T15:55:20.998Z</time></trkpt><trkpt lat="50.913677684010636" lon="5.006752758721586"><ele>60.0</ele><time>2026-04-23T15:55:21.998Z</time></trkpt><trkpt lat="50.91364678972239" lon="5.006991844331908"><ele>60.66666666666667</ele><time>2026-04-23T15:55:22.998Z</time></trkpt><trkpt lat="50.91361557270158" lon="5.0072396070224725"><ele>61.333333333333336</ele><time>2026-04-23T15:55:23.998Z</time></trkpt><trkpt lat="50.913584874595394" lon="5.007487664788103"><ele>62.0</ele><time>2026-04-23T15:55:24.998Z</time></trkpt><trkpt lat="50.91357064985499" lon="5.007739348321582"><ele>62.25</ele><time>2026-04-23T15:55:26Z</time></trkpt><trkpt lat="50.91353717208377" lon="5.0079707786031475"><ele>62.5</ele><time>2026-04-23T15:55:27Z</time></trkpt><trkpt lat="50.91351021319892" lon="5.008186393735116"><ele>62.75</ele><time>2026-04-23T15:55:28Z</time></trkpt><trkpt lat="50.913482978322314" lon="5.008399218368543"><ele>63.0</ele><time>2026-04-23T15:55:29Z</time></trkpt><trkpt lat="50.9134601077397" lon="5.008599194694685"><ele>63.0</ele><time>2026-04-23T15:55:30Z</time></trkpt><trkpt lat="50.91344157884407" lon="5.008802709805479"><ele>63.0</ele><time>2026-04-23T15:55:31Z</time></trkpt><trkpt lat="50.91343977606805" lon="5.0090116295345855"><ele>63.0</ele><time>2026-04-23T15:55:32Z</time></trkpt><trkpt lat="50.913456496464136" lon="5.0092236422692045"><ele>63.0</ele><time>2026-04-23T15:55:33Z</time></trkpt><trkpt lat="50.913495712070194" lon="5.009410411906644"><ele>62.2</ele><time>2026-04-23T15:55:34Z</time></trkpt><trkpt lat="50.91354117131758" lon="5.009567055388815"><ele>61.4</ele><time>2026-04-23T15:55:35Z</time></trkpt><trkpt lat="50.91358568071174" lon="5.009706043078174"><ele>60.60000000000001</ele><time>2026-04-23T15:55:36Z</time></trkpt><trkpt lat="50.9136254977754" lon="5.009838992299955"><ele>59.800000000000004</ele><time>2026-04-23T15:55:37Z</time></trkpt><trkpt lat="50.91365579176414" lon="5.009957226317028"><ele>59.0</ele><time>2026-04-23T15:55:38Z</time></trkpt><trkpt lat="50.91368507770374" lon="5.0100684412094205"><ele>58.833333333333336</ele><time>2026-04-23T15:55:39Z</time></trkpt><trkpt lat="50.91371923100956" lon="5.0101762315825"><ele>58.66666666666667</ele><time>2026-04-23T15:55:40Z</time></trkpt><trkpt lat="50.913735182336595" lon="5.010295237108524"><ele>58.5</ele><time>2026-04-23T15:55:41Z</time></trkpt><trkpt lat="50.91377049437134" lon="5.010427122068803"><ele>58.33333333333333</ele><time>2026-04-23T15:55:42Z</time></trkpt><trkpt lat="50.91380692729941" lon="5.010563193406206"><ele>58.166666666666664</ele><time>2026-04-23T15:55:43Z</time></trkpt><trkpt lat="50.91385966693971" lon="5.010707725665004"><ele>58.0</ele><time>2026-04-23T15:55:44Z</time></trkpt><trkpt lat="50.91390008652852" lon="5.01087358487791"><ele>57.75</ele><time>2026-04-23T15:55:45Z</time></trkpt><trkpt lat="50.913944570667084" lon="5.0110355050821695"><ele>57.5</ele><time>2026-04-23T15:55:46Z</time></trkpt><trkpt lat="50.91399319074822" lon="5.011207756106121"><ele>57.25</ele><time>2026-04-23T15:55:47Z</time></trkpt><trkpt lat="50.91404484977603" lon="5.01138066308685"><ele>57.0</ele><time>2026-04-23T15:55:48Z</time></trkpt><trkpt lat="50.914080014886" lon="5.011577381280855"><ele>56.75</ele><time>2026-04-23T15:55:49Z</time></trkpt><trkpt lat="50.91413147373858" lon="5.011778189670502"><ele>56.5</ele><time>2026-04-23T15:55:50Z</time></trkpt><trkpt lat="50.91418048218864" lon="5.01198758212943"><ele>56.25</ele><time>2026-04-23T15:55:51Z</time></trkpt><trkpt lat="50.914236063452336" lon="5.012197839985538"><ele>56.0</ele><time>2026-04-23T15:55:52Z</time></trkpt><trkpt lat="50.914279972903536" lon="5.01242428294681"><ele>57.0</ele><time>2026-04-23T15:55:53Z</time></trkpt><trkpt lat="50.91432521692627" lon="5.012650079056824"><ele>58.0</ele><time>2026-04-23T15:55:54Z</time></trkpt><trkpt lat="50.91436774561244" lon="5.012885180045917"><ele>59.0</ele><time>2026-04-23T15:55:55Z</time></trkpt><trkpt lat="50.91440627906324" lon="5.013111561382762"><ele>58.66666666666667</ele><time>2026-04-23T15:55:56Z</time></trkpt><trkpt lat="50.91444309176905" lon="5.013343559211379"><ele>58.33333333333333</ele><time>2026-04-23T15:55:57Z</time></trkpt><trkpt lat="50.9144785301574" lon="5.013581513977779"><ele>58.0</ele><time>2026-04-23T15:55:58Z</time></trkpt><trkpt lat="50.91451501552568" lon="5.013811664912532"><ele>58.0</ele><time>2026-04-23T15:55:59Z</time></trkpt><trkpt lat="50.91455387281559" lon="5.014049769699168"><ele>58.0</ele><time>2026-04-23T15:56:00Z</time></trkpt><trkpt lat="50.91458252388291" lon="5.014275548023941"><ele>58.0</ele><time>2026-04-23T15:56:01Z</time></trkpt><trkpt lat="50.91462067551918" lon="5.01449946512225"><ele>58.0</ele><time>2026-04-23T15:56:02Z</time></trkpt><trkpt lat="50.91465402381983" lon="5.01472845771497"><ele>57.666666666666664</ele><time>2026-04-23T15:56:03Z</time></trkpt><trkpt lat="50.91468992926867" lon="5.0149543969410075"><ele>57.33333333333333</ele><time>2026-04-23T15:56:04Z</time></trkpt><trkpt lat="50.91472454919276" lon="5.015185846933688"><ele>57.0</ele><time>2026-04-23T15:56:05Z</time></trkpt><trkpt lat="50.91476311906116" lon="5.015420540166849"><ele>56.66666666666667</ele><time>2026-04-23T15:56:06Z</time></trkpt><trkpt lat="50.91480003810019" lon="5.015656984870258"><ele>56.333333333333336</ele><time>2026-04-23T15:56:07Z</time></trkpt><trkpt lat="50.914835493908946" lon="5.015900676345408"><ele>56.0</ele><time>2026-04-23T15:56:08Z</time></trkpt><trkpt lat="50.914869722738764" lon="5.016139070458962"><ele>55.333333333333336</ele><time>2026-04-23T15:56:09Z</time></trkpt><trkpt lat="50.91490015682151" lon="5.0163846438221755"><ele>54.66666666666667</ele><time>2026-04-23T15:56:10Z</time></trkpt><trkpt lat="50.91492786633592" lon="5.01661903884076"><ele>54.0</ele><time>2026-04-23T15:56:11Z</time></trkpt><trkpt lat="50.914938692084014" lon="5.016867194272989"><ele>53.66666666666667</ele><time>2026-04-23T15:56:12Z</time></trkpt><trkpt lat="50.91497729394453" lon="5.017106671065159"><ele>53.333333333333336</ele><time>2026-04-23T15:56:13Z</time></trkpt><trkpt lat="50.91500080054051" lon="5.01735346635703"><ele>53.0</ele><time>2026-04-23T15:56:14Z</time></trkpt><trkpt lat="50.91502308734212" lon="5.017594541768952"><ele>52.66666666666667</ele><time>2026-04-23T15:56:15Z</time></trkpt><trkpt lat="50.91504568389118" lon="5.017838760990085"><ele>52.33333333333333</ele><time>2026-04-23T15:56:16Z</time></trkpt><trkpt lat="50.91505281663914" lon="5.0180928997528405"><ele>52.0</ele><time>2026-04-23T15:56:16.999Z</time></trkpt><trkpt lat="50.91507550249403" lon="5.018343602860147"><ele>51.33333333333333</ele><time>2026-04-23T15:56:17.999Z</time></trkpt><trkpt lat="50.915099857437504" lon="5.018602734123984"><ele>50.66666666666667</ele><time>2026-04-23T15:56:18.999Z</time></trkpt><trkpt lat="50.915123420756224" lon="5.018864161904873"><ele>50.0</ele><time>2026-04-23T15:56:19.999Z</time></trkpt><trkpt lat="50.91514808146635" lon="5.019134058045887"><ele>49.333333333333336</ele><time>2026-04-23T15:56:20.999Z</time></trkpt><trkpt lat="50.91518985772013" lon="5.019405489669345"><ele>48.66666666666667</ele><time>2026-04-23T15:56:21.999Z</time></trkpt><trkpt lat="50.915198232070075" lon="5.019672416045327"><ele>48.0</ele><time>2026-04-23T15:56:22.999Z</time></trkpt><trkpt lat="50.91524205359624" lon="5.019937958174646"><ele>48.0</ele><time>2026-04-23T15:56:23.999Z</time></trkpt><trkpt lat="50.91527037045741" lon="5.020211852691641"><ele>48.0</ele><time>2026-04-23T15:56:24.999Z</time></trkpt><trkpt lat="50.91529719141603" lon="5.020478756204793"><ele>48.0</ele><time>2026-04-23T15:56:25.999Z</time></trkpt><trkpt lat="50.915308122719566" lon="5.0207540466300795"><ele>48.33333333333333</ele><time>2026-04-23T15:56:26.999Z</time></trkpt><trkpt lat="50.915337833635284" lon="5.021017399150903"><ele>48.666666666666664</ele><time>2026-04-23T15:56:27.999Z</time></trkpt><trkpt lat="50.91536760122599" lon="5.021281396403464"><ele>49.0</ele><time>2026-04-23T15:56:28.999Z</time></trkpt><trkpt lat="50.91539722055935" lon="5.021541234072745"><ele>49.0</ele><time>2026-04-23T15:56:29.999Z</time></trkpt><trkpt lat="50.91543019973157" lon="5.0218021811127525"><ele>49.0</ele><time>2026-04-23T15:56:30.999Z</time></trkpt><trkpt lat="50.915464730378126" lon="5.022074762989178"><ele>49.0</ele><time>2026-04-23T15:56:31.999Z</time></trkpt><trkpt lat="50.915500577525265" lon="5.022340150466326"><ele>49.33333333333333</ele><time>2026-04-23T15:56:32.999Z</time></trkpt><trkpt lat="50.91554884369796" lon="5.022595749500082"><ele>49.66666666666667</ele><time>2026-04-23T15:56:33.999Z</time></trkpt><trkpt lat="50.91557972245224" lon="5.0228612363809715"><ele>50.0</ele><time>2026-04-23T15:56:34.999Z</time></trkpt><trkpt lat="50.915612030764514" lon="5.02313206064112"><ele>49.333333333333336</ele><time>2026-04-23T15:56:35.999Z</time></trkpt><trkpt lat="50.915646240427805" lon="5.023395720034171"><ele>48.66666666666667</ele><time>2026-04-23T15:56:36.999Z</time></trkpt><trkpt lat="50.91565658573838" lon="5.023658447904019"><ele>48.0</ele><time>2026-04-23T15:56:37.999Z</time></trkpt><trkpt lat="50.915682223246975" lon="5.023917472213419"><ele>48.0</ele><time>2026-04-23T15:56:38.999Z</time></trkpt><trkpt lat="50.91572079351876" lon="5.0241694213394394"><ele>48.0</ele><time>2026-04-23T15:56:39.999Z</time></trkpt><trkpt lat="50.915740194612354" lon="5.024421111884031"><ele>48.0</ele><time>2026-04-23T15:56:40.999Z</time></trkpt><trkpt lat="50.91575687473447" lon="5.02466889023121"><ele>48.0</ele><time>2026-04-23T15:56:41.999Z</time></trkpt><trkpt lat="50.91577123402824" lon="5.024913864675667"><ele>48.0</ele><time>2026-04-23T15:56:42.999Z</time></trkpt><trkpt lat="50.915785110544235" lon="5.025166456543619"><ele>48.0</ele><time>2026-04-23T15:56:43.999Z</time></trkpt><trkpt lat="50.915787743086504" lon="5.025413964488822"><ele>47.666666666666664</ele><time>2026-04-23T15:56:44.999Z</time></trkpt><trkpt lat="50.915829747668226" lon="5.02566091004632"><ele>47.33333333333333</ele><time>2026-04-23T15:56:45.999Z</time></trkpt><trkpt lat="50.91585979444901" lon="5.025907624032183"><ele>47.0</ele><time>2026-04-23T15:56:46.999Z</time></trkpt><trkpt lat="50.91590076715346" lon="5.026148427993331"><ele>47.33333333333333</ele><time>2026-04-23T15:56:47.999Z</time></trkpt><trkpt lat="50.91594989072199" lon="5.026392120688131"><ele>47.666666666666664</ele><time>2026-04-23T15:56:48.999Z</time></trkpt><trkpt lat="50.91601226805886" lon="5.026623713358803"><ele>48.0</ele><time>2026-04-23T15:56:49.999Z</time></trkpt><trkpt lat="50.91608085063268" lon="5.026840807489206"><ele>48.33333333333333</ele><time>2026-04-23T15:56:50.999Z</time></trkpt><trkpt lat="50.916151733465455" lon="5.027067072003053"><ele>48.666666666666664</ele><time>2026-04-23T15:56:51.999Z</time></trkpt><trkpt lat="50.91622975953573" lon="5.027273617945381"><ele>49.0</ele><time>2026-04-23T15:56:52.999Z</time></trkpt><trkpt lat="50.91631398688285" lon="5.027476474376222"><ele>49.33333333333333</ele><time>2026-04-23T15:56:53.999Z</time></trkpt><trkpt lat="50.9164006391507" lon="5.027673789322648"><ele>49.66666666666667</ele><time>2026-04-23T15:56:54.999Z</time></trkpt><trkpt lat="50.91648300341136" lon="5.027867460907544"><ele>50.0</ele><time>2026-04-23T15:56:55.999Z</time></trkpt><trkpt lat="50.91657092520496" lon="5.028062582831152"><ele>50.0</ele><time>2026-04-23T15:56:56.999Z</time></trkpt><trkpt lat="50.916650221341364" lon="5.028252031883447"><ele>50.0</ele><time>2026-04-23T15:56:57.999Z</time></trkpt><trkpt lat="50.91673079497835" lon="5.028442750878814"><ele>50.0</ele><time>2026-04-23T15:56:58.999Z</time></trkpt><trkpt lat="50.916805519607955" lon="5.0286279376645995"><ele>50.0</ele><time>2026-04-23T15:56:59.999Z</time></trkpt><trkpt lat="50.91687662079125" lon="5.028813090375556"><ele>50.5</ele><time>2026-04-23T15:57:00.999Z</time></trkpt><trkpt lat="50.91695090225396" lon="5.028989446813067"><ele>51.0</ele><time>2026-04-23T15:57:01.999Z</time></trkpt><trkpt lat="50.91702071089199" lon="5.029162012198541"><ele>51.5</ele><time>2026-04-23T15:57:02.999Z</time></trkpt><trkpt lat="50.917086048522165" lon="5.029341316858942"><ele>52.0</ele><time>2026-04-23T15:57:03.999Z</time></trkpt><trkpt lat="50.91711220530028" lon="5.029552830486387"><ele>52.5</ele><time>2026-04-23T15:57:04.999Z</time></trkpt><trkpt lat="50.91713876149686" lon="5.029755949261121"><ele>53.0</ele><time>2026-04-23T15:57:05.999Z</time></trkpt><trkpt lat="50.91715001685951" lon="5.029953331814407"><ele>53.5</ele><time>2026-04-23T15:57:06.999Z</time></trkpt><trkpt lat="50.917144520347634" lon="5.030165211851322"><ele>54.0</ele><time>2026-04-23T15:57:07.998Z</time></trkpt><trkpt lat="50.91711962688555" lon="5.030368124715488"><ele>54.5</ele><time>2026-04-23T15:57:08.998Z</time></trkpt><trkpt lat="50.9170903747664" lon="5.030569721060593"><ele>55.0</ele><time>2026-04-23T15:57:09.998Z</time></trkpt><trkpt lat="50.91706261280675" lon="5.030765361678029"><ele>55.5</ele><time>2026-04-23T15:57:10.998Z</time></trkpt><trkpt lat="50.91703772181084" lon="5.030941058935525"><ele>56.0</ele><time>2026-04-23T15:57:11.998Z</time></trkpt><trkpt lat="50.917013007158516" lon="5.031116145147119"><ele>56.199999999999996</ele><time>2026-04-23T15:57:12.998Z</time></trkpt><trkpt lat="50.916990031612364" lon="5.031278911031454"><ele>56.39999999999999</ele><time>2026-04-23T15:57:13.998Z</time></trkpt><trkpt lat="50.91696617427826" lon="5.031447923771033"><ele>56.6</ele><time>2026-04-23T15:57:14.998Z</time></trkpt><trkpt lat="50.91694899677805" lon="5.031596199116253"><ele>56.8</ele><time>2026-04-23T15:57:15.998Z</time></trkpt><trkpt lat="50.91694801989302" lon="5.031728440598286"><ele>57.0</ele><time>2026-04-23T15:57:16.998Z</time></trkpt><trkpt lat="50.91693135308133" lon="5.031839059218432"><ele>57.0</ele><time>2026-04-23T15:57:17.998Z</time></trkpt><trkpt lat="50.91690293758511" lon="5.032008574747423"><ele>57.0</ele><time>2026-04-23T15:57:19.998Z</time></trkpt><trkpt lat="50.91685380983988" lon="5.032150992966705"><ele>57.0</ele><time>2026-04-23T15:57:21.998Z</time></trkpt><trkpt lat="50.91680178827997" lon="5.0322434527810485"><ele>57.0</ele><time>2026-04-23T15:57:22.998Z</time></trkpt><trkpt lat="50.91672274514184" lon="5.032335321185285"><ele>57.0</ele><time>2026-04-23T15:57:23.998Z</time></trkpt><trkpt lat="50.916625360442616" lon="5.032359769527815"><ele>57.0</ele><time>2026-04-23T15:57:24.998Z</time></trkpt><trkpt lat="50.91651981868652" lon="5.0324399290380875"><ele>57.0</ele><time>2026-04-23T15:57:25.998Z</time></trkpt><trkpt lat="50.91639280422744" lon="5.032493756300929"><ele>57.0</ele><time>2026-04-23T15:57:26.998Z</time></trkpt><trkpt lat="50.916260835328146" lon="5.032572037086329"><ele>57.0</ele><time>2026-04-23T15:57:27.998Z</time></trkpt><trkpt lat="50.91613705977785" lon="5.032661202250553"><ele>57.33333333333333</ele><time>2026-04-23T15:57:28.998Z</time></trkpt><trkpt lat="50.91600318063885" lon="5.03274877690675"><ele>57.666666666666664</ele><time>2026-04-23T15:57:29.998Z</time></trkpt><trkpt lat="50.91585652852341" lon="5.032818878388621"><ele>58.0</ele><time>2026-04-23T15:57:30.998Z</time></trkpt><trkpt lat="50.91571150383046" lon="5.032916464811397"><ele>58.0</ele><time>2026-04-23T15:57:32Z</time></trkpt><trkpt lat="50.91556516092383" lon="5.03301482803657"><ele>58.0</ele><time>2026-04-23T15:57:33Z</time></trkpt><trkpt lat="50.91541334367322" lon="5.033116659146313"><ele>58.0</ele><time>2026-04-23T15:57:34Z</time></trkpt><trkpt lat="50.91526380276449" lon="5.033216833094612"><ele>58.0</ele><time>2026-04-23T15:57:35Z</time></trkpt><trkpt lat="50.91510882040511" lon="5.033320652095867"><ele>58.0</ele><time>2026-04-23T15:57:36Z</time></trkpt><trkpt lat="50.9149516018619" lon="5.033427479518529"><ele>58.0</ele><time>2026-04-23T15:57:37Z</time></trkpt><trkpt lat="50.914790514691354" lon="5.0335376255359225"><ele>58.33333333333333</ele><time>2026-04-23T15:57:38Z</time></trkpt><trkpt lat="50.914628380896104" lon="5.0336484867910585"><ele>58.66666666666667</ele><time>2026-04-23T15:57:39Z</time></trkpt><trkpt lat="50.91446399277514" lon="5.0337608896741415"><ele>59.0</ele><time>2026-04-23T15:57:40Z</time></trkpt><trkpt lat="50.91429700821311" lon="5.03387784970188"><ele>59.0</ele><time>2026-04-23T15:57:41Z</time></trkpt><trkpt lat="50.914135232184236" lon="5.034012074449958"><ele>59.0</ele><time>2026-04-23T15:57:42Z</time></trkpt><trkpt lat="50.914004179683154" lon="5.0342099502800375"><ele>59.0</ele><time>2026-04-23T15:57:43Z</time></trkpt><trkpt lat="50.913891636589945" lon="5.034443938450777"><ele>59.0</ele><time>2026-04-23T15:57:44Z</time></trkpt><trkpt lat="50.913815590820754" lon="5.03470511525488"><ele>59.0</ele><time>2026-04-23T15:57:45Z</time></trkpt><trkpt lat="50.91376078311137" lon="5.03496623475217"><ele>59.0</ele><time>2026-04-23T15:57:46Z</time></trkpt><trkpt lat="50.91368664099394" lon="5.035221618486762"><ele>58.66666666666667</ele><time>2026-04-23T15:57:47Z</time></trkpt><trkpt lat="50.91361806907479" lon="5.035472853005885"><ele>58.33333333333333</ele><time>2026-04-23T15:57:48Z</time></trkpt><trkpt lat="50.913540709391015" lon="5.035717763199655"><ele>58.0</ele><time>2026-04-23T15:57:49Z</time></trkpt><trkpt lat="50.91342786363377" lon="5.035944277166631"><ele>59.0</ele><time>2026-04-23T15:57:50Z</time></trkpt><trkpt lat="50.91330956712123" lon="5.036157144238613"><ele>60.0</ele><time>2026-04-23T15:57:51Z</time></trkpt><trkpt lat="50.91318673029753" lon="5.036375702197023"><ele>61.0</ele><time>2026-04-23T15:57:52Z</time></trkpt><trkpt lat="50.91308275935903" lon="5.036612757278163"><ele>60.666666666666664</ele><time>2026-04-23T15:57:53Z</time></trkpt><trkpt lat="50.91299029468634" lon="5.036868907225242"><ele>60.33333333333333</ele><time>2026-04-23T15:57:54Z</time></trkpt><trkpt lat="50.91291922111136" lon="5.037136256301987"><ele>60.0</ele><time>2026-04-23T15:57:55Z</time></trkpt><trkpt lat="50.912866473194526" lon="5.037423257489019"><ele>60.0</ele><time>2026-04-23T15:57:56Z</time></trkpt><trkpt lat="50.91284466057859" lon="5.037699848467927"><ele>60.0</ele><time>2026-04-23T15:57:57Z</time></trkpt><trkpt lat="50.912833925017615" lon="5.038008861993547"><ele>60.0</ele><time>2026-04-23T15:57:58Z</time></trkpt><trkpt lat="50.9128308604308" lon="5.038286664352401"><ele>60.0</ele><time>2026-04-23T15:57:59Z</time></trkpt><trkpt lat="50.91282599950827" lon="5.038587373962676"><ele>60.0</ele><time>2026-04-23T15:58:00Z</time></trkpt><trkpt lat="50.91281633260653" lon="5.038870108737783"><ele>60.0</ele><time>2026-04-23T15:58:01Z</time></trkpt><trkpt lat="50.912803048143026" lon="5.039155994877761"><ele>59.33333333333333</ele><time>2026-04-23T15:58:02Z</time></trkpt><trkpt lat="50.91279281372563" lon="5.039425147804976"><ele>58.666666666666664</ele><time>2026-04-23T15:58:03Z</time></trkpt><trkpt lat="50.912782599575294" lon="5.039696171605736"><ele>58.0</ele><time>2026-04-23T15:58:04Z</time></trkpt><trkpt lat="50.912770522612405" lon="5.039966050494541"><ele>57.0</ele><time>2026-04-23T15:58:05Z</time></trkpt><trkpt lat="50.912759147414924" lon="5.040239414966112"><ele>56.0</ele><time>2026-04-23T15:58:06Z</time></trkpt><trkpt lat="50.9127487544123" lon="5.040509142897693"><ele>55.0</ele><time>2026-04-23T15:58:07Z</time></trkpt><trkpt lat="50.91273786740428" lon="5.040782795353712"><ele>54.33333333333333</ele><time>2026-04-23T15:58:08Z</time></trkpt><trkpt lat="50.912727317102046" lon="5.041062297508077"><ele>53.66666666666667</ele><time>2026-04-23T15:58:09Z</time></trkpt><trkpt lat="50.91269952455168" lon="5.041313589449273"><ele>53.0</ele><time>2026-04-23T15:58:10Z</time></trkpt><trkpt lat="50.912704638275876" lon="5.041580386125698"><ele>52.333333333333336</ele><time>2026-04-23T15:58:11Z</time></trkpt><trkpt lat="50.912690524523754" lon="5.041850801233559"><ele>51.66666666666667</ele><time>2026-04-23T15:58:12Z</time></trkpt><trkpt lat="50.91265582892304" lon="5.042119948255845"><ele>51.0</ele><time>2026-04-23T15:58:13Z</time></trkpt><trkpt lat="50.912647657833794" lon="5.042391790822609"><ele>50.33333333333333</ele><time>2026-04-23T15:58:14Z</time></trkpt><trkpt lat="50.912622155784405" lon="5.042658979180868"><ele>49.666666666666664</ele><time>2026-04-23T15:58:15Z</time></trkpt><trkpt lat="50.91259566008529" lon="5.0429257998330455"><ele>49.0</ele><time>2026-04-23T15:58:16Z</time></trkpt><trkpt lat="50.91256531194799" lon="5.043198418777709"><ele>48.0</ele><time>2026-04-23T15:58:16.999Z</time></trkpt><trkpt lat="50.91253859110185" lon="5.043461049195567"><ele>47.0</ele><time>2026-04-23T15:58:17.999Z</time></trkpt><trkpt lat="50.91250693895409" lon="5.043724838702233"><ele>46.0</ele><time>2026-04-23T15:58:18.999Z</time></trkpt><trkpt lat="50.91247348520123" lon="5.04399444026864"><ele>44.66666666666667</ele><time>2026-04-23T15:58:19.999Z</time></trkpt><trkpt lat="50.91244374267651" lon="5.044260332641078"><ele>43.333333333333336</ele><time>2026-04-23T15:58:20.999Z</time></trkpt><trkpt lat="50.912412387215106" lon="5.044534055578866"><ele>42.0</ele><time>2026-04-23T15:58:21.999Z</time></trkpt><trkpt lat="50.912362910430126" lon="5.0447982697517215"><ele>41.333333333333336</ele><time>2026-04-23T15:58:22.999Z</time></trkpt><trkpt lat="50.912330519350235" lon="5.045072483582926"><ele>40.66666666666667</ele><time>2026-04-23T15:58:23.999Z</time></trkpt><trkpt lat="50.91229684250994" lon="5.045343900835192"><ele>40.0</ele><time>2026-04-23T15:58:24.999Z</time></trkpt><trkpt lat="50.91226153597575" lon="5.045619897909601"><ele>39.0</ele><time>2026-04-23T15:58:25.999Z</time></trkpt><trkpt lat="50.912226650553166" lon="5.045899449257011"><ele>38.0</ele><time>2026-04-23T15:58:26.999Z</time></trkpt><trkpt lat="50.91219823884064" lon="5.046165343457272"><ele>37.0</ele><time>2026-04-23T15:58:27.999Z</time></trkpt><trkpt lat="50.9121505476683" lon="5.046423188752761"><ele>36.0</ele><time>2026-04-23T15:58:28.999Z</time></trkpt><trkpt lat="50.912102182700735" lon="5.046681663116974"><ele>35.0</ele><time>2026-04-23T15:58:29.999Z</time></trkpt><trkpt lat="50.912052855047186" lon="5.046941467743869"><ele>34.0</ele><time>2026-04-23T15:58:30.999Z</time></trkpt><trkpt lat="50.91199984948666" lon="5.047207400483277"><ele>34.0</ele><time>2026-04-23T15:58:31.999Z</time></trkpt><trkpt lat="50.91193331306194" lon="5.047452580090779"><ele>34.0</ele><time>2026-04-23T15:58:32.999Z</time></trkpt><trkpt lat="50.91188160990222" lon="5.047709242485269"><ele>34.0</ele><time>2026-04-23T15:58:33.999Z</time></trkpt><trkpt lat="50.91183031063125" lon="5.047963899891963"><ele>33.66666666666667</ele><time>2026-04-23T15:58:34.999Z</time></trkpt><trkpt lat="50.91177922720231" lon="5.048217485827104"><ele>33.333333333333336</ele><time>2026-04-23T15:58:35.999Z</time></trkpt><trkpt lat="50.91172734576433" lon="5.048475033214234"><ele>33.0</ele><time>2026-04-23T15:58:36.999Z</time></trkpt><trkpt lat="50.911674520603384" lon="5.0487312929120804"><ele>33.0</ele><time>2026-04-23T15:58:37.999Z</time></trkpt><trkpt lat="50.91162299124206" lon="5.048980688039094"><ele>33.0</ele><time>2026-04-23T15:58:38.999Z</time></trkpt><trkpt lat="50.91157165201423" lon="5.049229124874293"><ele>33.0</ele><time>2026-04-23T15:58:39.999Z</time></trkpt><trkpt lat="50.91152154495776" lon="5.049470987765616"><ele>32.75</ele><time>2026-04-23T15:58:40.999Z</time></trkpt><trkpt lat="50.911477310996695" lon="5.049685402714605"><ele>32.5</ele><time>2026-04-23T15:58:41.999Z</time></trkpt><trkpt lat="50.91143696427143" lon="5.04988182903835"><ele>32.25</ele><time>2026-04-23T15:58:42.999Z</time></trkpt><trkpt lat="50.91141635562772" lon="5.050066991901418"><ele>32.0</ele><time>2026-04-23T15:58:43.999Z</time></trkpt><trkpt lat="50.91136760754653" lon="5.050220842885146"><ele>31.833333333333332</ele><time>2026-04-23T15:58:44.999Z</time></trkpt><trkpt lat="50.911340580967206" lon="5.050353442199549"><ele>31.666666666666664</ele><time>2026-04-23T15:58:45.999Z</time></trkpt><trkpt lat="50.9113199415049" lon="5.050454777244564"><ele>31.5</ele><time>2026-04-23T15:58:46.999Z</time></trkpt><trkpt lat="50.91128733715882" lon="5.0506148570801015"><ele>31.333333333333336</ele><time>2026-04-23T15:58:48.999Z</time></trkpt><trkpt lat="50.911267477334036" lon="5.050712364277624"><ele>31.166666666666668</ele><time>2026-04-23T15:58:50.999Z</time></trkpt><trkpt lat="50.911230983709245" lon="5.050891539615069"><ele>31.0</ele><time>2026-04-23T15:58:53.999Z</time></trkpt><trkpt lat="50.91120416832521" lon="5.051023197055248"><ele>30.8</ele><time>2026-04-23T15:58:54.999Z</time></trkpt><trkpt lat="50.911173242297856" lon="5.05117503672395"><ele>30.6</ele><time>2026-04-23T15:58:55.999Z</time></trkpt><trkpt lat="50.91115193008348" lon="5.051279674822578"><ele>30.4</ele><time>2026-04-23T15:58:56.999Z</time></trkpt><trkpt lat="50.91112309478062" lon="5.051421307738891"><ele>30.2</ele><time>2026-04-23T15:58:57.999Z</time></trkpt><trkpt lat="50.9110871184586" lon="5.051598456932532"><ele>30.0</ele><time>2026-04-23T15:58:58.999Z</time></trkpt><trkpt lat="50.91104787809467" lon="5.0517918547233265"><ele>29.75</ele><time>2026-04-23T15:58:59.999Z</time></trkpt><trkpt lat="50.91100575851971" lon="5.052000160335798"><ele>29.5</ele><time>2026-04-23T15:59:00.999Z</time></trkpt><trkpt lat="50.91096151917018" lon="5.052220650358621"><ele>29.25</ele><time>2026-04-23T15:59:01.999Z</time></trkpt><trkpt lat="50.91091648870575" lon="5.052446993964584"><ele>29.0</ele><time>2026-04-23T15:59:02.999Z</time></trkpt><trkpt lat="50.91086980957634" lon="5.052681624509952"><ele>29.0</ele><time>2026-04-23T15:59:03.999Z</time></trkpt><trkpt lat="50.910833476778016" lon="5.05292444268467"><ele>29.0</ele><time>2026-04-23T15:59:04.999Z</time></trkpt><trkpt lat="50.91078380414581" lon="5.053156982595437"><ele>29.0</ele><time>2026-04-23T15:59:05.999Z</time></trkpt><trkpt lat="50.910737489505294" lon="5.0533965178314775"><ele>29.0</ele><time>2026-04-23T15:59:06.999Z</time></trkpt><trkpt lat="50.910689095009914" lon="5.053633081980061"><ele>29.0</ele><time>2026-04-23T15:59:07.998Z</time></trkpt><trkpt lat="50.91064032159322" lon="5.053876396938613"><ele>29.0</ele><time>2026-04-23T15:59:08.998Z</time></trkpt><trkpt lat="50.910592179759334" lon="5.054119043516092"><ele>29.0</ele><time>2026-04-23T15:59:09.998Z</time></trkpt><trkpt lat="50.91053031066471" lon="5.054345617124602"><ele>29.0</ele><time>2026-04-23T15:59:10.998Z</time></trkpt><trkpt lat="50.910496579148585" lon="5.054589181864169"><ele>29.0</ele><time>2026-04-23T15:59:11.998Z</time></trkpt><trkpt lat="50.910445217216555" lon="5.054831414607479"><ele>28.666666666666664</ele><time>2026-04-23T15:59:12.998Z</time></trkpt><trkpt lat="50.910381403671266" lon="5.05506356073676"><ele>28.333333333333336</ele><time>2026-04-23T15:59:13.998Z</time></trkpt><trkpt lat="50.91033202262137" lon="5.05530094006649"><ele>28.0</ele><time>2026-04-23T15:59:14.998Z</time></trkpt><trkpt lat="50.91028162452733" lon="5.055546432459719"><ele>28.0</ele><time>2026-04-23T15:59:15.998Z</time></trkpt><trkpt lat="50.91023603900344" lon="5.055773531233465"><ele>28.0</ele><time>2026-04-23T15:59:16.998Z</time></trkpt><trkpt lat="50.91020829265898" lon="5.05597505973444"><ele>28.0</ele><time>2026-04-23T15:59:17.998Z</time></trkpt><trkpt lat="50.91017765227094" lon="5.0561234319404385"><ele>28.0</ele><time>2026-04-23T15:59:18.998Z</time></trkpt><trkpt lat="50.910143202613355" lon="5.056273775083057"><ele>28.0</ele><time>2026-04-23T15:59:20.998Z</time></trkpt><trkpt lat="50.91011112297967" lon="5.056433372862326"><ele>27.999999999999996</ele><time>2026-04-23T15:59:22.998Z</time></trkpt><trkpt lat="50.91009062309902" lon="5.056531978327536"><ele>27.999999999999996</ele><time>2026-04-23T15:59:23.998Z</time></trkpt><trkpt lat="50.91005571972968" lon="5.05665715618484"><ele>28.0</ele><time>2026-04-23T15:59:24.998Z</time></trkpt><trkpt lat="50.91002810218536" lon="5.056787311376998"><ele>28.0</ele><time>2026-04-23T15:59:25.998Z</time></trkpt><trkpt lat="50.90999314454676" lon="5.056951900962879"><ele>28.0</ele><time>2026-04-23T15:59:26.998Z</time></trkpt><trkpt lat="50.909971313959176" lon="5.057124358478213"><ele>28.0</ele><time>2026-04-23T15:59:27.998Z</time></trkpt><trkpt lat="50.909930243493115" lon="5.0573012469163405"><ele>28.0</ele><time>2026-04-23T15:59:28.998Z</time></trkpt><trkpt lat="50.90989187426007" lon="5.057489753258544"><ele>28.0</ele><time>2026-04-23T15:59:29.998Z</time></trkpt><trkpt lat="50.90985688551413" lon="5.057681947385558"><ele>29.0</ele><time>2026-04-23T15:59:30.998Z</time></trkpt><trkpt lat="50.909812938031" lon="5.057874790340969"><ele>30.0</ele><time>2026-04-23T15:59:31.998Z</time></trkpt><trkpt lat="50.90973523677801" lon="5.058041642668226"><ele>31.0</ele><time>2026-04-23T15:59:32.998Z</time></trkpt><trkpt lat="50.90965059192638" lon="5.05819387210941"><ele>32.0</ele><time>2026-04-23T15:59:33.998Z</time></trkpt><trkpt lat="50.90956382834962" lon="5.058351914175144"><ele>32.5</ele><time>2026-04-23T15:59:34.998Z</time></trkpt><trkpt lat="50.909494298944715" lon="5.058510684504356"><ele>33.0</ele><time>2026-04-23T15:59:35.998Z</time></trkpt><trkpt lat="50.90940855962799" lon="5.058647549128398"><ele>33.5</ele><time>2026-04-23T15:59:37Z</time></trkpt><trkpt lat="50.9093427563719" lon="5.058808695331805"><ele>34.0</ele><time>2026-04-23T15:59:38Z</time></trkpt><trkpt lat="50.909286963813834" lon="5.058975037971094"><ele>34.25</ele><time>2026-04-23T15:59:39Z</time></trkpt><trkpt lat="50.90923292605367" lon="5.059147464939148"><ele>34.5</ele><time>2026-04-23T15:59:40Z</time></trkpt><trkpt lat="50.909178224733346" lon="5.059322009204494"><ele>34.75</ele><time>2026-04-23T15:59:41Z</time></trkpt><trkpt lat="50.90913075344063" lon="5.0594836202953255"><ele>35.0</ele><time>2026-04-23T15:59:42Z</time></trkpt><trkpt lat="50.909091617778266" lon="5.05961795523546"><ele>35.0</ele><time>2026-04-23T15:59:43Z</time></trkpt><trkpt lat="50.909060329158784" lon="5.059725354832152"><ele>35.0</ele><time>2026-04-23T15:59:44Z</time></trkpt><trkpt lat="50.9090136589263" lon="5.05988526851884"><ele>35.0</ele><time>2026-04-23T15:59:46Z</time></trkpt><trkpt lat="50.908997534148725" lon="5.059989224782693"><ele>35.0</ele><time>2026-04-23T15:59:48Z</time></trkpt><trkpt lat="50.908943647761696" lon="5.060127793355788"><ele>35.0</ele><time>2026-04-23T15:59:51Z</time></trkpt><trkpt lat="50.90891733488958" lon="5.060249625680889"><ele>35.0</ele><time>2026-04-23T15:59:52Z</time></trkpt><trkpt lat="50.908909334801265" lon="5.06038194091442"><ele>35.2</ele><time>2026-04-23T15:59:53Z</time></trkpt><trkpt lat="50.9088852624458" lon="5.060500069261398"><ele>35.4</ele><time>2026-04-23T15:59:54Z</time></trkpt><trkpt lat="50.908857237097045" lon="5.060650778971157"><ele>35.6</ele><time>2026-04-23T15:59:55Z</time></trkpt><trkpt lat="50.90882426253644" lon="5.060830676529128"><ele>35.8</ele><time>2026-04-23T15:59:56Z</time></trkpt><trkpt lat="50.908791919084166" lon="5.06102568815596"><ele>36.0</ele><time>2026-04-23T15:59:57Z</time></trkpt><trkpt lat="50.908759203617294" lon="5.061233422351677"><ele>36.25</ele><time>2026-04-23T15:59:58Z</time></trkpt><trkpt lat="50.90873108452896" lon="5.061454593024309"><ele>36.5</ele><time>2026-04-23T15:59:59Z</time></trkpt><trkpt lat="50.90870864927231" lon="5.061685230455534"><ele>36.75</ele><time>2026-04-23T16:00:00Z</time></trkpt><trkpt lat="50.908688204189694" lon="5.061930248159037"><ele>37.0</ele><time>2026-04-23T16:00:01Z</time></trkpt><trkpt lat="50.908666344348994" lon="5.062176005714231"><ele>37.0</ele><time>2026-04-23T16:00:02Z</time></trkpt><trkpt lat="50.90864346545081" lon="5.062412579497448"><ele>37.0</ele><time>2026-04-23T16:00:03Z</time></trkpt><trkpt lat="50.90860244017261" lon="5.0625926238079355"><ele>37.0</ele><time>2026-04-23T16:00:04Z</time></trkpt><trkpt lat="50.90856967148323" lon="5.062747456317714"><ele>37.0</ele><time>2026-04-23T16:00:05Z</time></trkpt><trkpt lat="50.908549967339695" lon="5.062901636940133"><ele>37.5</ele><time>2026-04-23T16:00:06Z</time></trkpt><trkpt lat="50.908499372802765" lon="5.063081194874046"><ele>38.0</ele><time>2026-04-23T16:00:07Z</time></trkpt><trkpt lat="50.90844743820961" lon="5.063277450272737"><ele>38.5</ele><time>2026-04-23T16:00:08Z</time></trkpt><trkpt lat="50.908392148123426" lon="5.063484932541329"><ele>39.0</ele><time>2026-04-23T16:00:09Z</time></trkpt><trkpt lat="50.90834316872407" lon="5.06367668383956"><ele>39.5</ele><time>2026-04-23T16:00:10Z</time></trkpt><trkpt lat="50.90829181415616" lon="5.063875856332378"><ele>40.0</ele><time>2026-04-23T16:00:11Z</time></trkpt><trkpt lat="50.9082432697804" lon="5.064073834847648"><ele>40.5</ele><time>2026-04-23T16:00:12Z</time></trkpt><trkpt lat="50.90819111550616" lon="5.064279138813409"><ele>41.0</ele><time>2026-04-23T16:00:13Z</time></trkpt><trkpt lat="50.90813683671063" lon="5.064497059671019"><ele>41.25</ele><time>2026-04-23T16:00:14Z</time></trkpt><trkpt lat="50.90807897124176" lon="5.064715360627548"><ele>41.5</ele><time>2026-04-23T16:00:15Z</time></trkpt><trkpt lat="50.90802418321791" lon="5.0649182921479"><ele>41.75</ele><time>2026-04-23T16:00:16Z</time></trkpt><trkpt lat="50.907964941238774" lon="5.065095458641915"><ele>42.0</ele><time>2026-04-23T16:00:17Z</time></trkpt><trkpt lat="50.90793185616722" lon="5.0652964917275956"><ele>42.25</ele><time>2026-04-23T16:00:17.999Z</time></trkpt><trkpt lat="50.90788452417867" lon="5.065486104776346"><ele>42.5</ele><time>2026-04-23T16:00:18.999Z</time></trkpt><trkpt lat="50.90783556443593" lon="5.0656735933380155"><ele>42.75</ele><time>2026-04-23T16:00:19.999Z</time></trkpt><trkpt lat="50.90777189650446" lon="5.065844734494726"><ele>43.0</ele><time>2026-04-23T16:00:20.999Z</time></trkpt><trkpt lat="50.90772148204095" lon="5.066031093426"><ele>43.25</ele><time>2026-04-23T16:00:21.999Z</time></trkpt><trkpt lat="50.90767321834656" lon="5.066221587587485"><ele>43.5</ele><time>2026-04-23T16:00:22.999Z</time></trkpt><trkpt lat="50.90762347016152" lon="5.06641788639892"><ele>43.75</ele><time>2026-04-23T16:00:23.999Z</time></trkpt><trkpt lat="50.907573840424256" lon="5.066614708106004"><ele>44.0</ele><time>2026-04-23T16:00:24.999Z</time></trkpt><trkpt lat="50.90752393602743" lon="5.06681615742806"><ele>44.0</ele><time>2026-04-23T16:00:25.999Z</time></trkpt><trkpt lat="50.90748460558607" lon="5.067033536670334"><ele>44.0</ele><time>2026-04-23T16:00:26.999Z</time></trkpt><trkpt lat="50.907432220687234" lon="5.0672407190675015"><ele>44.0</ele><time>2026-04-23T16:00:27.999Z</time></trkpt><trkpt lat="50.907378509183935" lon="5.067450966595332"><ele>44.0</ele><time>2026-04-23T16:00:28.999Z</time></trkpt><trkpt lat="50.90732771508297" lon="5.067670318661541"><ele>44.5</ele><time>2026-04-23T16:00:29.999Z</time></trkpt><trkpt lat="50.90726140733889" lon="5.0678799399864785"><ele>45.0</ele><time>2026-04-23T16:00:30.999Z</time></trkpt><trkpt lat="50.90720937076569" lon="5.068092816521938"><ele>45.5</ele><time>2026-04-23T16:00:31.999Z</time></trkpt><trkpt lat="50.90715549771445" lon="5.068293469454015"><ele>46.0</ele><time>2026-04-23T16:00:32.999Z</time></trkpt><trkpt lat="50.90710828006303" lon="5.068506047444148"><ele>46.25</ele><time>2026-04-23T16:00:33.999Z</time></trkpt><trkpt lat="50.907053812897566" lon="5.068715557496512"><ele>46.5</ele><time>2026-04-23T16:00:34.999Z</time></trkpt><trkpt lat="50.906994508739736" lon="5.0689360683523885"><ele>46.75</ele><time>2026-04-23T16:00:35.999Z</time></trkpt><trkpt lat="50.90694691435189" lon="5.069168405841765"><ele>47.0</ele><time>2026-04-23T16:00:36.999Z</time></trkpt><trkpt lat="50.906891426607736" lon="5.0693955636407955"><ele>47.33333333333333</ele><time>2026-04-23T16:00:37.999Z</time></trkpt><trkpt lat="50.9068328516239" lon="5.06962097275848"><ele>47.666666666666664</ele><time>2026-04-23T16:00:38.999Z</time></trkpt><trkpt lat="50.90677473355886" lon="5.069848725331985"><ele>48.0</ele><time>2026-04-23T16:00:39.999Z</time></trkpt><trkpt lat="50.90671781457308" lon="5.070081721887209"><ele>48.33333333333333</ele><time>2026-04-23T16:00:40.999Z</time></trkpt><trkpt lat="50.906660072542515" lon="5.0703068139493865"><ele>48.666666666666664</ele><time>2026-04-23T16:00:41.999Z</time></trkpt><trkpt lat="50.90660023289834" lon="5.070534695055872"><ele>49.0</ele><time>2026-04-23T16:00:42.999Z</time></trkpt><trkpt lat="50.906540809785355" lon="5.0707647802061135"><ele>50.0</ele><time>2026-04-23T16:00:43.999Z</time></trkpt><trkpt lat="50.90648542956017" lon="5.070989953567368"><ele>51.0</ele><time>2026-04-23T16:00:44.999Z</time></trkpt><trkpt lat="50.90642610194042" lon="5.071225100205533"><ele>52.0</ele><time>2026-04-23T16:00:45.999Z</time></trkpt><trkpt lat="50.90636892170989" lon="5.071452820280121"><ele>52.33333333333333</ele><time>2026-04-23T16:00:46.999Z</time></trkpt><trkpt lat="50.906307668418954" lon="5.071689197303882"><ele>52.66666666666667</ele><time>2026-04-23T16:00:47.999Z</time></trkpt><trkpt lat="50.90624629988398" lon="5.071932351475587"><ele>53.0</ele><time>2026-04-23T16:00:48.999Z</time></trkpt><trkpt lat="50.906182249061075" lon="5.072165789310439"><ele>53.0</ele><time>2026-04-23T16:00:49.999Z</time></trkpt><trkpt lat="50.9061228022202" lon="5.072415919865663"><ele>53.0</ele><time>2026-04-23T16:00:50.999Z</time></trkpt><trkpt lat="50.90606504790751" lon="5.072648032155653"><ele>53.0</ele><time>2026-04-23T16:00:51.999Z</time></trkpt><trkpt lat="50.906007823437534" lon="5.072889166178338"><ele>53.333333333333336</ele><time>2026-04-23T16:00:52.999Z</time></trkpt><trkpt lat="50.90593466768433" lon="5.073109332784561"><ele>53.66666666666667</ele><time>2026-04-23T16:00:53.999Z</time></trkpt><trkpt lat="50.90587197011234" lon="5.073348478929506"><ele>54.0</ele><time>2026-04-23T16:00:54.999Z</time></trkpt><trkpt lat="50.90582470769151" lon="5.073593663552269"><ele>54.0</ele><time>2026-04-23T16:00:55.999Z</time></trkpt><trkpt lat="50.905764635412325" lon="5.073829364969756"><ele>54.0</ele><time>2026-04-23T16:00:56.999Z</time></trkpt><trkpt lat="50.905690105983794" lon="5.074058320171939"><ele>54.0</ele><time>2026-04-23T16:00:57.999Z</time></trkpt><trkpt lat="50.905630548997514" lon="5.074291304163322"><ele>54.0</ele><time>2026-04-23T16:00:58.999Z</time></trkpt><trkpt lat="50.90558612218299" lon="5.074530712169694"><ele>54.0</ele><time>2026-04-23T16:00:59.999Z</time></trkpt><trkpt lat="50.90552582463333" lon="5.074769173051249"><ele>54.0</ele><time>2026-04-23T16:01:00.999Z</time></trkpt><trkpt lat="50.9054542000253" lon="5.074980452919135"><ele>54.0</ele><time>2026-04-23T16:01:01.999Z</time></trkpt><trkpt lat="50.905400776877435" lon="5.075185173917136"><ele>54.0</ele><time>2026-04-23T16:01:02.999Z</time></trkpt><trkpt lat="50.90535417561985" lon="5.075363752990223"><ele>54.0</ele><time>2026-04-23T16:01:03.999Z</time></trkpt><trkpt lat="50.90531199602886" lon="5.075525387885862"><ele>54.0</ele><time>2026-04-23T16:01:04.999Z</time></trkpt><trkpt lat="50.9052742751404" lon="5.075669936734755"><ele>53.75</ele><time>2026-04-23T16:01:05.999Z</time></trkpt><trkpt lat="50.90524045357908" lon="5.075798592349307"><ele>53.5</ele><time>2026-04-23T16:01:06.999Z</time></trkpt><trkpt lat="50.90521168339749" lon="5.075923529987248"><ele>53.25</ele><time>2026-04-23T16:01:07.999Z</time></trkpt><trkpt lat="50.905320308020045" lon="5.0761546477926895"><ele>53.0</ele><time>2026-04-23T16:01:09.998Z</time></trkpt><trkpt lat="50.90539329573822" lon="5.076291737394461"><ele>53.0</ele><time>2026-04-23T16:01:10.998Z</time></trkpt><trkpt lat="50.90545832035766" lon="5.076430548819084"><ele>53.0</ele><time>2026-04-23T16:01:11.998Z</time></trkpt><trkpt lat="50.905526666476575" lon="5.0765869980852765"><ele>53.0</ele><time>2026-04-23T16:01:12.998Z</time></trkpt><trkpt lat="50.90559259150649" lon="5.076766263415939"><ele>53.0</ele><time>2026-04-23T16:01:13.998Z</time></trkpt><trkpt lat="50.90562115817394" lon="5.076968866838546"><ele>53.0</ele><time>2026-04-23T16:01:14.998Z</time></trkpt><trkpt lat="50.90565580124786" lon="5.077173468735969"><ele>53.0</ele><time>2026-04-23T16:01:15.998Z</time></trkpt><trkpt lat="50.90568355493614" lon="5.077355419368508"><ele>53.0</ele><time>2026-04-23T16:01:16.998Z</time></trkpt><trkpt lat="50.90571985941594" lon="5.0775182441104185"><ele>53.0</ele><time>2026-04-23T16:01:17.998Z</time></trkpt><trkpt lat="50.905742897608036" lon="5.077660348048308"><ele>53.0</ele><time>2026-04-23T16:01:18.998Z</time></trkpt><trkpt lat="50.905763525632" lon="5.077793078070925"><ele>53.0</ele><time>2026-04-23T16:01:19.998Z</time></trkpt><trkpt lat="50.90578686463379" lon="5.077931800528006"><ele>53.0</ele><time>2026-04-23T16:01:20.998Z</time></trkpt><trkpt lat="50.90581621574987" lon="5.078138402220286"><ele>53.0</ele><time>2026-04-23T16:01:21.998Z</time></trkpt><trkpt lat="50.90584202752326" lon="5.078329034075721"><ele>53.0</ele><time>2026-04-23T16:01:22.998Z</time></trkpt><trkpt lat="50.90586941077234" lon="5.078480628250237"><ele>53.0</ele><time>2026-04-23T16:01:23.998Z</time></trkpt><trkpt lat="50.90590177394859" lon="5.078678360935502"><ele>53.0</ele><time>2026-04-23T16:01:24.998Z</time></trkpt><trkpt lat="50.90594040438209" lon="5.078922597345618"><ele>53.0</ele><time>2026-04-23T16:01:25.998Z</time></trkpt><trkpt lat="50.905971525090386" lon="5.079125110622842"><ele>53.0</ele><time>2026-04-23T16:01:26.998Z</time></trkpt><trkpt lat="50.906004870663644" lon="5.079335719470592"><ele>52.66666666666667</ele><time>2026-04-23T16:01:27.998Z</time></trkpt><trkpt lat="50.90604930834414" lon="5.079594153276174"><ele>52.33333333333333</ele><time>2026-04-23T16:01:28.998Z</time></trkpt><trkpt lat="50.90609281113779" lon="5.079881564523572"><ele>52.0</ele><time>2026-04-23T16:01:29.998Z</time></trkpt><trkpt lat="50.90614486567265" lon="5.080205297228205"><ele>52.0</ele><time>2026-04-23T16:01:30.998Z</time></trkpt><trkpt lat="50.90619580072067" lon="5.080548326728364"><ele>52.0</ele><time>2026-04-23T16:01:31.998Z</time></trkpt><trkpt lat="50.90625096783816" lon="5.080910680410877"><ele>52.0</ele><time>2026-04-23T16:01:32.998Z</time></trkpt><trkpt lat="50.90630803952943" lon="5.081297780182886"><ele>52.0</ele><time>2026-04-23T16:01:33.998Z</time></trkpt><trkpt lat="50.906369799292655" lon="5.081682583115039"><ele>51.5</ele><time>2026-04-23T16:01:34.998Z</time></trkpt><trkpt lat="50.90643285980071" lon="5.082080550694892"><ele>51.0</ele><time>2026-04-23T16:01:35.998Z</time></trkpt><trkpt lat="50.906490492963044" lon="5.082453166850133"><ele>51.0</ele><time>2026-04-23T16:01:36.998Z</time></trkpt><trkpt lat="50.90654360024118" lon="5.082792828593017"><ele>51.0</ele><time>2026-04-23T16:01:37.998Z</time></trkpt><trkpt lat="50.906593041173494" lon="5.083124770253957"><ele>51.0</ele><time>2026-04-23T16:01:38.998Z</time></trkpt><trkpt lat="50.90663668968378" lon="5.0834489759069825"><ele>50.66666666666667</ele><time>2026-04-23T16:01:39.998Z</time></trkpt><trkpt lat="50.90667818612513" lon="5.083758290478676"><ele>50.333333333333336</ele><time>2026-04-23T16:01:40.998Z</time></trkpt><trkpt lat="50.90671497835496" lon="5.084066617310822"><ele>50.0</ele><time>2026-04-23T16:01:41.998Z</time></trkpt><trkpt lat="50.906749386685235" lon="5.084382449409169"><ele>49.333333333333336</ele><time>2026-04-23T16:01:43Z</time></trkpt><trkpt lat="50.906783613985745" lon="5.08469366457495"><ele>48.66666666666667</ele><time>2026-04-23T16:01:44Z</time></trkpt><trkpt lat="50.906819935599415" lon="5.084967528809217"><ele>48.0</ele><time>2026-04-23T16:01:45Z</time></trkpt><trkpt lat="50.90685568741442" lon="5.085234418835907"><ele>48.0</ele><time>2026-04-23T16:01:46Z</time></trkpt><trkpt lat="50.90689067186274" lon="5.085479944447816"><ele>48.0</ele><time>2026-04-23T16:01:47Z</time></trkpt><trkpt lat="50.90692287356581" lon="5.085726923520863"><ele>48.0</ele><time>2026-04-23T16:01:48Z</time></trkpt><trkpt lat="50.906954536211984" lon="5.085969523951747"><ele>47.75</ele><time>2026-04-23T16:01:49Z</time></trkpt><trkpt lat="50.906991228404884" lon="5.086190279196943"><ele>47.5</ele><time>2026-04-23T16:01:50Z</time></trkpt><trkpt lat="50.907032599984696" lon="5.086399102220627"><ele>47.25</ele><time>2026-04-23T16:01:51Z</time></trkpt><trkpt lat="50.90707394373004" lon="5.086614992621044"><ele>47.0</ele><time>2026-04-23T16:01:52Z</time></trkpt><trkpt lat="50.9070423330139" lon="5.086857450928263"><ele>46.33333333333333</ele><time>2026-04-23T16:01:53Z</time></trkpt><trkpt lat="50.90702513251312" lon="5.087141039840628"><ele>45.666666666666664</ele><time>2026-04-23T16:01:54Z</time></trkpt><trkpt lat="50.907023633920254" lon="5.087416720497139"><ele>45.0</ele><time>2026-04-23T16:01:55Z</time></trkpt><trkpt lat="50.90702610199796" lon="5.0876925573784115"><ele>45.0</ele><time>2026-04-23T16:01:56Z</time></trkpt><trkpt lat="50.90702927974665" lon="5.087947677820585"><ele>45.0</ele><time>2026-04-23T16:01:57Z</time></trkpt><trkpt lat="50.90704817032657" lon="5.088176743006219"><ele>45.0</ele><time>2026-04-23T16:01:58Z</time></trkpt><trkpt lat="50.90703712215209" lon="5.088411062724673"><ele>45.25</ele><time>2026-04-23T16:01:59Z</time></trkpt><trkpt lat="50.907044489104855" lon="5.088642092523153"><ele>45.5</ele><time>2026-04-23T16:02:00Z</time></trkpt><trkpt lat="50.907051835365124" lon="5.088844953248045"><ele>45.75</ele><time>2026-04-23T16:02:01Z</time></trkpt><trkpt lat="50.90706499539082" lon="5.08902991289075"><ele>46.0</ele><time>2026-04-23T16:02:02Z</time></trkpt><trkpt lat="50.90708298170574" lon="5.089191348434015"><ele>46.0</ele><time>2026-04-23T16:02:03Z</time></trkpt><trkpt lat="50.90710048565168" lon="5.089354212726001"><ele>46.0</ele><time>2026-04-23T16:02:04Z</time></trkpt><trkpt lat="50.90712143883827" lon="5.08952606468089"><ele>46.0</ele><time>2026-04-23T16:02:05Z</time></trkpt><trkpt lat="50.90714355091703" lon="5.089712002746316"><ele>46.0</ele><time>2026-04-23T16:02:06Z</time></trkpt><trkpt lat="50.907149670383504" lon="5.089922332004276"><ele>45.5</ele><time>2026-04-23T16:02:07Z</time></trkpt><trkpt lat="50.9070919944961" lon="5.090095159183969"><ele>45.0</ele><time>2026-04-23T16:02:08Z</time></trkpt><trkpt lat="50.90701710434713" lon="5.09030162930074"><ele>44.5</ele><time>2026-04-23T16:02:09Z</time></trkpt><trkpt lat="50.90695898904164" lon="5.090524943006312"><ele>44.0</ele><time>2026-04-23T16:02:10Z</time></trkpt><trkpt lat="50.90688773420293" lon="5.0907317086361035"><ele>43.666666666666664</ele><time>2026-04-23T16:02:11Z</time></trkpt><trkpt lat="50.90679658769381" lon="5.090936856658419"><ele>43.333333333333336</ele><time>2026-04-23T16:02:12Z</time></trkpt><trkpt lat="50.906715077372674" lon="5.091168240869742"><ele>43.0</ele><time>2026-04-23T16:02:13Z</time></trkpt><trkpt lat="50.906640199748544" lon="5.091383285970874"><ele>43.0</ele><time>2026-04-23T16:02:14Z</time></trkpt><trkpt lat="50.90658631669383" lon="5.091588342500667"><ele>43.0</ele><time>2026-04-23T16:02:15Z</time></trkpt><trkpt lat="50.9065514764665" lon="5.091845694767731"><ele>43.0</ele><time>2026-04-23T16:02:16Z</time></trkpt><trkpt lat="50.90650756127385" lon="5.092152228350982"><ele>42.66666666666667</ele><time>2026-04-23T16:02:17Z</time></trkpt><trkpt lat="50.90646598841428" lon="5.092413998062114"><ele>42.333333333333336</ele><time>2026-04-23T16:02:18Z</time></trkpt><trkpt lat="50.906412112236225" lon="5.0926721420410495"><ele>42.0</ele><time>2026-04-23T16:02:18.999Z</time></trkpt><trkpt lat="50.90637591617205" lon="5.092897669295964"><ele>42.5</ele><time>2026-04-23T16:02:19.999Z</time></trkpt><trkpt lat="50.90634150865339" lon="5.0931050584697415"><ele>43.0</ele><time>2026-04-23T16:02:20.999Z</time></trkpt><trkpt lat="50.9063014046606" lon="5.093298961120262"><ele>43.5</ele><time>2026-04-23T16:02:21.999Z</time></trkpt><trkpt lat="50.906231739837736" lon="5.093484600650129"><ele>44.0</ele><time>2026-04-23T16:02:22.999Z</time></trkpt><trkpt lat="50.90611976145594" lon="5.0935999207063825"><ele>44.666666666666664</ele><time>2026-04-23T16:02:23.999Z</time></trkpt><trkpt lat="50.9059870024418" lon="5.093700616854202"><ele>45.333333333333336</ele><time>2026-04-23T16:02:24.999Z</time></trkpt><trkpt lat="50.905838327092184" lon="5.0937819258211565"><ele>46.0</ele><time>2026-04-23T16:02:25.999Z</time></trkpt><trkpt lat="50.905678314965364" lon="5.093892326194896"><ele>46.0</ele><time>2026-04-23T16:02:26.999Z</time></trkpt><trkpt lat="50.9055176389536" lon="5.093985204187728"><ele>46.0</ele><time>2026-04-23T16:02:27.999Z</time></trkpt><trkpt lat="50.905359675081755" lon="5.09407965747066"><ele>46.0</ele><time>2026-04-23T16:02:28.999Z</time></trkpt><trkpt lat="50.90520554495903" lon="5.094168286414603"><ele>46.66666666666667</ele><time>2026-04-23T16:02:29.999Z</time></trkpt><trkpt lat="50.90505647586352" lon="5.094253829687177"><ele>47.333333333333336</ele><time>2026-04-23T16:02:30.999Z</time></trkpt><trkpt lat="50.90491097515682" lon="5.094339895416243"><ele>48.0</ele><time>2026-04-23T16:02:31.999Z</time></trkpt><trkpt lat="50.90477023586864" lon="5.094420204959147"><ele>48.0</ele><time>2026-04-23T16:02:32.999Z</time></trkpt><trkpt lat="50.904631694900544" lon="5.094505888665113"><ele>48.0</ele><time>2026-04-23T16:02:33.999Z</time></trkpt><trkpt lat="50.90449158660806" lon="5.094597046773627"><ele>48.0</ele><time>2026-04-23T16:02:34.999Z</time></trkpt><trkpt lat="50.90435446353354" lon="5.094688687979156"><ele>48.0</ele><time>2026-04-23T16:02:35.999Z</time></trkpt><trkpt lat="50.90422389456114" lon="5.094778419855444"><ele>48.2</ele><time>2026-04-23T16:02:36.999Z</time></trkpt><trkpt lat="50.904109827678404" lon="5.094865650359078"><ele>48.4</ele><time>2026-04-23T16:02:37.999Z</time></trkpt><trkpt lat="50.90401119966981" lon="5.094949426928591"><ele>48.6</ele><time>2026-04-23T16:02:38.999Z</time></trkpt><trkpt lat="50.90392136665598" lon="5.095022049094635"><ele>48.800000000000004</ele><time>2026-04-23T16:02:39.999Z</time></trkpt><trkpt lat="50.90384524204503" lon="5.095085931390696"><ele>49.0</ele><time>2026-04-23T16:02:40.999Z</time></trkpt><trkpt lat="50.90377689406612" lon="5.095143204729564"><ele>48.99999999999999</ele><time>2026-04-23T16:02:41.999Z</time></trkpt><trkpt lat="50.90372032232636" lon="5.095196925763693"><ele>49.0</ele><time>2026-04-23T16:02:42.999Z</time></trkpt><trkpt lat="50.9036937955746" lon="5.095325803331347"><ele>49.0</ele><time>2026-04-23T16:02:43.999Z</time></trkpt><trkpt lat="50.90371642107679" lon="5.095468861691822"><ele>49.0</ele><time>2026-04-23T16:02:44.999Z</time></trkpt><trkpt lat="50.90376007856964" lon="5.095583372484717"><ele>48.99999999999999</ele><time>2026-04-23T16:02:45.999Z</time></trkpt><trkpt lat="50.903814582477615" lon="5.095672919983033"><ele>49.0</ele><time>2026-04-23T16:02:46.999Z</time></trkpt><trkpt lat="50.90375716788414" lon="5.095825066235421"><ele>49.0</ele><time>2026-04-23T16:02:48.999Z</time></trkpt><trkpt lat="50.90368011511995" lon="5.095875834534517"><ele>49.0</ele><time>2026-04-23T16:02:49.999Z</time></trkpt><trkpt lat="50.90360508314651" lon="5.095986130116518"><ele>49.0</ele><time>2026-04-23T16:02:50.999Z</time></trkpt><trkpt lat="50.90351769998701" lon="5.096090465528377"><ele>49.0</ele><time>2026-04-23T16:02:51.999Z</time></trkpt><trkpt lat="50.903418805044595" lon="5.096188307639862"><ele>49.0</ele><time>2026-04-23T16:02:52.999Z</time></trkpt><trkpt lat="50.903336059681116" lon="5.0963204526062045"><ele>49.2</ele><time>2026-04-23T16:02:53.999Z</time></trkpt><trkpt lat="50.903264327721615" lon="5.096436051839051"><ele>49.400000000000006</ele><time>2026-04-23T16:02:54.999Z</time></trkpt><trkpt lat="50.90320787291142" lon="5.096557228397873"><ele>49.6</ele><time>2026-04-23T16:02:55.999Z</time></trkpt><trkpt lat="50.90311775436972" lon="5.096629549430076"><ele>49.8</ele><time>2026-04-23T16:02:56.999Z</time></trkpt><trkpt lat="50.9030358816598" lon="5.096721831290902"><ele>50.0</ele><time>2026-04-23T16:02:57.999Z</time></trkpt><trkpt lat="50.90295299425982" lon="5.0968104154762965"><ele>50.0</ele><time>2026-04-23T16:02:58.999Z</time></trkpt><trkpt lat="50.90286759988648" lon="5.096880682866182"><ele>50.0</ele><time>2026-04-23T16:02:59.999Z</time></trkpt><trkpt lat="50.902787132911456" lon="5.0969375411591304"><ele>50.0</ele><time>2026-04-23T16:03:00.999Z</time></trkpt><trkpt lat="50.902689606701536" lon="5.09699352855896"><ele>50.0</ele><time>2026-04-23T16:03:01.999Z</time></trkpt><trkpt lat="50.902601896886225" lon="5.097045767882418"><ele>50.0</ele><time>2026-04-23T16:03:02.999Z</time></trkpt><trkpt lat="50.9025206813596" lon="5.09709553733728"><ele>50.0</ele><time>2026-04-23T16:03:03.999Z</time></trkpt><trkpt lat="50.902459274075085" lon="5.097133371555131"><ele>50.0</ele><time>2026-04-23T16:03:04.999Z</time></trkpt><trkpt lat="50.902376145574394" lon="5.097184588945815"><ele>50.0</ele><time>2026-04-23T16:03:06.999Z</time></trkpt></trkseg></trk></gpx>